<?xml version="1.0" encoding="UTF-8" standalone="no" ?>
<gpx xmlns="http://www.topografix.com/GPX/1/1" creator="Cyclopedia.no" version="1.1" xmlns:xsi="http://www.w3.org/2001/XMLSchema-instance" xsi:schemaLocation="http://www.topografix.com/GPX/1/1 http://www.topografix.com/GPX/1/1/gpx.xsd">
	<metadata>
		<link href="http://www.cyclopedia.no"><text>Cyclopedia.no</text></link>
		<time>2026-05-06T15:22:25Z</time>	</metadata>
	<wpt lat="58.9570145" lon="5.73514230000001"><ele>12</ele><time>0001-01-01T00:00:00Z</time><name>Start</name></wpt>
	<wpt lat="60.3992517" lon="5.32006250000001"><ele>10</ele><time>0001-01-01T00:00:00Z</time><name>Slutt</name></wpt>
	<trk>
		<name>Stavanger - Bergen</name>
		<trkseg>
				<trkpt lat="58.95701" lon="5.73514">
					<ele>12</ele>
					<time>0001-01-01T00:00:00Z</time>
				</trkpt>
				<trkpt lat="58.95724" lon="5.73517">
					<ele>12</ele>
					<time>0001-01-01T00:00:00Z</time>
				</trkpt>
				<trkpt lat="58.95770" lon="5.73530">
					<ele>13</ele>
					<time>0001-01-01T00:00:00Z</time>
				</trkpt>
				<trkpt lat="58.95826" lon="5.73540">
					<ele>13</ele>
					<time>0001-01-01T00:00:00Z</time>
				</trkpt>
				<trkpt lat="58.95843" lon="5.73577">
					<ele>14</ele>
					<time>0001-01-01T00:00:00Z</time>
				</trkpt>
				<trkpt lat="58.95861" lon="5.73642">
					<ele>13</ele>
					<time>0001-01-01T00:00:00Z</time>
				</trkpt>
				<trkpt lat="58.95860" lon="5.73666">
					<ele>13</ele>
					<time>0001-01-01T00:00:00Z</time>
				</trkpt>
				<trkpt lat="58.95858" lon="5.73704">
					<ele>13</ele>
					<time>0001-01-01T00:00:00Z</time>
				</trkpt>
				<trkpt lat="58.95884" lon="5.73721">
					<ele>13</ele>
					<time>0001-01-01T00:00:00Z</time>
				</trkpt>
				<trkpt lat="58.95890" lon="5.73716">
					<ele>13</ele>
					<time>0001-01-01T00:00:00Z</time>
				</trkpt>
				<trkpt lat="58.95925" lon="5.73683">
					<ele>13</ele>
					<time>0001-01-01T00:00:00Z</time>
				</trkpt>
				<trkpt lat="58.95955" lon="5.73634">
					<ele>13</ele>
					<time>0001-01-01T00:00:00Z</time>
				</trkpt>
				<trkpt lat="58.95979" lon="5.73631">
					<ele>12</ele>
					<time>0001-01-01T00:00:00Z</time>
				</trkpt>
				<trkpt lat="58.96005" lon="5.73616">
					<ele>12</ele>
					<time>0001-01-01T00:00:00Z</time>
				</trkpt>
				<trkpt lat="58.96112" lon="5.73527">
					<ele>11</ele>
					<time>0001-01-01T00:00:00Z</time>
				</trkpt>
				<trkpt lat="58.96184" lon="5.73463">
					<ele>9</ele>
					<time>0001-01-01T00:00:00Z</time>
				</trkpt>
				<trkpt lat="58.96194" lon="5.73456">
					<ele>9</ele>
					<time>0001-01-01T00:00:00Z</time>
				</trkpt>
				<trkpt lat="58.96334" lon="5.73334">
					<ele>6</ele>
					<time>0001-01-01T00:00:00Z</time>
				</trkpt>
				<trkpt lat="58.96428" lon="5.73263">
					<ele>3</ele>
					<time>0001-01-01T00:00:00Z</time>
				</trkpt>
				<trkpt lat="58.96499" lon="5.73212">
					<ele>1</ele>
					<time>0001-01-01T00:00:00Z</time>
				</trkpt>
				<trkpt lat="58.96513" lon="5.73198">
					<ele>0</ele>
					<time>0001-01-01T00:00:00Z</time>
				</trkpt>
				<trkpt lat="58.96541" lon="5.73180">
					<ele>-1</ele>
					<time>0001-01-01T00:00:00Z</time>
				</trkpt>
				<trkpt lat="58.96557" lon="5.73176">
					<ele>-2</ele>
					<time>0001-01-01T00:00:00Z</time>
				</trkpt>
				<trkpt lat="58.96560" lon="5.73128">
					<ele>-3</ele>
					<time>0001-01-01T00:00:00Z</time>
				</trkpt>
				<trkpt lat="58.96519" lon="5.72966">
					<ele>-7</ele>
					<time>0001-01-01T00:00:00Z</time>
				</trkpt>
				<trkpt lat="58.96519" lon="5.72914">
					<ele>-9</ele>
					<time>0001-01-01T00:00:00Z</time>
				</trkpt>
				<trkpt lat="58.96540" lon="5.72915">
					<ele>-11</ele>
					<time>0001-01-01T00:00:00Z</time>
				</trkpt>
				<trkpt lat="58.96576" lon="5.72932">
					<ele>-8</ele>
					<time>0001-01-01T00:00:00Z</time>
				</trkpt>
				<trkpt lat="58.96679" lon="5.72851">
					<ele>3</ele>
					<time>0001-01-01T00:00:00Z</time>
				</trkpt>
				<trkpt lat="58.96777" lon="5.72794">
					<ele>5</ele>
					<time>0001-01-01T00:00:00Z</time>
				</trkpt>
				<trkpt lat="58.96807" lon="5.72761">
					<ele>5</ele>
					<time>0001-01-01T00:00:00Z</time>
				</trkpt>
				<trkpt lat="58.96870" lon="5.72714">
					<ele>6</ele>
					<time>0001-01-01T00:00:00Z</time>
				</trkpt>
				<trkpt lat="58.97021" lon="5.72532">
					<ele>12</ele>
					<time>0001-01-01T00:00:00Z</time>
				</trkpt>
				<trkpt lat="58.97168" lon="5.72339">
					<ele>17</ele>
					<time>0001-01-01T00:00:00Z</time>
				</trkpt>
				<trkpt lat="58.97196" lon="5.72278">
					<ele>17</ele>
					<time>0001-01-01T00:00:00Z</time>
				</trkpt>
				<trkpt lat="58.97275" lon="5.72242">
					<ele>17</ele>
					<time>0001-01-01T00:00:00Z</time>
				</trkpt>
				<trkpt lat="58.97357" lon="5.72189">
					<ele>18</ele>
					<time>0001-01-01T00:00:00Z</time>
				</trkpt>
				<trkpt lat="58.97384" lon="5.72187">
					<ele>18</ele>
					<time>0001-01-01T00:00:00Z</time>
				</trkpt>
				<trkpt lat="58.97398" lon="5.72146">
					<ele>15</ele>
					<time>0001-01-01T00:00:00Z</time>
				</trkpt>
				<trkpt lat="58.97418" lon="5.72076">
					<ele>15</ele>
					<time>0001-01-01T00:00:00Z</time>
				</trkpt>
				<trkpt lat="58.97549" lon="5.71913">
					<ele>14</ele>
					<time>0001-01-01T00:00:00Z</time>
				</trkpt>
				<trkpt lat="58.97631" lon="5.71790">
					<ele>19</ele>
					<time>0001-01-01T00:00:00Z</time>
				</trkpt>
				<trkpt lat="58.97723" lon="5.71662">
					<ele>24</ele>
					<time>0001-01-01T00:00:00Z</time>
				</trkpt>
				<trkpt lat="58.97755" lon="5.71621">
					<ele>24</ele>
					<time>0001-01-01T00:00:00Z</time>
				</trkpt>
				<trkpt lat="58.97779" lon="5.71609">
					<ele>23</ele>
					<time>0001-01-01T00:00:00Z</time>
				</trkpt>
				<trkpt lat="58.97938" lon="5.71565">
					<ele>23</ele>
					<time>0001-01-01T00:00:00Z</time>
				</trkpt>
				<trkpt lat="58.98048" lon="5.71374">
					<ele>24</ele>
					<time>0001-01-01T00:00:00Z</time>
				</trkpt>
				<trkpt lat="58.98114" lon="5.71137">
					<ele>27</ele>
					<time>0001-01-01T00:00:00Z</time>
				</trkpt>
				<trkpt lat="58.98182" lon="5.70945">
					<ele>24</ele>
					<time>0001-01-01T00:00:00Z</time>
				</trkpt>
				<trkpt lat="58.98207" lon="5.70893">
					<ele>22</ele>
					<time>0001-01-01T00:00:00Z</time>
				</trkpt>
				<trkpt lat="58.98330" lon="5.70839">
					<ele>21</ele>
					<time>0001-01-01T00:00:00Z</time>
				</trkpt>
				<trkpt lat="58.98368" lon="5.70823">
					<ele>18</ele>
					<time>0001-01-01T00:00:00Z</time>
				</trkpt>
				<trkpt lat="58.98537" lon="5.70646">
					<ele>13</ele>
					<time>0001-01-01T00:00:00Z</time>
				</trkpt>
				<trkpt lat="58.98557" lon="5.70592">
					<ele>13</ele>
					<time>0001-01-01T00:00:00Z</time>
				</trkpt>
				<trkpt lat="58.98595" lon="5.70505">
					<ele>13</ele>
					<time>0001-01-01T00:00:00Z</time>
				</trkpt>
				<trkpt lat="58.98706" lon="5.70339">
					<ele>11</ele>
					<time>0001-01-01T00:00:00Z</time>
				</trkpt>
				<trkpt lat="58.98723" lon="5.70308">
					<ele>10</ele>
					<time>0001-01-01T00:00:00Z</time>
				</trkpt>
				<trkpt lat="58.98776" lon="5.70177">
					<ele>10</ele>
					<time>0001-01-01T00:00:00Z</time>
				</trkpt>
				<trkpt lat="58.98875" lon="5.70032">
					<ele>11</ele>
					<time>0001-01-01T00:00:00Z</time>
				</trkpt>
				<trkpt lat="58.98927" lon="5.69862">
					<ele>15</ele>
					<time>0001-01-01T00:00:00Z</time>
				</trkpt>
				<trkpt lat="58.98995" lon="5.69680">
					<ele>22</ele>
					<time>0001-01-01T00:00:00Z</time>
				</trkpt>
				<trkpt lat="58.99043" lon="5.69578">
					<ele>25</ele>
					<time>0001-01-01T00:00:00Z</time>
				</trkpt>
				<trkpt lat="58.99087" lon="5.69338">
					<ele>26</ele>
					<time>0001-01-01T00:00:00Z</time>
				</trkpt>
				<trkpt lat="58.99157" lon="5.69181">
					<ele>29</ele>
					<time>0001-01-01T00:00:00Z</time>
				</trkpt>
				<trkpt lat="58.99161" lon="5.69174">
					<ele>29</ele>
					<time>0001-01-01T00:00:00Z</time>
				</trkpt>
				<trkpt lat="58.99172" lon="5.69145">
					<ele>30</ele>
					<time>0001-01-01T00:00:00Z</time>
				</trkpt>
				<trkpt lat="58.99179" lon="5.69116">
					<ele>31</ele>
					<time>0001-01-01T00:00:00Z</time>
				</trkpt>
				<trkpt lat="58.99226" lon="5.69080">
					<ele>29</ele>
					<time>0001-01-01T00:00:00Z</time>
				</trkpt>
				<trkpt lat="58.99233" lon="5.69073">
					<ele>29</ele>
					<time>0001-01-01T00:00:00Z</time>
				</trkpt>
				<trkpt lat="58.99357" lon="5.68893">
					<ele>30</ele>
					<time>0001-01-01T00:00:00Z</time>
				</trkpt>
				<trkpt lat="58.99469" lon="5.68660">
					<ele>34</ele>
					<time>0001-01-01T00:00:00Z</time>
				</trkpt>
				<trkpt lat="58.99499" lon="5.68427">
					<ele>35</ele>
					<time>0001-01-01T00:00:00Z</time>
				</trkpt>
				<trkpt lat="58.99468" lon="5.68215">
					<ele>33</ele>
					<time>0001-01-01T00:00:00Z</time>
				</trkpt>
				<trkpt lat="58.99410" lon="5.67969">
					<ele>33</ele>
					<time>0001-01-01T00:00:00Z</time>
				</trkpt>
				<trkpt lat="58.99343" lon="5.67686">
					<ele>26</ele>
					<time>0001-01-01T00:00:00Z</time>
				</trkpt>
				<trkpt lat="58.99312" lon="5.67552">
					<ele>21</ele>
					<time>0001-01-01T00:00:00Z</time>
				</trkpt>
				<trkpt lat="58.99254" lon="5.67499">
					<ele>22</ele>
					<time>0001-01-01T00:00:00Z</time>
				</trkpt>
				<trkpt lat="58.99152" lon="5.67506">
					<ele>24</ele>
					<time>0001-01-01T00:00:00Z</time>
				</trkpt>
				<trkpt lat="58.98967" lon="5.67472">
					<ele>18</ele>
					<time>0001-01-01T00:00:00Z</time>
				</trkpt>
				<trkpt lat="58.98859" lon="5.67517">
					<ele>15</ele>
					<time>0001-01-01T00:00:00Z</time>
				</trkpt>
				<trkpt lat="58.98844" lon="5.67511">
					<ele>15</ele>
					<time>0001-01-01T00:00:00Z</time>
				</trkpt>
				<trkpt lat="58.98834" lon="5.67439">
					<ele>14</ele>
					<time>0001-01-01T00:00:00Z</time>
				</trkpt>
				<trkpt lat="58.98859" lon="5.67252">
					<ele>12</ele>
					<time>0001-01-01T00:00:00Z</time>
				</trkpt>
				<trkpt lat="58.98896" lon="5.67007">
					<ele>12</ele>
					<time>0001-01-01T00:00:00Z</time>
				</trkpt>
				<trkpt lat="58.98930" lon="5.66950">
					<ele>11</ele>
					<time>0001-01-01T00:00:00Z</time>
				</trkpt>
				<trkpt lat="58.99107" lon="5.66826">
					<ele>5</ele>
					<time>0001-01-01T00:00:00Z</time>
				</trkpt>
				<trkpt lat="58.99143" lon="5.66817">
					<ele>5</ele>
					<time>0001-01-01T00:00:00Z</time>
				</trkpt>
				<trkpt lat="58.99253" lon="5.66895">
					<ele>3</ele>
					<time>0001-01-01T00:00:00Z</time>
				</trkpt>
				<trkpt lat="58.99301" lon="5.66936">
					<ele>3</ele>
					<time>0001-01-01T00:00:00Z</time>
				</trkpt>
				<trkpt lat="58.99391" lon="5.66907">
					<ele>3</ele>
					<time>0001-01-01T00:00:00Z</time>
				</trkpt>
				<trkpt lat="58.99453" lon="5.66824">
					<ele>4</ele>
					<time>0001-01-01T00:00:00Z</time>
				</trkpt>
				<trkpt lat="58.99454" lon="5.66781">
					<ele>4</ele>
					<time>0001-01-01T00:00:00Z</time>
				</trkpt>
				<trkpt lat="58.99431" lon="5.66669">
					<ele>7</ele>
					<time>0001-01-01T00:00:00Z</time>
				</trkpt>
				<trkpt lat="58.99446" lon="5.66603">
					<ele>8</ele>
					<time>0001-01-01T00:00:00Z</time>
				</trkpt>
				<trkpt lat="58.99497" lon="5.66513">
					<ele>9</ele>
					<time>0001-01-01T00:00:00Z</time>
				</trkpt>
				<trkpt lat="58.99514" lon="5.66430">
					<ele>9</ele>
					<time>0001-01-01T00:00:00Z</time>
				</trkpt>
				<trkpt lat="58.99568" lon="5.66003">
					<ele>8</ele>
					<time>0001-01-01T00:00:00Z</time>
				</trkpt>
				<trkpt lat="58.99605" lon="5.65707">
					<ele>9</ele>
					<time>0001-01-01T00:00:00Z</time>
				</trkpt>
				<trkpt lat="58.99638" lon="5.65665">
					<ele>8</ele>
					<time>0001-01-01T00:00:00Z</time>
				</trkpt>
				<trkpt lat="58.99680" lon="5.65616">
					<ele>7</ele>
					<time>0001-01-01T00:00:00Z</time>
				</trkpt>
				<trkpt lat="58.99716" lon="5.65577">
					<ele>7</ele>
					<time>0001-01-01T00:00:00Z</time>
				</trkpt>
				<trkpt lat="58.99815" lon="5.65470">
					<ele>5</ele>
					<time>0001-01-01T00:00:00Z</time>
				</trkpt>
				<trkpt lat="58.99976" lon="5.65308">
					<ele>4</ele>
					<time>0001-01-01T00:00:00Z</time>
				</trkpt>
				<trkpt lat="59.00107" lon="5.65251">
					<ele>4</ele>
					<time>0001-01-01T00:00:00Z</time>
				</trkpt>
				<trkpt lat="59.00132" lon="5.65243">
					<ele>4</ele>
					<time>0001-01-01T00:00:00Z</time>
				</trkpt>
				<trkpt lat="59.00144" lon="5.65246">
					<ele>4</ele>
					<time>0001-01-01T00:00:00Z</time>
				</trkpt>
				<trkpt lat="59.00189" lon="5.65222">
					<ele>5</ele>
					<time>0001-01-01T00:00:00Z</time>
				</trkpt>
				<trkpt lat="59.00340" lon="5.65164">
					<ele>11</ele>
					<time>0001-01-01T00:00:00Z</time>
				</trkpt>
				<trkpt lat="59.00476" lon="5.65095">
					<ele>12</ele>
					<time>0001-01-01T00:00:00Z</time>
				</trkpt>
				<trkpt lat="59.00607" lon="5.64951">
					<ele>12</ele>
					<time>0001-01-01T00:00:00Z</time>
				</trkpt>
				<trkpt lat="59.00683" lon="5.64734">
					<ele>15</ele>
					<time>0001-01-01T00:00:00Z</time>
				</trkpt>
				<trkpt lat="59.00714" lon="5.64535">
					<ele>19</ele>
					<time>0001-01-01T00:00:00Z</time>
				</trkpt>
				<trkpt lat="59.00731" lon="5.64513">
					<ele>21</ele>
					<time>0001-01-01T00:00:00Z</time>
				</trkpt>
				<trkpt lat="59.00730" lon="5.64486">
					<ele>21</ele>
					<time>0001-01-01T00:00:00Z</time>
				</trkpt>
				<trkpt lat="59.00722" lon="5.64439">
					<ele>20</ele>
					<time>0001-01-01T00:00:00Z</time>
				</trkpt>
				<trkpt lat="59.00736" lon="5.64373">
					<ele>18</ele>
					<time>0001-01-01T00:00:00Z</time>
				</trkpt>
				<trkpt lat="59.00783" lon="5.64097">
					<ele>19</ele>
					<time>0001-01-01T00:00:00Z</time>
				</trkpt>
				<trkpt lat="59.00782" lon="5.64046">
					<ele>18</ele>
					<time>0001-01-01T00:00:00Z</time>
				</trkpt>
				<trkpt lat="59.00823" lon="5.63973">
					<ele>16</ele>
					<time>0001-01-01T00:00:00Z</time>
				</trkpt>
				<trkpt lat="59.01016" lon="5.63766">
					<ele>9</ele>
					<time>0001-01-01T00:00:00Z</time>
				</trkpt>
				<trkpt lat="59.01209" lon="5.63568">
					<ele>9</ele>
					<time>0001-01-01T00:00:00Z</time>
				</trkpt>
				<trkpt lat="59.01230" lon="5.63617">
					<ele>8</ele>
					<time>0001-01-01T00:00:00Z</time>
				</trkpt>
				<trkpt lat="59.01197" lon="5.63624">
					<ele>5</ele>
					<time>0001-01-01T00:00:00Z</time>
				</trkpt>
				<trkpt lat="59.01192" lon="5.63611">
					<ele>5</ele>
					<time>0001-01-01T00:00:00Z</time>
				</trkpt>
				<trkpt lat="59.01171" lon="5.63559">
					<ele>5</ele>
					<time>0001-01-01T00:00:00Z</time>
				</trkpt>
				<trkpt lat="59.01186" lon="5.63494">
					<ele>9</ele>
					<time>0001-01-01T00:00:00Z</time>
				</trkpt>
				<trkpt lat="59.01206" lon="5.63485">
					<ele>11</ele>
					<time>0001-01-01T00:00:00Z</time>
				</trkpt>
				<trkpt lat="59.01296" lon="5.63476">
					<ele>16</ele>
					<time>0001-01-01T00:00:00Z</time>
				</trkpt>
				<trkpt lat="59.01396" lon="5.63391">
					<ele>19</ele>
					<time>0001-01-01T00:00:00Z</time>
				</trkpt>
				<trkpt lat="59.01535" lon="5.63258">
					<ele>18</ele>
					<time>0001-01-01T00:00:00Z</time>
				</trkpt>
				<trkpt lat="59.01683" lon="5.63056">
					<ele>8</ele>
					<time>0001-01-01T00:00:00Z</time>
				</trkpt>
				<trkpt lat="59.01846" lon="5.62783">
					<ele>0</ele>
					<time>0001-01-01T00:00:00Z</time>
				</trkpt>
				<trkpt lat="59.01929" lon="5.62606">
					<ele>5</ele>
					<time>0001-01-01T00:00:00Z</time>
				</trkpt>
				<trkpt lat="59.01996" lon="5.62333">
					<ele>3</ele>
					<time>0001-01-01T00:00:00Z</time>
				</trkpt>
				<trkpt lat="59.02029" lon="5.61990">
					<ele>2</ele>
					<time>0001-01-01T00:00:00Z</time>
				</trkpt>
				<trkpt lat="59.02100" lon="5.61730">
					<ele>0</ele>
					<time>0001-01-01T00:00:00Z</time>
				</trkpt>
				<trkpt lat="59.02146" lon="5.61642">
					<ele>0</ele>
					<time>0001-01-01T00:00:00Z</time>
				</trkpt>
				<trkpt lat="59.02185" lon="5.61603">
					<ele>0</ele>
					<time>0001-01-01T00:00:00Z</time>
				</trkpt>
				<trkpt lat="59.02272" lon="5.61463">
					<ele>-3</ele>
					<time>0001-01-01T00:00:00Z</time>
				</trkpt>
				<trkpt lat="59.02282" lon="5.61448">
					<ele>-1</ele>
					<time>0001-01-01T00:00:00Z</time>
				</trkpt>
				<trkpt lat="59.02282" lon="5.61448">
					<ele>-1</ele>
					<time>0001-01-01T00:00:00Z</time>
				</trkpt>
				<trkpt lat="59.02314" lon="5.61402">
					<ele>-3</ele>
					<time>0001-01-01T00:00:00Z</time>
				</trkpt>
				<trkpt lat="59.02347" lon="5.61345">
					<ele>-5</ele>
					<time>0001-01-01T00:00:00Z</time>
				</trkpt>
				<trkpt lat="59.02366" lon="5.61317">
					<ele>-3</ele>
					<time>0001-01-01T00:00:00Z</time>
				</trkpt>
				<trkpt lat="59.02367" lon="5.61316">
					<ele>0</ele>
					<time>0001-01-01T00:00:00Z</time>
				</trkpt>
				<trkpt lat="59.02366" lon="5.61316">
					<ele>0</ele>
					<time>0001-01-01T00:00:00Z</time>
				</trkpt>
				<trkpt lat="59.02366" lon="5.61317">
					<ele>-1</ele>
					<time>0001-01-01T00:00:00Z</time>
				</trkpt>
				<trkpt lat="59.02366" lon="5.61310">
					<ele>-1</ele>
					<time>0001-01-01T00:00:00Z</time>
				</trkpt>
				<trkpt lat="59.02364" lon="5.61318">
					<ele>-2</ele>
					<time>0001-01-01T00:00:00Z</time>
				</trkpt>
				<trkpt lat="59.02363" lon="5.61317">
					<ele>-3</ele>
					<time>0001-01-01T00:00:00Z</time>
				</trkpt>
				<trkpt lat="59.02365" lon="5.61327">
					<ele>-1</ele>
					<time>0001-01-01T00:00:00Z</time>
				</trkpt>
				<trkpt lat="59.02365" lon="5.61333">
					<ele>-1</ele>
					<time>0001-01-01T00:00:00Z</time>
				</trkpt>
				<trkpt lat="59.02370" lon="5.61348">
					<ele>-1</ele>
					<time>0001-01-01T00:00:00Z</time>
				</trkpt>
				<trkpt lat="59.02390" lon="5.61388">
					<ele>-3</ele>
					<time>0001-01-01T00:00:00Z</time>
				</trkpt>
				<trkpt lat="59.02360" lon="5.61372">
					<ele>-9</ele>
					<time>0001-01-01T00:00:00Z</time>
				</trkpt>
				<trkpt lat="59.02350" lon="5.61350">
					<ele>-14</ele>
					<time>0001-01-01T00:00:00Z</time>
				</trkpt>
				<trkpt lat="59.14708" lon="5.26875">
					<ele>-41</ele>
					<time>0001-01-01T00:00:00Z</time>
				</trkpt>
				<trkpt lat="59.14731" lon="5.26886">
					<ele>-40</ele>
					<time>0001-01-01T00:00:00Z</time>
				</trkpt>
				<trkpt lat="59.14760" lon="5.26834">
					<ele>-34</ele>
					<time>0001-01-01T00:00:00Z</time>
				</trkpt>
				<trkpt lat="59.14822" lon="5.26690">
					<ele>-23</ele>
					<time>0001-01-01T00:00:00Z</time>
				</trkpt>
				<trkpt lat="59.14878" lon="5.26501">
					<ele>-18</ele>
					<time>0001-01-01T00:00:00Z</time>
				</trkpt>
				<trkpt lat="59.14898" lon="5.26439">
					<ele>-10</ele>
					<time>0001-01-01T00:00:00Z</time>
				</trkpt>
				<trkpt lat="59.14927" lon="5.26351">
					<ele>-6</ele>
					<time>0001-01-01T00:00:00Z</time>
				</trkpt>
				<trkpt lat="59.14996" lon="5.26112">
					<ele>0</ele>
					<time>0001-01-01T00:00:00Z</time>
				</trkpt>
				<trkpt lat="59.15020" lon="5.25993">
					<ele>3</ele>
					<time>0001-01-01T00:00:00Z</time>
				</trkpt>
				<trkpt lat="59.15040" lon="5.25976">
					<ele>3</ele>
					<time>0001-01-01T00:00:00Z</time>
				</trkpt>
				<trkpt lat="59.15134" lon="5.26017">
					<ele>12</ele>
					<time>0001-01-01T00:00:00Z</time>
				</trkpt>
				<trkpt lat="59.15258" lon="5.26057">
					<ele>20</ele>
					<time>0001-01-01T00:00:00Z</time>
				</trkpt>
				<trkpt lat="59.15342" lon="5.26097">
					<ele>23</ele>
					<time>0001-01-01T00:00:00Z</time>
				</trkpt>
				<trkpt lat="59.15377" lon="5.26142">
					<ele>25</ele>
					<time>0001-01-01T00:00:00Z</time>
				</trkpt>
				<trkpt lat="59.15405" lon="5.26230">
					<ele>26</ele>
					<time>0001-01-01T00:00:00Z</time>
				</trkpt>
				<trkpt lat="59.15438" lon="5.26409">
					<ele>25</ele>
					<time>0001-01-01T00:00:00Z</time>
				</trkpt>
				<trkpt lat="59.15426" lon="5.26742">
					<ele>24</ele>
					<time>0001-01-01T00:00:00Z</time>
				</trkpt>
				<trkpt lat="59.15367" lon="5.27186">
					<ele>19</ele>
					<time>0001-01-01T00:00:00Z</time>
				</trkpt>
				<trkpt lat="59.15338" lon="5.27396">
					<ele>12</ele>
					<time>0001-01-01T00:00:00Z</time>
				</trkpt>
				<trkpt lat="59.15333" lon="5.27428">
					<ele>9</ele>
					<time>0001-01-01T00:00:00Z</time>
				</trkpt>
				<trkpt lat="59.15318" lon="5.27539">
					<ele>9</ele>
					<time>0001-01-01T00:00:00Z</time>
				</trkpt>
				<trkpt lat="59.15255" lon="5.27800">
					<ele>12</ele>
					<time>0001-01-01T00:00:00Z</time>
				</trkpt>
				<trkpt lat="59.15237" lon="5.27867">
					<ele>14</ele>
					<time>0001-01-01T00:00:00Z</time>
				</trkpt>
				<trkpt lat="59.15227" lon="5.28062">
					<ele>20</ele>
					<time>0001-01-01T00:00:00Z</time>
				</trkpt>
				<trkpt lat="59.15225" lon="5.28271">
					<ele>21</ele>
					<time>0001-01-01T00:00:00Z</time>
				</trkpt>
				<trkpt lat="59.15260" lon="5.28467">
					<ele>24</ele>
					<time>0001-01-01T00:00:00Z</time>
				</trkpt>
				<trkpt lat="59.15353" lon="5.28755">
					<ele>27</ele>
					<time>0001-01-01T00:00:00Z</time>
				</trkpt>
				<trkpt lat="59.15385" lon="5.29024">
					<ele>27</ele>
					<time>0001-01-01T00:00:00Z</time>
				</trkpt>
				<trkpt lat="59.15424" lon="5.29264">
					<ele>28</ele>
					<time>0001-01-01T00:00:00Z</time>
				</trkpt>
				<trkpt lat="59.15534" lon="5.29372">
					<ele>30</ele>
					<time>0001-01-01T00:00:00Z</time>
				</trkpt>
				<trkpt lat="59.15719" lon="5.29474">
					<ele>29</ele>
					<time>0001-01-01T00:00:00Z</time>
				</trkpt>
				<trkpt lat="59.15902" lon="5.29579">
					<ele>27</ele>
					<time>0001-01-01T00:00:00Z</time>
				</trkpt>
				<trkpt lat="59.16087" lon="5.29746">
					<ele>24</ele>
					<time>0001-01-01T00:00:00Z</time>
				</trkpt>
				<trkpt lat="59.16236" lon="5.29773">
					<ele>25</ele>
					<time>0001-01-01T00:00:00Z</time>
				</trkpt>
				<trkpt lat="59.16431" lon="5.29773">
					<ele>28</ele>
					<time>0001-01-01T00:00:00Z</time>
				</trkpt>
				<trkpt lat="59.16591" lon="5.29833">
					<ele>30</ele>
					<time>0001-01-01T00:00:00Z</time>
				</trkpt>
				<trkpt lat="59.16761" lon="5.30034">
					<ele>30</ele>
					<time>0001-01-01T00:00:00Z</time>
				</trkpt>
				<trkpt lat="59.16919" lon="5.30141">
					<ele>28</ele>
					<time>0001-01-01T00:00:00Z</time>
				</trkpt>
				<trkpt lat="59.17076" lon="5.30151">
					<ele>25</ele>
					<time>0001-01-01T00:00:00Z</time>
				</trkpt>
				<trkpt lat="59.17251" lon="5.30146">
					<ele>27</ele>
					<time>0001-01-01T00:00:00Z</time>
				</trkpt>
				<trkpt lat="59.17372" lon="5.30257">
					<ele>26</ele>
					<time>0001-01-01T00:00:00Z</time>
				</trkpt>
				<trkpt lat="59.17541" lon="5.30464">
					<ele>28</ele>
					<time>0001-01-01T00:00:00Z</time>
				</trkpt>
				<trkpt lat="59.17738" lon="5.30705">
					<ele>28</ele>
					<time>0001-01-01T00:00:00Z</time>
				</trkpt>
				<trkpt lat="59.17884" lon="5.30788">
					<ele>29</ele>
					<time>0001-01-01T00:00:00Z</time>
				</trkpt>
				<trkpt lat="59.17944" lon="5.30792">
					<ele>28</ele>
					<time>0001-01-01T00:00:00Z</time>
				</trkpt>
				<trkpt lat="59.18020" lon="5.30846">
					<ele>29</ele>
					<time>0001-01-01T00:00:00Z</time>
				</trkpt>
				<trkpt lat="59.18177" lon="5.31087">
					<ele>31</ele>
					<time>0001-01-01T00:00:00Z</time>
				</trkpt>
				<trkpt lat="59.18269" lon="5.31164">
					<ele>28</ele>
					<time>0001-01-01T00:00:00Z</time>
				</trkpt>
				<trkpt lat="59.18336" lon="5.31275">
					<ele>28</ele>
					<time>0001-01-01T00:00:00Z</time>
				</trkpt>
				<trkpt lat="59.18384" lon="5.31296">
					<ele>28</ele>
					<time>0001-01-01T00:00:00Z</time>
				</trkpt>
				<trkpt lat="59.18527" lon="5.31257">
					<ele>28</ele>
					<time>0001-01-01T00:00:00Z</time>
				</trkpt>
				<trkpt lat="59.18703" lon="5.31186">
					<ele>27</ele>
					<time>0001-01-01T00:00:00Z</time>
				</trkpt>
				<trkpt lat="59.18816" lon="5.31145">
					<ele>32</ele>
					<time>0001-01-01T00:00:00Z</time>
				</trkpt>
				<trkpt lat="59.18911" lon="5.31135">
					<ele>29</ele>
					<time>0001-01-01T00:00:00Z</time>
				</trkpt>
				<trkpt lat="59.18977" lon="5.31155">
					<ele>29</ele>
					<time>0001-01-01T00:00:00Z</time>
				</trkpt>
				<trkpt lat="59.19022" lon="5.31115">
					<ele>29</ele>
					<time>0001-01-01T00:00:00Z</time>
				</trkpt>
				<trkpt lat="59.19053" lon="5.31054">
					<ele>29</ele>
					<time>0001-01-01T00:00:00Z</time>
				</trkpt>
				<trkpt lat="59.19104" lon="5.31024">
					<ele>33</ele>
					<time>0001-01-01T00:00:00Z</time>
				</trkpt>
				<trkpt lat="59.19196" lon="5.31081">
					<ele>40</ele>
					<time>0001-01-01T00:00:00Z</time>
				</trkpt>
				<trkpt lat="59.19205" lon="5.31088">
					<ele>40</ele>
					<time>0001-01-01T00:00:00Z</time>
				</trkpt>
				<trkpt lat="59.19313" lon="5.31119">
					<ele>37</ele>
					<time>0001-01-01T00:00:00Z</time>
				</trkpt>
				<trkpt lat="59.19504" lon="5.31157">
					<ele>29</ele>
					<time>0001-01-01T00:00:00Z</time>
				</trkpt>
				<trkpt lat="59.19592" lon="5.31146">
					<ele>28</ele>
					<time>0001-01-01T00:00:00Z</time>
				</trkpt>
				<trkpt lat="59.19667" lon="5.31054">
					<ele>26</ele>
					<time>0001-01-01T00:00:00Z</time>
				</trkpt>
				<trkpt lat="59.19704" lon="5.31015">
					<ele>27</ele>
					<time>0001-01-01T00:00:00Z</time>
				</trkpt>
				<trkpt lat="59.19765" lon="5.30996">
					<ele>27</ele>
					<time>0001-01-01T00:00:00Z</time>
				</trkpt>
				<trkpt lat="59.19808" lon="5.31056">
					<ele>27</ele>
					<time>0001-01-01T00:00:00Z</time>
				</trkpt>
				<trkpt lat="59.19818" lon="5.31054">
					<ele>27</ele>
					<time>0001-01-01T00:00:00Z</time>
				</trkpt>
				<trkpt lat="59.19854" lon="5.31050">
					<ele>27</ele>
					<time>0001-01-01T00:00:00Z</time>
				</trkpt>
				<trkpt lat="59.20094" lon="5.31094">
					<ele>27</ele>
					<time>0001-01-01T00:00:00Z</time>
				</trkpt>
				<trkpt lat="59.20176" lon="5.31156">
					<ele>27</ele>
					<time>0001-01-01T00:00:00Z</time>
				</trkpt>
				<trkpt lat="59.20204" lon="5.31245">
					<ele>28</ele>
					<time>0001-01-01T00:00:00Z</time>
				</trkpt>
				<trkpt lat="59.20309" lon="5.31333">
					<ele>28</ele>
					<time>0001-01-01T00:00:00Z</time>
				</trkpt>
				<trkpt lat="59.20329" lon="5.31343">
					<ele>28</ele>
					<time>0001-01-01T00:00:00Z</time>
				</trkpt>
				<trkpt lat="59.20415" lon="5.31408">
					<ele>27</ele>
					<time>0001-01-01T00:00:00Z</time>
				</trkpt>
				<trkpt lat="59.20445" lon="5.31459">
					<ele>28</ele>
					<time>0001-01-01T00:00:00Z</time>
				</trkpt>
				<trkpt lat="59.20517" lon="5.31482">
					<ele>28</ele>
					<time>0001-01-01T00:00:00Z</time>
				</trkpt>
				<trkpt lat="59.20549" lon="5.31488">
					<ele>28</ele>
					<time>0001-01-01T00:00:00Z</time>
				</trkpt>
				<trkpt lat="59.20648" lon="5.31571">
					<ele>32</ele>
					<time>0001-01-01T00:00:00Z</time>
				</trkpt>
				<trkpt lat="59.20682" lon="5.31596">
					<ele>32</ele>
					<time>0001-01-01T00:00:00Z</time>
				</trkpt>
				<trkpt lat="59.20928" lon="5.31745">
					<ele>36</ele>
					<time>0001-01-01T00:00:00Z</time>
				</trkpt>
				<trkpt lat="59.20935" lon="5.31750">
					<ele>36</ele>
					<time>0001-01-01T00:00:00Z</time>
				</trkpt>
				<trkpt lat="59.20986" lon="5.31808">
					<ele>36</ele>
					<time>0001-01-01T00:00:00Z</time>
				</trkpt>
				<trkpt lat="59.21149" lon="5.31850">
					<ele>33</ele>
					<time>0001-01-01T00:00:00Z</time>
				</trkpt>
				<trkpt lat="59.21203" lon="5.31895">
					<ele>32</ele>
					<time>0001-01-01T00:00:00Z</time>
				</trkpt>
				<trkpt lat="59.21350" lon="5.31964">
					<ele>25</ele>
					<time>0001-01-01T00:00:00Z</time>
				</trkpt>
				<trkpt lat="59.21445" lon="5.32018">
					<ele>27</ele>
					<time>0001-01-01T00:00:00Z</time>
				</trkpt>
				<trkpt lat="59.21464" lon="5.32021">
					<ele>27</ele>
					<time>0001-01-01T00:00:00Z</time>
				</trkpt>
				<trkpt lat="59.21488" lon="5.32017">
					<ele>26</ele>
					<time>0001-01-01T00:00:00Z</time>
				</trkpt>
				<trkpt lat="59.21558" lon="5.31996">
					<ele>25</ele>
					<time>0001-01-01T00:00:00Z</time>
				</trkpt>
				<trkpt lat="59.21588" lon="5.32063">
					<ele>25</ele>
					<time>0001-01-01T00:00:00Z</time>
				</trkpt>
				<trkpt lat="59.21652" lon="5.32099">
					<ele>24</ele>
					<time>0001-01-01T00:00:00Z</time>
				</trkpt>
				<trkpt lat="59.21800" lon="5.32006">
					<ele>23</ele>
					<time>0001-01-01T00:00:00Z</time>
				</trkpt>
				<trkpt lat="59.21954" lon="5.31984">
					<ele>26</ele>
					<time>0001-01-01T00:00:00Z</time>
				</trkpt>
				<trkpt lat="59.22061" lon="5.32085">
					<ele>29</ele>
					<time>0001-01-01T00:00:00Z</time>
				</trkpt>
				<trkpt lat="59.22181" lon="5.32105">
					<ele>29</ele>
					<time>0001-01-01T00:00:00Z</time>
				</trkpt>
				<trkpt lat="59.22310" lon="5.32152">
					<ele>27</ele>
					<time>0001-01-01T00:00:00Z</time>
				</trkpt>
				<trkpt lat="59.22431" lon="5.32232">
					<ele>30</ele>
					<time>0001-01-01T00:00:00Z</time>
				</trkpt>
				<trkpt lat="59.22568" lon="5.32237">
					<ele>31</ele>
					<time>0001-01-01T00:00:00Z</time>
				</trkpt>
				<trkpt lat="59.22748" lon="5.32209">
					<ele>30</ele>
					<time>0001-01-01T00:00:00Z</time>
				</trkpt>
				<trkpt lat="59.22887" lon="5.32184">
					<ele>32</ele>
					<time>0001-01-01T00:00:00Z</time>
				</trkpt>
				<trkpt lat="59.23014" lon="5.32163">
					<ele>34</ele>
					<time>0001-01-01T00:00:00Z</time>
				</trkpt>
				<trkpt lat="59.23146" lon="5.32135">
					<ele>33</ele>
					<time>0001-01-01T00:00:00Z</time>
				</trkpt>
				<trkpt lat="59.23259" lon="5.32118">
					<ele>33</ele>
					<time>0001-01-01T00:00:00Z</time>
				</trkpt>
				<trkpt lat="59.23302" lon="5.32148">
					<ele>34</ele>
					<time>0001-01-01T00:00:00Z</time>
				</trkpt>
				<trkpt lat="59.23324" lon="5.32181">
					<ele>35</ele>
					<time>0001-01-01T00:00:00Z</time>
				</trkpt>
				<trkpt lat="59.23380" lon="5.32276">
					<ele>35</ele>
					<time>0001-01-01T00:00:00Z</time>
				</trkpt>
				<trkpt lat="59.23486" lon="5.32276">
					<ele>37</ele>
					<time>0001-01-01T00:00:00Z</time>
				</trkpt>
				<trkpt lat="59.23659" lon="5.32247">
					<ele>40</ele>
					<time>0001-01-01T00:00:00Z</time>
				</trkpt>
				<trkpt lat="59.23783" lon="5.32203">
					<ele>37</ele>
					<time>0001-01-01T00:00:00Z</time>
				</trkpt>
				<trkpt lat="59.23964" lon="5.32128">
					<ele>33</ele>
					<time>0001-01-01T00:00:00Z</time>
				</trkpt>
				<trkpt lat="59.24088" lon="5.32199">
					<ele>32</ele>
					<time>0001-01-01T00:00:00Z</time>
				</trkpt>
				<trkpt lat="59.24214" lon="5.32277">
					<ele>34</ele>
					<time>0001-01-01T00:00:00Z</time>
				</trkpt>
				<trkpt lat="59.24356" lon="5.32263">
					<ele>32</ele>
					<time>0001-01-01T00:00:00Z</time>
				</trkpt>
				<trkpt lat="59.24460" lon="5.32244">
					<ele>34</ele>
					<time>0001-01-01T00:00:00Z</time>
				</trkpt>
				<trkpt lat="59.24587" lon="5.32226">
					<ele>29</ele>
					<time>0001-01-01T00:00:00Z</time>
				</trkpt>
				<trkpt lat="59.24596" lon="5.32227">
					<ele>29</ele>
					<time>0001-01-01T00:00:00Z</time>
				</trkpt>
				<trkpt lat="59.24786" lon="5.32326">
					<ele>28</ele>
					<time>0001-01-01T00:00:00Z</time>
				</trkpt>
				<trkpt lat="59.24941" lon="5.32412">
					<ele>29</ele>
					<time>0001-01-01T00:00:00Z</time>
				</trkpt>
				<trkpt lat="59.25017" lon="5.32450">
					<ele>32</ele>
					<time>0001-01-01T00:00:00Z</time>
				</trkpt>
				<trkpt lat="59.25124" lon="5.32447">
					<ele>29</ele>
					<time>0001-01-01T00:00:00Z</time>
				</trkpt>
				<trkpt lat="59.25309" lon="5.32330">
					<ele>25</ele>
					<time>0001-01-01T00:00:00Z</time>
				</trkpt>
				<trkpt lat="59.25424" lon="5.32307">
					<ele>27</ele>
					<time>0001-01-01T00:00:00Z</time>
				</trkpt>
				<trkpt lat="59.25630" lon="5.32292">
					<ele>23</ele>
					<time>0001-01-01T00:00:00Z</time>
				</trkpt>
				<trkpt lat="59.25806" lon="5.32280">
					<ele>27</ele>
					<time>0001-01-01T00:00:00Z</time>
				</trkpt>
				<trkpt lat="59.25938" lon="5.32271">
					<ele>34</ele>
					<time>0001-01-01T00:00:00Z</time>
				</trkpt>
				<trkpt lat="59.26057" lon="5.32273">
					<ele>36</ele>
					<time>0001-01-01T00:00:00Z</time>
				</trkpt>
				<trkpt lat="59.26186" lon="5.32287">
					<ele>29</ele>
					<time>0001-01-01T00:00:00Z</time>
				</trkpt>
				<trkpt lat="59.26445" lon="5.32317">
					<ele>25</ele>
					<time>0001-01-01T00:00:00Z</time>
				</trkpt>
				<trkpt lat="59.26660" lon="5.32343">
					<ele>27</ele>
					<time>0001-01-01T00:00:00Z</time>
				</trkpt>
				<trkpt lat="59.26803" lon="5.32377">
					<ele>25</ele>
					<time>0001-01-01T00:00:00Z</time>
				</trkpt>
				<trkpt lat="59.26971" lon="5.32406">
					<ele>20</ele>
					<time>0001-01-01T00:00:00Z</time>
				</trkpt>
				<trkpt lat="59.27067" lon="5.32419">
					<ele>28</ele>
					<time>0001-01-01T00:00:00Z</time>
				</trkpt>
				<trkpt lat="59.27189" lon="5.32407">
					<ele>25</ele>
					<time>0001-01-01T00:00:00Z</time>
				</trkpt>
				<trkpt lat="59.27364" lon="5.32313">
					<ele>23</ele>
					<time>0001-01-01T00:00:00Z</time>
				</trkpt>
				<trkpt lat="59.27510" lon="5.32185">
					<ele>25</ele>
					<time>0001-01-01T00:00:00Z</time>
				</trkpt>
				<trkpt lat="59.27672" lon="5.31944">
					<ele>30</ele>
					<time>0001-01-01T00:00:00Z</time>
				</trkpt>
				<trkpt lat="59.27732" lon="5.31778">
					<ele>30</ele>
					<time>0001-01-01T00:00:00Z</time>
				</trkpt>
				<trkpt lat="59.27839" lon="5.31373">
					<ele>29</ele>
					<time>0001-01-01T00:00:00Z</time>
				</trkpt>
				<trkpt lat="59.27929" lon="5.31036">
					<ele>28</ele>
					<time>0001-01-01T00:00:00Z</time>
				</trkpt>
				<trkpt lat="59.28006" lon="5.30747">
					<ele>29</ele>
					<time>0001-01-01T00:00:00Z</time>
				</trkpt>
				<trkpt lat="59.28011" lon="5.30715">
					<ele>28</ele>
					<time>0001-01-01T00:00:00Z</time>
				</trkpt>
				<trkpt lat="59.28002" lon="5.30352">
					<ele>21</ele>
					<time>0001-01-01T00:00:00Z</time>
				</trkpt>
				<trkpt lat="59.27999" lon="5.30130">
					<ele>26</ele>
					<time>0001-01-01T00:00:00Z</time>
				</trkpt>
				<trkpt lat="59.28052" lon="5.29926">
					<ele>31</ele>
					<time>0001-01-01T00:00:00Z</time>
				</trkpt>
				<trkpt lat="59.28085" lon="5.29761">
					<ele>28</ele>
					<time>0001-01-01T00:00:00Z</time>
				</trkpt>
				<trkpt lat="59.28119" lon="5.29708">
					<ele>28</ele>
					<time>0001-01-01T00:00:00Z</time>
				</trkpt>
				<trkpt lat="59.28197" lon="5.29658">
					<ele>24</ele>
					<time>0001-01-01T00:00:00Z</time>
				</trkpt>
				<trkpt lat="59.28198" lon="5.29658">
					<ele>23</ele>
					<time>0001-01-01T00:00:00Z</time>
				</trkpt>
				<trkpt lat="59.28201" lon="5.29714">
					<ele>18</ele>
					<time>0001-01-01T00:00:00Z</time>
				</trkpt>
				<trkpt lat="59.28203" lon="5.29788">
					<ele>16</ele>
					<time>0001-01-01T00:00:00Z</time>
				</trkpt>
				<trkpt lat="59.28245" lon="5.29880">
					<ele>18</ele>
					<time>0001-01-01T00:00:00Z</time>
				</trkpt>
				<trkpt lat="59.28337" lon="5.29961">
					<ele>20</ele>
					<time>0001-01-01T00:00:00Z</time>
				</trkpt>
				<trkpt lat="59.28395" lon="5.29965">
					<ele>19</ele>
					<time>0001-01-01T00:00:00Z</time>
				</trkpt>
				<trkpt lat="59.28448" lon="5.30051">
					<ele>19</ele>
					<time>0001-01-01T00:00:00Z</time>
				</trkpt>
				<trkpt lat="59.28465" lon="5.30249">
					<ele>20</ele>
					<time>0001-01-01T00:00:00Z</time>
				</trkpt>
				<trkpt lat="59.28490" lon="5.30290">
					<ele>21</ele>
					<time>0001-01-01T00:00:00Z</time>
				</trkpt>
				<trkpt lat="59.28603" lon="5.30285">
					<ele>18</ele>
					<time>0001-01-01T00:00:00Z</time>
				</trkpt>
				<trkpt lat="59.28706" lon="5.30249">
					<ele>21</ele>
					<time>0001-01-01T00:00:00Z</time>
				</trkpt>
				<trkpt lat="59.28728" lon="5.30217">
					<ele>22</ele>
					<time>0001-01-01T00:00:00Z</time>
				</trkpt>
				<trkpt lat="59.28780" lon="5.30129">
					<ele>20</ele>
					<time>0001-01-01T00:00:00Z</time>
				</trkpt>
				<trkpt lat="59.28854" lon="5.30181">
					<ele>22</ele>
					<time>0001-01-01T00:00:00Z</time>
				</trkpt>
				<trkpt lat="59.28982" lon="5.30237">
					<ele>24</ele>
					<time>0001-01-01T00:00:00Z</time>
				</trkpt>
				<trkpt lat="59.29142" lon="5.30272">
					<ele>16</ele>
					<time>0001-01-01T00:00:00Z</time>
				</trkpt>
				<trkpt lat="59.29180" lon="5.30196">
					<ele>16</ele>
					<time>0001-01-01T00:00:00Z</time>
				</trkpt>
				<trkpt lat="59.29178" lon="5.30061">
					<ele>18</ele>
					<time>0001-01-01T00:00:00Z</time>
				</trkpt>
				<trkpt lat="59.29196" lon="5.29986">
					<ele>18</ele>
					<time>0001-01-01T00:00:00Z</time>
				</trkpt>
				<trkpt lat="59.29205" lon="5.29964">
					<ele>18</ele>
					<time>0001-01-01T00:00:00Z</time>
				</trkpt>
				<trkpt lat="59.29216" lon="5.29898">
					<ele>19</ele>
					<time>0001-01-01T00:00:00Z</time>
				</trkpt>
				<trkpt lat="59.29236" lon="5.29738">
					<ele>20</ele>
					<time>0001-01-01T00:00:00Z</time>
				</trkpt>
				<trkpt lat="59.29282" lon="5.29685">
					<ele>20</ele>
					<time>0001-01-01T00:00:00Z</time>
				</trkpt>
				<trkpt lat="59.29289" lon="5.29688">
					<ele>20</ele>
					<time>0001-01-01T00:00:00Z</time>
				</trkpt>
				<trkpt lat="59.29330" lon="5.29695">
					<ele>22</ele>
					<time>0001-01-01T00:00:00Z</time>
				</trkpt>
				<trkpt lat="59.29341" lon="5.29692">
					<ele>22</ele>
					<time>0001-01-01T00:00:00Z</time>
				</trkpt>
				<trkpt lat="59.29366" lon="5.29662">
					<ele>23</ele>
					<time>0001-01-01T00:00:00Z</time>
				</trkpt>
				<trkpt lat="59.29372" lon="5.29647">
					<ele>23</ele>
					<time>0001-01-01T00:00:00Z</time>
				</trkpt>
				<trkpt lat="59.29379" lon="5.29440">
					<ele>24</ele>
					<time>0001-01-01T00:00:00Z</time>
				</trkpt>
				<trkpt lat="59.29407" lon="5.29248">
					<ele>27</ele>
					<time>0001-01-01T00:00:00Z</time>
				</trkpt>
				<trkpt lat="59.29433" lon="5.29224">
					<ele>27</ele>
					<time>0001-01-01T00:00:00Z</time>
				</trkpt>
				<trkpt lat="59.29615" lon="5.29220">
					<ele>32</ele>
					<time>0001-01-01T00:00:00Z</time>
				</trkpt>
				<trkpt lat="59.29853" lon="5.29215">
					<ele>28</ele>
					<time>0001-01-01T00:00:00Z</time>
				</trkpt>
				<trkpt lat="59.30063" lon="5.29167">
					<ele>26</ele>
					<time>0001-01-01T00:00:00Z</time>
				</trkpt>
				<trkpt lat="59.30249" lon="5.29005">
					<ele>27</ele>
					<time>0001-01-01T00:00:00Z</time>
				</trkpt>
				<trkpt lat="59.30478" lon="5.28781">
					<ele>28</ele>
					<time>0001-01-01T00:00:00Z</time>
				</trkpt>
				<trkpt lat="59.30653" lon="5.28677">
					<ele>20</ele>
					<time>0001-01-01T00:00:00Z</time>
				</trkpt>
				<trkpt lat="59.30820" lon="5.28690">
					<ele>20</ele>
					<time>0001-01-01T00:00:00Z</time>
				</trkpt>
				<trkpt lat="59.30967" lon="5.28768">
					<ele>21</ele>
					<time>0001-01-01T00:00:00Z</time>
				</trkpt>
				<trkpt lat="59.31093" lon="5.28836">
					<ele>24</ele>
					<time>0001-01-01T00:00:00Z</time>
				</trkpt>
				<trkpt lat="59.31157" lon="5.28874">
					<ele>25</ele>
					<time>0001-01-01T00:00:00Z</time>
				</trkpt>
				<trkpt lat="59.31165" lon="5.28887">
					<ele>25</ele>
					<time>0001-01-01T00:00:00Z</time>
				</trkpt>
				<trkpt lat="59.31245" lon="5.28934">
					<ele>25</ele>
					<time>0001-01-01T00:00:00Z</time>
				</trkpt>
				<trkpt lat="59.31255" lon="5.28943">
					<ele>25</ele>
					<time>0001-01-01T00:00:00Z</time>
				</trkpt>
				<trkpt lat="59.31315" lon="5.28946">
					<ele>28</ele>
					<time>0001-01-01T00:00:00Z</time>
				</trkpt>
				<trkpt lat="59.31394" lon="5.28982">
					<ele>29</ele>
					<time>0001-01-01T00:00:00Z</time>
				</trkpt>
				<trkpt lat="59.31417" lon="5.28983">
					<ele>27</ele>
					<time>0001-01-01T00:00:00Z</time>
				</trkpt>
				<trkpt lat="59.31446" lon="5.28954">
					<ele>25</ele>
					<time>0001-01-01T00:00:00Z</time>
				</trkpt>
				<trkpt lat="59.31504" lon="5.28965">
					<ele>27</ele>
					<time>0001-01-01T00:00:00Z</time>
				</trkpt>
				<trkpt lat="59.31515" lon="5.28982">
					<ele>27</ele>
					<time>0001-01-01T00:00:00Z</time>
				</trkpt>
				<trkpt lat="59.31549" lon="5.29007">
					<ele>26</ele>
					<time>0001-01-01T00:00:00Z</time>
				</trkpt>
				<trkpt lat="59.31691" lon="5.29022">
					<ele>32</ele>
					<time>0001-01-01T00:00:00Z</time>
				</trkpt>
				<trkpt lat="59.31802" lon="5.28991">
					<ele>31</ele>
					<time>0001-01-01T00:00:00Z</time>
				</trkpt>
				<trkpt lat="59.31940" lon="5.28887">
					<ele>29</ele>
					<time>0001-01-01T00:00:00Z</time>
				</trkpt>
				<trkpt lat="59.32097" lon="5.28833">
					<ele>35</ele>
					<time>0001-01-01T00:00:00Z</time>
				</trkpt>
				<trkpt lat="59.32225" lon="5.28822">
					<ele>35</ele>
					<time>0001-01-01T00:00:00Z</time>
				</trkpt>
				<trkpt lat="59.32279" lon="5.28823">
					<ele>34</ele>
					<time>0001-01-01T00:00:00Z</time>
				</trkpt>
				<trkpt lat="59.32339" lon="5.28800">
					<ele>33</ele>
					<time>0001-01-01T00:00:00Z</time>
				</trkpt>
				<trkpt lat="59.32465" lon="5.28702">
					<ele>30</ele>
					<time>0001-01-01T00:00:00Z</time>
				</trkpt>
				<trkpt lat="59.32654" lon="5.28524">
					<ele>29</ele>
					<time>0001-01-01T00:00:00Z</time>
				</trkpt>
				<trkpt lat="59.32794" lon="5.28392">
					<ele>30</ele>
					<time>0001-01-01T00:00:00Z</time>
				</trkpt>
				<trkpt lat="59.32955" lon="5.28243">
					<ele>30</ele>
					<time>0001-01-01T00:00:00Z</time>
				</trkpt>
				<trkpt lat="59.33115" lon="5.28093">
					<ele>33</ele>
					<time>0001-01-01T00:00:00Z</time>
				</trkpt>
				<trkpt lat="59.33138" lon="5.28080">
					<ele>32</ele>
					<time>0001-01-01T00:00:00Z</time>
				</trkpt>
				<trkpt lat="59.33236" lon="5.27969">
					<ele>31</ele>
					<time>0001-01-01T00:00:00Z</time>
				</trkpt>
				<trkpt lat="59.33356" lon="5.27865">
					<ele>25</ele>
					<time>0001-01-01T00:00:00Z</time>
				</trkpt>
				<trkpt lat="59.33422" lon="5.27796">
					<ele>26</ele>
					<time>0001-01-01T00:00:00Z</time>
				</trkpt>
				<trkpt lat="59.33442" lon="5.27784">
					<ele>26</ele>
					<time>0001-01-01T00:00:00Z</time>
				</trkpt>
				<trkpt lat="59.33518" lon="5.27684">
					<ele>22</ele>
					<time>0001-01-01T00:00:00Z</time>
				</trkpt>
				<trkpt lat="59.33587" lon="5.27666">
					<ele>21</ele>
					<time>0001-01-01T00:00:00Z</time>
				</trkpt>
				<trkpt lat="59.33867" lon="5.27658">
					<ele>27</ele>
					<time>0001-01-01T00:00:00Z</time>
				</trkpt>
				<trkpt lat="59.33997" lon="5.27648">
					<ele>28</ele>
					<time>0001-01-01T00:00:00Z</time>
				</trkpt>
				<trkpt lat="59.34207" lon="5.27552">
					<ele>23</ele>
					<time>0001-01-01T00:00:00Z</time>
				</trkpt>
				<trkpt lat="59.34233" lon="5.27552">
					<ele>21</ele>
					<time>0001-01-01T00:00:00Z</time>
				</trkpt>
				<trkpt lat="59.34267" lon="5.27532">
					<ele>21</ele>
					<time>0001-01-01T00:00:00Z</time>
				</trkpt>
				<trkpt lat="59.34686" lon="5.27476">
					<ele>18</ele>
					<time>0001-01-01T00:00:00Z</time>
				</trkpt>
				<trkpt lat="59.34694" lon="5.27474">
					<ele>18</ele>
					<time>0001-01-01T00:00:00Z</time>
				</trkpt>
				<trkpt lat="59.34726" lon="5.27474">
					<ele>17</ele>
					<time>0001-01-01T00:00:00Z</time>
				</trkpt>
				<trkpt lat="59.34864" lon="5.27489">
					<ele>25</ele>
					<time>0001-01-01T00:00:00Z</time>
				</trkpt>
				<trkpt lat="59.35043" lon="5.27622">
					<ele>24</ele>
					<time>0001-01-01T00:00:00Z</time>
				</trkpt>
				<trkpt lat="59.35206" lon="5.27706">
					<ele>25</ele>
					<time>0001-01-01T00:00:00Z</time>
				</trkpt>
				<trkpt lat="59.35433" lon="5.27723">
					<ele>24</ele>
					<time>0001-01-01T00:00:00Z</time>
				</trkpt>
				<trkpt lat="59.35456" lon="5.27732">
					<ele>25</ele>
					<time>0001-01-01T00:00:00Z</time>
				</trkpt>
				<trkpt lat="59.35486" lon="5.27717">
					<ele>26</ele>
					<time>0001-01-01T00:00:00Z</time>
				</trkpt>
				<trkpt lat="59.35500" lon="5.27704">
					<ele>25</ele>
					<time>0001-01-01T00:00:00Z</time>
				</trkpt>
				<trkpt lat="59.35642" lon="5.27683">
					<ele>24</ele>
					<time>0001-01-01T00:00:00Z</time>
				</trkpt>
				<trkpt lat="59.35872" lon="5.27672">
					<ele>18</ele>
					<time>0001-01-01T00:00:00Z</time>
				</trkpt>
				<trkpt lat="59.36091" lon="5.27765">
					<ele>16</ele>
					<time>0001-01-01T00:00:00Z</time>
				</trkpt>
				<trkpt lat="59.36319" lon="5.27893">
					<ele>17</ele>
					<time>0001-01-01T00:00:00Z</time>
				</trkpt>
				<trkpt lat="59.36543" lon="5.27972">
					<ele>18</ele>
					<time>0001-01-01T00:00:00Z</time>
				</trkpt>
				<trkpt lat="59.36684" lon="5.27917">
					<ele>16</ele>
					<time>0001-01-01T00:00:00Z</time>
				</trkpt>
				<trkpt lat="59.36804" lon="5.27960">
					<ele>14</ele>
					<time>0001-01-01T00:00:00Z</time>
				</trkpt>
				<trkpt lat="59.36896" lon="5.28042">
					<ele>18</ele>
					<time>0001-01-01T00:00:00Z</time>
				</trkpt>
				<trkpt lat="59.37052" lon="5.28155">
					<ele>22</ele>
					<time>0001-01-01T00:00:00Z</time>
				</trkpt>
				<trkpt lat="59.37191" lon="5.28196">
					<ele>16</ele>
					<time>0001-01-01T00:00:00Z</time>
				</trkpt>
				<trkpt lat="59.37310" lon="5.28263">
					<ele>15</ele>
					<time>0001-01-01T00:00:00Z</time>
				</trkpt>
				<trkpt lat="59.37353" lon="5.28321">
					<ele>15</ele>
					<time>0001-01-01T00:00:00Z</time>
				</trkpt>
				<trkpt lat="59.37361" lon="5.28338">
					<ele>16</ele>
					<time>0001-01-01T00:00:00Z</time>
				</trkpt>
				<trkpt lat="59.37382" lon="5.28416">
					<ele>15</ele>
					<time>0001-01-01T00:00:00Z</time>
				</trkpt>
				<trkpt lat="59.37382" lon="5.28613">
					<ele>15</ele>
					<time>0001-01-01T00:00:00Z</time>
				</trkpt>
				<trkpt lat="59.37395" lon="5.28603">
					<ele>16</ele>
					<time>0001-01-01T00:00:00Z</time>
				</trkpt>
				<trkpt lat="59.37394" lon="5.28584">
					<ele>16</ele>
					<time>0001-01-01T00:00:00Z</time>
				</trkpt>
				<trkpt lat="59.37419" lon="5.28507">
					<ele>19</ele>
					<time>0001-01-01T00:00:00Z</time>
				</trkpt>
				<trkpt lat="59.37445" lon="5.28552">
					<ele>20</ele>
					<time>0001-01-01T00:00:00Z</time>
				</trkpt>
				<trkpt lat="59.37492" lon="5.28824">
					<ele>26</ele>
					<time>0001-01-01T00:00:00Z</time>
				</trkpt>
				<trkpt lat="59.37513" lon="5.29058">
					<ele>36</ele>
					<time>0001-01-01T00:00:00Z</time>
				</trkpt>
				<trkpt lat="59.37533" lon="5.29357">
					<ele>43</ele>
					<time>0001-01-01T00:00:00Z</time>
				</trkpt>
				<trkpt lat="59.37549" lon="5.29598">
					<ele>43</ele>
					<time>0001-01-01T00:00:00Z</time>
				</trkpt>
				<trkpt lat="59.37564" lon="5.29799">
					<ele>38</ele>
					<time>0001-01-01T00:00:00Z</time>
				</trkpt>
				<trkpt lat="59.37604" lon="5.30133">
					<ele>26</ele>
					<time>0001-01-01T00:00:00Z</time>
				</trkpt>
				<trkpt lat="59.37695" lon="5.30331">
					<ele>20</ele>
					<time>0001-01-01T00:00:00Z</time>
				</trkpt>
				<trkpt lat="59.37815" lon="5.30427">
					<ele>22</ele>
					<time>0001-01-01T00:00:00Z</time>
				</trkpt>
				<trkpt lat="59.38017" lon="5.30533">
					<ele>25</ele>
					<time>0001-01-01T00:00:00Z</time>
				</trkpt>
				<trkpt lat="59.38046" lon="5.30558">
					<ele>25</ele>
					<time>0001-01-01T00:00:00Z</time>
				</trkpt>
				<trkpt lat="59.38078" lon="5.30563">
					<ele>25</ele>
					<time>0001-01-01T00:00:00Z</time>
				</trkpt>
				<trkpt lat="59.38248" lon="5.30547">
					<ele>26</ele>
					<time>0001-01-01T00:00:00Z</time>
				</trkpt>
				<trkpt lat="59.38434" lon="5.30459">
					<ele>26</ele>
					<time>0001-01-01T00:00:00Z</time>
				</trkpt>
				<trkpt lat="59.38460" lon="5.30457">
					<ele>26</ele>
					<time>0001-01-01T00:00:00Z</time>
				</trkpt>
				<trkpt lat="59.38499" lon="5.30423">
					<ele>25</ele>
					<time>0001-01-01T00:00:00Z</time>
				</trkpt>
				<trkpt lat="59.38764" lon="5.30272">
					<ele>26</ele>
					<time>0001-01-01T00:00:00Z</time>
				</trkpt>
				<trkpt lat="59.38966" lon="5.30093">
					<ele>27</ele>
					<time>0001-01-01T00:00:00Z</time>
				</trkpt>
				<trkpt lat="59.39186" lon="5.29891">
					<ele>28</ele>
					<time>0001-01-01T00:00:00Z</time>
				</trkpt>
				<trkpt lat="59.39373" lon="5.29748">
					<ele>30</ele>
					<time>0001-01-01T00:00:00Z</time>
				</trkpt>
				<trkpt lat="59.39583" lon="5.29628">
					<ele>28</ele>
					<time>0001-01-01T00:00:00Z</time>
				</trkpt>
				<trkpt lat="59.39712" lon="5.29549">
					<ele>28</ele>
					<time>0001-01-01T00:00:00Z</time>
				</trkpt>
				<trkpt lat="59.39720" lon="5.29547">
					<ele>28</ele>
					<time>0001-01-01T00:00:00Z</time>
				</trkpt>
				<trkpt lat="59.39743" lon="5.29533">
					<ele>28</ele>
					<time>0001-01-01T00:00:00Z</time>
				</trkpt>
				<trkpt lat="59.39926" lon="5.29378">
					<ele>27</ele>
					<time>0001-01-01T00:00:00Z</time>
				</trkpt>
				<trkpt lat="59.40043" lon="5.29288">
					<ele>26</ele>
					<time>0001-01-01T00:00:00Z</time>
				</trkpt>
				<trkpt lat="59.40168" lon="5.29188">
					<ele>24</ele>
					<time>0001-01-01T00:00:00Z</time>
				</trkpt>
				<trkpt lat="59.40337" lon="5.29027">
					<ele>20</ele>
					<time>0001-01-01T00:00:00Z</time>
				</trkpt>
				<trkpt lat="59.40366" lon="5.29004">
					<ele>20</ele>
					<time>0001-01-01T00:00:00Z</time>
				</trkpt>
				<trkpt lat="59.40395" lon="5.28965">
					<ele>20</ele>
					<time>0001-01-01T00:00:00Z</time>
				</trkpt>
				<trkpt lat="59.40494" lon="5.28829">
					<ele>19</ele>
					<time>0001-01-01T00:00:00Z</time>
				</trkpt>
				<trkpt lat="59.40533" lon="5.28772">
					<ele>19</ele>
					<time>0001-01-01T00:00:00Z</time>
				</trkpt>
				<trkpt lat="59.40551" lon="5.28725">
					<ele>19</ele>
					<time>0001-01-01T00:00:00Z</time>
				</trkpt>
				<trkpt lat="59.40688" lon="5.28448">
					<ele>23</ele>
					<time>0001-01-01T00:00:00Z</time>
				</trkpt>
				<trkpt lat="59.40798" lon="5.28275">
					<ele>24</ele>
					<time>0001-01-01T00:00:00Z</time>
				</trkpt>
				<trkpt lat="59.40954" lon="5.28080">
					<ele>29</ele>
					<time>0001-01-01T00:00:00Z</time>
				</trkpt>
				<trkpt lat="59.41053" lon="5.27957">
					<ele>31</ele>
					<time>0001-01-01T00:00:00Z</time>
				</trkpt>
				<trkpt lat="59.41161" lon="5.27831">
					<ele>28</ele>
					<time>0001-01-01T00:00:00Z</time>
				</trkpt>
				<trkpt lat="59.41352" lon="5.27708">
					<ele>24</ele>
					<time>0001-01-01T00:00:00Z</time>
				</trkpt>
				<trkpt lat="59.41369" lon="5.27698">
					<ele>25</ele>
					<time>0001-01-01T00:00:00Z</time>
				</trkpt>
				<trkpt lat="59.41465" lon="5.27562">
					<ele>23</ele>
					<time>0001-01-01T00:00:00Z</time>
				</trkpt>
				<trkpt lat="59.41712" lon="5.27196">
					<ele>25</ele>
					<time>0001-01-01T00:00:00Z</time>
				</trkpt>
				<trkpt lat="59.41729" lon="5.27170">
					<ele>25</ele>
					<time>0001-01-01T00:00:00Z</time>
				</trkpt>
				<trkpt lat="59.41754" lon="5.27134">
					<ele>25</ele>
					<time>0001-01-01T00:00:00Z</time>
				</trkpt>
				<trkpt lat="59.41900" lon="5.27006">
					<ele>27</ele>
					<time>0001-01-01T00:00:00Z</time>
				</trkpt>
				<trkpt lat="59.42043" lon="5.26870">
					<ele>28</ele>
					<time>0001-01-01T00:00:00Z</time>
				</trkpt>
				<trkpt lat="59.42245" lon="5.26694">
					<ele>26</ele>
					<time>0001-01-01T00:00:00Z</time>
				</trkpt>
				<trkpt lat="59.42472" lon="5.26523">
					<ele>26</ele>
					<time>0001-01-01T00:00:00Z</time>
				</trkpt>
				<trkpt lat="59.42638" lon="5.26518">
					<ele>26</ele>
					<time>0001-01-01T00:00:00Z</time>
				</trkpt>
				<trkpt lat="59.42653" lon="5.26514">
					<ele>25</ele>
					<time>0001-01-01T00:00:00Z</time>
				</trkpt>
				<trkpt lat="59.42676" lon="5.26514">
					<ele>25</ele>
					<time>0001-01-01T00:00:00Z</time>
				</trkpt>
				<trkpt lat="59.42702" lon="5.26487">
					<ele>24</ele>
					<time>0001-01-01T00:00:00Z</time>
				</trkpt>
				<trkpt lat="59.42890" lon="5.26368">
					<ele>18</ele>
					<time>0001-01-01T00:00:00Z</time>
				</trkpt>
				<trkpt lat="59.43094" lon="5.26301">
					<ele>17</ele>
					<time>0001-01-01T00:00:00Z</time>
				</trkpt>
				<trkpt lat="59.43223" lon="5.26302">
					<ele>22</ele>
					<time>0001-01-01T00:00:00Z</time>
				</trkpt>
				<trkpt lat="59.43336" lon="5.26309">
					<ele>28</ele>
					<time>0001-01-01T00:00:00Z</time>
				</trkpt>
				<trkpt lat="59.43479" lon="5.26343">
					<ele>24</ele>
					<time>0001-01-01T00:00:00Z</time>
				</trkpt>
				<trkpt lat="59.43528" lon="5.26390">
					<ele>21</ele>
					<time>0001-01-01T00:00:00Z</time>
				</trkpt>
				<trkpt lat="59.43739" lon="5.26620">
					<ele>18</ele>
					<time>0001-01-01T00:00:00Z</time>
				</trkpt>
				<trkpt lat="59.43812" lon="5.26757">
					<ele>14</ele>
					<time>0001-01-01T00:00:00Z</time>
				</trkpt>
				<trkpt lat="59.43868" lon="5.26754">
					<ele>9</ele>
					<time>0001-01-01T00:00:00Z</time>
				</trkpt>
				<trkpt lat="59.43954" lon="5.26655">
					<ele>4</ele>
					<time>0001-01-01T00:00:00Z</time>
				</trkpt>
				<trkpt lat="59.43997" lon="5.26641">
					<ele>6</ele>
					<time>0001-01-01T00:00:00Z</time>
				</trkpt>
				<trkpt lat="59.44095" lon="5.26655">
					<ele>11</ele>
					<time>0001-01-01T00:00:00Z</time>
				</trkpt>
				<trkpt lat="59.44192" lon="5.26691">
					<ele>16</ele>
					<time>0001-01-01T00:00:00Z</time>
				</trkpt>
				<trkpt lat="59.44309" lon="5.26708">
					<ele>21</ele>
					<time>0001-01-01T00:00:00Z</time>
				</trkpt>
				<trkpt lat="59.44411" lon="5.26640">
					<ele>17</ele>
					<time>0001-01-01T00:00:00Z</time>
				</trkpt>
				<trkpt lat="59.44521" lon="5.26547">
					<ele>16</ele>
					<time>0001-01-01T00:00:00Z</time>
				</trkpt>
				<trkpt lat="59.44720" lon="5.26480">
					<ele>15</ele>
					<time>0001-01-01T00:00:00Z</time>
				</trkpt>
				<trkpt lat="59.44727" lon="5.26474">
					<ele>15</ele>
					<time>0001-01-01T00:00:00Z</time>
				</trkpt>
				<trkpt lat="59.44858" lon="5.26404">
					<ele>14</ele>
					<time>0001-01-01T00:00:00Z</time>
				</trkpt>
				<trkpt lat="59.44998" lon="5.26397">
					<ele>18</ele>
					<time>0001-01-01T00:00:00Z</time>
				</trkpt>
				<trkpt lat="59.45113" lon="5.26453">
					<ele>23</ele>
					<time>0001-01-01T00:00:00Z</time>
				</trkpt>
				<trkpt lat="59.45172" lon="5.26531">
					<ele>27</ele>
					<time>0001-01-01T00:00:00Z</time>
				</trkpt>
				<trkpt lat="59.45232" lon="5.26516">
					<ele>32</ele>
					<time>0001-01-01T00:00:00Z</time>
				</trkpt>
				<trkpt lat="59.45293" lon="5.26495">
					<ele>33</ele>
					<time>0001-01-01T00:00:00Z</time>
				</trkpt>
				<trkpt lat="59.45418" lon="5.26573">
					<ele>31</ele>
					<time>0001-01-01T00:00:00Z</time>
				</trkpt>
				<trkpt lat="59.45554" lon="5.26668">
					<ele>28</ele>
					<time>0001-01-01T00:00:00Z</time>
				</trkpt>
				<trkpt lat="59.45602" lon="5.26662">
					<ele>27</ele>
					<time>0001-01-01T00:00:00Z</time>
				</trkpt>
				<trkpt lat="59.45713" lon="5.26762">
					<ele>22</ele>
					<time>0001-01-01T00:00:00Z</time>
				</trkpt>
				<trkpt lat="59.45822" lon="5.26958">
					<ele>20</ele>
					<time>0001-01-01T00:00:00Z</time>
				</trkpt>
				<trkpt lat="59.45878" lon="5.26999">
					<ele>20</ele>
					<time>0001-01-01T00:00:00Z</time>
				</trkpt>
				<trkpt lat="59.45920" lon="5.27010">
					<ele>20</ele>
					<time>0001-01-01T00:00:00Z</time>
				</trkpt>
				<trkpt lat="59.46005" lon="5.27138">
					<ele>22</ele>
					<time>0001-01-01T00:00:00Z</time>
				</trkpt>
				<trkpt lat="59.46151" lon="5.27407">
					<ele>24</ele>
					<time>0001-01-01T00:00:00Z</time>
				</trkpt>
				<trkpt lat="59.46272" lon="5.27607">
					<ele>25</ele>
					<time>0001-01-01T00:00:00Z</time>
				</trkpt>
				<trkpt lat="59.46354" lon="5.27851">
					<ele>24</ele>
					<time>0001-01-01T00:00:00Z</time>
				</trkpt>
				<trkpt lat="59.46447" lon="5.28024">
					<ele>23</ele>
					<time>0001-01-01T00:00:00Z</time>
				</trkpt>
				<trkpt lat="59.46579" lon="5.28202">
					<ele>23</ele>
					<time>0001-01-01T00:00:00Z</time>
				</trkpt>
				<trkpt lat="59.46732" lon="5.28440">
					<ele>23</ele>
					<time>0001-01-01T00:00:00Z</time>
				</trkpt>
				<trkpt lat="59.46811" lon="5.28571">
					<ele>22</ele>
					<time>0001-01-01T00:00:00Z</time>
				</trkpt>
				<trkpt lat="59.46870" lon="5.28854">
					<ele>21</ele>
					<time>0001-01-01T00:00:00Z</time>
				</trkpt>
				<trkpt lat="59.46885" lon="5.28931">
					<ele>21</ele>
					<time>0001-01-01T00:00:00Z</time>
				</trkpt>
				<trkpt lat="59.46921" lon="5.28976">
					<ele>19</ele>
					<time>0001-01-01T00:00:00Z</time>
				</trkpt>
				<trkpt lat="59.47099" lon="5.29084">
					<ele>13</ele>
					<time>0001-01-01T00:00:00Z</time>
				</trkpt>
				<trkpt lat="59.47239" lon="5.29218">
					<ele>13</ele>
					<time>0001-01-01T00:00:00Z</time>
				</trkpt>
				<trkpt lat="59.47246" lon="5.29226">
					<ele>12</ele>
					<time>0001-01-01T00:00:00Z</time>
				</trkpt>
				<trkpt lat="59.47275" lon="5.29279">
					<ele>13</ele>
					<time>0001-01-01T00:00:00Z</time>
				</trkpt>
				<trkpt lat="59.47322" lon="5.29480">
					<ele>15</ele>
					<time>0001-01-01T00:00:00Z</time>
				</trkpt>
				<trkpt lat="59.47343" lon="5.29705">
					<ele>19</ele>
					<time>0001-01-01T00:00:00Z</time>
				</trkpt>
				<trkpt lat="59.47367" lon="5.29974">
					<ele>24</ele>
					<time>0001-01-01T00:00:00Z</time>
				</trkpt>
				<trkpt lat="59.47399" lon="5.30197">
					<ele>23</ele>
					<time>0001-01-01T00:00:00Z</time>
				</trkpt>
				<trkpt lat="59.47454" lon="5.30456">
					<ele>22</ele>
					<time>0001-01-01T00:00:00Z</time>
				</trkpt>
				<trkpt lat="59.47509" lon="5.30503">
					<ele>21</ele>
					<time>0001-01-01T00:00:00Z</time>
				</trkpt>
				<trkpt lat="59.47608" lon="5.30512">
					<ele>21</ele>
					<time>0001-01-01T00:00:00Z</time>
				</trkpt>
				<trkpt lat="59.47679" lon="5.30487">
					<ele>23</ele>
					<time>0001-01-01T00:00:00Z</time>
				</trkpt>
				<trkpt lat="59.47724" lon="5.30498">
					<ele>25</ele>
					<time>0001-01-01T00:00:00Z</time>
				</trkpt>
				<trkpt lat="59.47791" lon="5.30569">
					<ele>29</ele>
					<time>0001-01-01T00:00:00Z</time>
				</trkpt>
				<trkpt lat="59.47815" lon="5.30580">
					<ele>29</ele>
					<time>0001-01-01T00:00:00Z</time>
				</trkpt>
				<trkpt lat="59.47942" lon="5.30561">
					<ele>22</ele>
					<time>0001-01-01T00:00:00Z</time>
				</trkpt>
				<trkpt lat="59.48117" lon="5.30507">
					<ele>22</ele>
					<time>0001-01-01T00:00:00Z</time>
				</trkpt>
				<trkpt lat="59.48220" lon="5.30585">
					<ele>26</ele>
					<time>0001-01-01T00:00:00Z</time>
				</trkpt>
				<trkpt lat="59.48338" lon="5.30714">
					<ele>19</ele>
					<time>0001-01-01T00:00:00Z</time>
				</trkpt>
				<trkpt lat="59.48489" lon="5.30921">
					<ele>18</ele>
					<time>0001-01-01T00:00:00Z</time>
				</trkpt>
				<trkpt lat="59.48607" lon="5.31109">
					<ele>19</ele>
					<time>0001-01-01T00:00:00Z</time>
				</trkpt>
				<trkpt lat="59.48688" lon="5.31280">
					<ele>22</ele>
					<time>0001-01-01T00:00:00Z</time>
				</trkpt>
				<trkpt lat="59.48775" lon="5.31524">
					<ele>27</ele>
					<time>0001-01-01T00:00:00Z</time>
				</trkpt>
				<trkpt lat="59.48889" lon="5.31782">
					<ele>29</ele>
					<time>0001-01-01T00:00:00Z</time>
				</trkpt>
				<trkpt lat="59.49016" lon="5.32037">
					<ele>34</ele>
					<time>0001-01-01T00:00:00Z</time>
				</trkpt>
				<trkpt lat="59.49136" lon="5.32250">
					<ele>38</ele>
					<time>0001-01-01T00:00:00Z</time>
				</trkpt>
				<trkpt lat="59.49142" lon="5.32261">
					<ele>38</ele>
					<time>0001-01-01T00:00:00Z</time>
				</trkpt>
				<trkpt lat="59.49148" lon="5.32214">
					<ele>38</ele>
					<time>0001-01-01T00:00:00Z</time>
				</trkpt>
				<trkpt lat="59.49152" lon="5.32205">
					<ele>38</ele>
					<time>0001-01-01T00:00:00Z</time>
				</trkpt>
				<trkpt lat="59.49233" lon="5.31993">
					<ele>43</ele>
					<time>0001-01-01T00:00:00Z</time>
				</trkpt>
				<trkpt lat="59.49295" lon="5.31836">
					<ele>42</ele>
					<time>0001-01-01T00:00:00Z</time>
				</trkpt>
				<trkpt lat="59.49328" lon="5.31811">
					<ele>40</ele>
					<time>0001-01-01T00:00:00Z</time>
				</trkpt>
				<trkpt lat="59.49364" lon="5.31796">
					<ele>40</ele>
					<time>0001-01-01T00:00:00Z</time>
				</trkpt>
				<trkpt lat="59.49405" lon="5.31747">
					<ele>37</ele>
					<time>0001-01-01T00:00:00Z</time>
				</trkpt>
				<trkpt lat="59.49547" lon="5.31468">
					<ele>28</ele>
					<time>0001-01-01T00:00:00Z</time>
				</trkpt>
				<trkpt lat="59.49673" lon="5.31211">
					<ele>16</ele>
					<time>0001-01-01T00:00:00Z</time>
				</trkpt>
				<trkpt lat="59.49694" lon="5.31184">
					<ele>14</ele>
					<time>0001-01-01T00:00:00Z</time>
				</trkpt>
				<trkpt lat="59.49772" lon="5.31185">
					<ele>8</ele>
					<time>0001-01-01T00:00:00Z</time>
				</trkpt>
				<trkpt lat="59.49850" lon="5.31156">
					<ele>4</ele>
					<time>0001-01-01T00:00:00Z</time>
				</trkpt>
				<trkpt lat="59.49906" lon="5.31092">
					<ele>3</ele>
					<time>0001-01-01T00:00:00Z</time>
				</trkpt>
				<trkpt lat="59.49962" lon="5.31096">
					<ele>2</ele>
					<time>0001-01-01T00:00:00Z</time>
				</trkpt>
				<trkpt lat="59.50014" lon="5.31163">
					<ele>1</ele>
					<time>0001-01-01T00:00:00Z</time>
				</trkpt>
				<trkpt lat="59.50035" lon="5.31218">
					<ele>2</ele>
					<time>0001-01-01T00:00:00Z</time>
				</trkpt>
				<trkpt lat="59.50078" lon="5.31225">
					<ele>2</ele>
					<time>0001-01-01T00:00:00Z</time>
				</trkpt>
				<trkpt lat="59.50091" lon="5.31201">
					<ele>3</ele>
					<time>0001-01-01T00:00:00Z</time>
				</trkpt>
				<trkpt lat="59.50098" lon="5.31138">
					<ele>3</ele>
					<time>0001-01-01T00:00:00Z</time>
				</trkpt>
				<trkpt lat="59.50071" lon="5.30863">
					<ele>3</ele>
					<time>0001-01-01T00:00:00Z</time>
				</trkpt>
				<trkpt lat="59.50018" lon="5.30496">
					<ele>5</ele>
					<time>0001-01-01T00:00:00Z</time>
				</trkpt>
				<trkpt lat="59.49964" lon="5.30375">
					<ele>10</ele>
					<time>0001-01-01T00:00:00Z</time>
				</trkpt>
				<trkpt lat="59.49956" lon="5.30361">
					<ele>10</ele>
					<time>0001-01-01T00:00:00Z</time>
				</trkpt>
				<trkpt lat="59.49928" lon="5.30282">
					<ele>12</ele>
					<time>0001-01-01T00:00:00Z</time>
				</trkpt>
				<trkpt lat="59.49861" lon="5.30169">
					<ele>15</ele>
					<time>0001-01-01T00:00:00Z</time>
				</trkpt>
				<trkpt lat="59.49829" lon="5.30069">
					<ele>21</ele>
					<time>0001-01-01T00:00:00Z</time>
				</trkpt>
				<trkpt lat="59.49785" lon="5.29827">
					<ele>22</ele>
					<time>0001-01-01T00:00:00Z</time>
				</trkpt>
				<trkpt lat="59.49738" lon="5.29652">
					<ele>21</ele>
					<time>0001-01-01T00:00:00Z</time>
				</trkpt>
				<trkpt lat="59.49725" lon="5.29601">
					<ele>20</ele>
					<time>0001-01-01T00:00:00Z</time>
				</trkpt>
				<trkpt lat="59.49632" lon="5.29343">
					<ele>16</ele>
					<time>0001-01-01T00:00:00Z</time>
				</trkpt>
				<trkpt lat="59.49639" lon="5.29263">
					<ele>18</ele>
					<time>0001-01-01T00:00:00Z</time>
				</trkpt>
				<trkpt lat="59.49649" lon="5.29247">
					<ele>19</ele>
					<time>0001-01-01T00:00:00Z</time>
				</trkpt>
				<trkpt lat="59.49712" lon="5.29112">
					<ele>24</ele>
					<time>0001-01-01T00:00:00Z</time>
				</trkpt>
				<trkpt lat="59.49736" lon="5.29038">
					<ele>25</ele>
					<time>0001-01-01T00:00:00Z</time>
				</trkpt>
				<trkpt lat="59.49777" lon="5.28795">
					<ele>25</ele>
					<time>0001-01-01T00:00:00Z</time>
				</trkpt>
				<trkpt lat="59.49860" lon="5.28620">
					<ele>23</ele>
					<time>0001-01-01T00:00:00Z</time>
				</trkpt>
				<trkpt lat="59.49918" lon="5.28523">
					<ele>22</ele>
					<time>0001-01-01T00:00:00Z</time>
				</trkpt>
				<trkpt lat="59.49958" lon="5.28500">
					<ele>22</ele>
					<time>0001-01-01T00:00:00Z</time>
				</trkpt>
				<trkpt lat="59.50090" lon="5.28455">
					<ele>20</ele>
					<time>0001-01-01T00:00:00Z</time>
				</trkpt>
				<trkpt lat="59.50210" lon="5.28390">
					<ele>25</ele>
					<time>0001-01-01T00:00:00Z</time>
				</trkpt>
				<trkpt lat="59.50367" lon="5.28289">
					<ele>22</ele>
					<time>0001-01-01T00:00:00Z</time>
				</trkpt>
				<trkpt lat="59.50574" lon="5.28159">
					<ele>23</ele>
					<time>0001-01-01T00:00:00Z</time>
				</trkpt>
				<trkpt lat="59.50611" lon="5.28163">
					<ele>23</ele>
					<time>0001-01-01T00:00:00Z</time>
				</trkpt>
				<trkpt lat="59.50691" lon="5.28209">
					<ele>25</ele>
					<time>0001-01-01T00:00:00Z</time>
				</trkpt>
				<trkpt lat="59.50772" lon="5.28391">
					<ele>27</ele>
					<time>0001-01-01T00:00:00Z</time>
				</trkpt>
				<trkpt lat="59.50787" lon="5.28410">
					<ele>28</ele>
					<time>0001-01-01T00:00:00Z</time>
				</trkpt>
				<trkpt lat="59.50833" lon="5.28435">
					<ele>28</ele>
					<time>0001-01-01T00:00:00Z</time>
				</trkpt>
				<trkpt lat="59.50877" lon="5.28414">
					<ele>29</ele>
					<time>0001-01-01T00:00:00Z</time>
				</trkpt>
				<trkpt lat="59.50983" lon="5.28260">
					<ele>29</ele>
					<time>0001-01-01T00:00:00Z</time>
				</trkpt>
				<trkpt lat="59.50989" lon="5.28252">
					<ele>29</ele>
					<time>0001-01-01T00:00:00Z</time>
				</trkpt>
				<trkpt lat="59.51054" lon="5.28229">
					<ele>31</ele>
					<time>0001-01-01T00:00:00Z</time>
				</trkpt>
				<trkpt lat="59.51164" lon="5.28308">
					<ele>31</ele>
					<time>0001-01-01T00:00:00Z</time>
				</trkpt>
				<trkpt lat="59.51288" lon="5.28261">
					<ele>34</ele>
					<time>0001-01-01T00:00:00Z</time>
				</trkpt>
				<trkpt lat="59.51321" lon="5.28250">
					<ele>33</ele>
					<time>0001-01-01T00:00:00Z</time>
				</trkpt>
				<trkpt lat="59.51368" lon="5.28265">
					<ele>31</ele>
					<time>0001-01-01T00:00:00Z</time>
				</trkpt>
				<trkpt lat="59.51451" lon="5.28372">
					<ele>29</ele>
					<time>0001-01-01T00:00:00Z</time>
				</trkpt>
				<trkpt lat="59.51496" lon="5.28398">
					<ele>29</ele>
					<time>0001-01-01T00:00:00Z</time>
				</trkpt>
				<trkpt lat="59.51640" lon="5.28327">
					<ele>31</ele>
					<time>0001-01-01T00:00:00Z</time>
				</trkpt>
				<trkpt lat="59.51680" lon="5.28332">
					<ele>31</ele>
					<time>0001-01-01T00:00:00Z</time>
				</trkpt>
				<trkpt lat="59.51807" lon="5.28378">
					<ele>29</ele>
					<time>0001-01-01T00:00:00Z</time>
				</trkpt>
				<trkpt lat="59.51857" lon="5.28434">
					<ele>27</ele>
					<time>0001-01-01T00:00:00Z</time>
				</trkpt>
				<trkpt lat="59.51972" lon="5.28496">
					<ele>24</ele>
					<time>0001-01-01T00:00:00Z</time>
				</trkpt>
				<trkpt lat="59.51981" lon="5.28499">
					<ele>24</ele>
					<time>0001-01-01T00:00:00Z</time>
				</trkpt>
				<trkpt lat="59.52042" lon="5.28480">
					<ele>24</ele>
					<time>0001-01-01T00:00:00Z</time>
				</trkpt>
				<trkpt lat="59.52213" lon="5.28277">
					<ele>22</ele>
					<time>0001-01-01T00:00:00Z</time>
				</trkpt>
				<trkpt lat="59.52398" lon="5.28116">
					<ele>20</ele>
					<time>0001-01-01T00:00:00Z</time>
				</trkpt>
				<trkpt lat="59.52577" lon="5.28061">
					<ele>17</ele>
					<time>0001-01-01T00:00:00Z</time>
				</trkpt>
				<trkpt lat="59.52682" lon="5.28021">
					<ele>15</ele>
					<time>0001-01-01T00:00:00Z</time>
				</trkpt>
				<trkpt lat="59.52737" lon="5.27937">
					<ele>10</ele>
					<time>0001-01-01T00:00:00Z</time>
				</trkpt>
				<trkpt lat="59.52757" lon="5.27881">
					<ele>9</ele>
					<time>0001-01-01T00:00:00Z</time>
				</trkpt>
				<trkpt lat="59.52809" lon="5.27866">
					<ele>9</ele>
					<time>0001-01-01T00:00:00Z</time>
				</trkpt>
				<trkpt lat="59.52919" lon="5.27906">
					<ele>13</ele>
					<time>0001-01-01T00:00:00Z</time>
				</trkpt>
				<trkpt lat="59.53032" lon="5.27959">
					<ele>16</ele>
					<time>0001-01-01T00:00:00Z</time>
				</trkpt>
				<trkpt lat="59.53078" lon="5.27978">
					<ele>15</ele>
					<time>0001-01-01T00:00:00Z</time>
				</trkpt>
				<trkpt lat="59.53227" lon="5.27967">
					<ele>15</ele>
					<time>0001-01-01T00:00:00Z</time>
				</trkpt>
				<trkpt lat="59.53401" lon="5.27991">
					<ele>15</ele>
					<time>0001-01-01T00:00:00Z</time>
				</trkpt>
				<trkpt lat="59.53408" lon="5.27992">
					<ele>15</ele>
					<time>0001-01-01T00:00:00Z</time>
				</trkpt>
				<trkpt lat="59.53442" lon="5.27986">
					<ele>15</ele>
					<time>0001-01-01T00:00:00Z</time>
				</trkpt>
				<trkpt lat="59.53456" lon="5.27977">
					<ele>15</ele>
					<time>0001-01-01T00:00:00Z</time>
				</trkpt>
				<trkpt lat="59.53488" lon="5.27949">
					<ele>15</ele>
					<time>0001-01-01T00:00:00Z</time>
				</trkpt>
				<trkpt lat="59.53579" lon="5.28004">
					<ele>18</ele>
					<time>0001-01-01T00:00:00Z</time>
				</trkpt>
				<trkpt lat="59.53606" lon="5.28049">
					<ele>19</ele>
					<time>0001-01-01T00:00:00Z</time>
				</trkpt>
				<trkpt lat="59.53620" lon="5.28081">
					<ele>19</ele>
					<time>0001-01-01T00:00:00Z</time>
				</trkpt>
				<trkpt lat="59.53647" lon="5.28103">
					<ele>19</ele>
					<time>0001-01-01T00:00:00Z</time>
				</trkpt>
				<trkpt lat="59.53728" lon="5.28126">
					<ele>19</ele>
					<time>0001-01-01T00:00:00Z</time>
				</trkpt>
				<trkpt lat="59.53764" lon="5.28103">
					<ele>19</ele>
					<time>0001-01-01T00:00:00Z</time>
				</trkpt>
				<trkpt lat="59.53825" lon="5.28023">
					<ele>18</ele>
					<time>0001-01-01T00:00:00Z</time>
				</trkpt>
				<trkpt lat="59.53848" lon="5.28005">
					<ele>18</ele>
					<time>0001-01-01T00:00:00Z</time>
				</trkpt>
				<trkpt lat="59.53945" lon="5.27989">
					<ele>17</ele>
					<time>0001-01-01T00:00:00Z</time>
				</trkpt>
				<trkpt lat="59.54138" lon="5.28062">
					<ele>15</ele>
					<time>0001-01-01T00:00:00Z</time>
				</trkpt>
				<trkpt lat="59.54185" lon="5.28078">
					<ele>13</ele>
					<time>0001-01-01T00:00:00Z</time>
				</trkpt>
				<trkpt lat="59.54301" lon="5.28051">
					<ele>10</ele>
					<time>0001-01-01T00:00:00Z</time>
				</trkpt>
				<trkpt lat="59.54484" lon="5.28071">
					<ele>7</ele>
					<time>0001-01-01T00:00:00Z</time>
				</trkpt>
				<trkpt lat="59.54569" lon="5.28044">
					<ele>6</ele>
					<time>0001-01-01T00:00:00Z</time>
				</trkpt>
				<trkpt lat="59.54607" lon="5.28009">
					<ele>6</ele>
					<time>0001-01-01T00:00:00Z</time>
				</trkpt>
				<trkpt lat="59.54702" lon="5.27839">
					<ele>4</ele>
					<time>0001-01-01T00:00:00Z</time>
				</trkpt>
				<trkpt lat="59.54744" lon="5.27828">
					<ele>4</ele>
					<time>0001-01-01T00:00:00Z</time>
				</trkpt>
				<trkpt lat="59.54786" lon="5.27775">
					<ele>3</ele>
					<time>0001-01-01T00:00:00Z</time>
				</trkpt>
				<trkpt lat="59.54824" lon="5.27683">
					<ele>3</ele>
					<time>0001-01-01T00:00:00Z</time>
				</trkpt>
				<trkpt lat="59.54880" lon="5.27653">
					<ele>5</ele>
					<time>0001-01-01T00:00:00Z</time>
				</trkpt>
				<trkpt lat="59.54933" lon="5.27706">
					<ele>8</ele>
					<time>0001-01-01T00:00:00Z</time>
				</trkpt>
				<trkpt lat="59.54954" lon="5.27705">
					<ele>9</ele>
					<time>0001-01-01T00:00:00Z</time>
				</trkpt>
				<trkpt lat="59.54970" lon="5.27700">
					<ele>10</ele>
					<time>0001-01-01T00:00:00Z</time>
				</trkpt>
				<trkpt lat="59.55008" lon="5.27665">
					<ele>11</ele>
					<time>0001-01-01T00:00:00Z</time>
				</trkpt>
				<trkpt lat="59.55040" lon="5.27672">
					<ele>11</ele>
					<time>0001-01-01T00:00:00Z</time>
				</trkpt>
				<trkpt lat="59.55111" lon="5.27713">
					<ele>11</ele>
					<time>0001-01-01T00:00:00Z</time>
				</trkpt>
				<trkpt lat="59.55139" lon="5.27744">
					<ele>12</ele>
					<time>0001-01-01T00:00:00Z</time>
				</trkpt>
				<trkpt lat="59.55170" lon="5.27757">
					<ele>12</ele>
					<time>0001-01-01T00:00:00Z</time>
				</trkpt>
				<trkpt lat="59.55184" lon="5.27756">
					<ele>12</ele>
					<time>0001-01-01T00:00:00Z</time>
				</trkpt>
				<trkpt lat="59.55313" lon="5.27689">
					<ele>9</ele>
					<time>0001-01-01T00:00:00Z</time>
				</trkpt>
				<trkpt lat="59.55344" lon="5.27699">
					<ele>9</ele>
					<time>0001-01-01T00:00:00Z</time>
				</trkpt>
				<trkpt lat="59.55471" lon="5.27813">
					<ele>7</ele>
					<time>0001-01-01T00:00:00Z</time>
				</trkpt>
				<trkpt lat="59.55636" lon="5.28044">
					<ele>4</ele>
					<time>0001-01-01T00:00:00Z</time>
				</trkpt>
				<trkpt lat="59.55698" lon="5.28132">
					<ele>4</ele>
					<time>0001-01-01T00:00:00Z</time>
				</trkpt>
				<trkpt lat="59.55712" lon="5.28156">
					<ele>4</ele>
					<time>0001-01-01T00:00:00Z</time>
				</trkpt>
				<trkpt lat="59.55767" lon="5.28358">
					<ele>4</ele>
					<time>0001-01-01T00:00:00Z</time>
				</trkpt>
				<trkpt lat="59.55778" lon="5.28380">
					<ele>3</ele>
					<time>0001-01-01T00:00:00Z</time>
				</trkpt>
				<trkpt lat="59.55797" lon="5.28410">
					<ele>3</ele>
					<time>0001-01-01T00:00:00Z</time>
				</trkpt>
				<trkpt lat="59.55826" lon="5.28430">
					<ele>3</ele>
					<time>0001-01-01T00:00:00Z</time>
				</trkpt>
				<trkpt lat="59.55875" lon="5.28435">
					<ele>4</ele>
					<time>0001-01-01T00:00:00Z</time>
				</trkpt>
				<trkpt lat="59.55902" lon="5.28456">
					<ele>6</ele>
					<time>0001-01-01T00:00:00Z</time>
				</trkpt>
				<trkpt lat="59.55952" lon="5.28463">
					<ele>8</ele>
					<time>0001-01-01T00:00:00Z</time>
				</trkpt>
				<trkpt lat="59.55965" lon="5.28494">
					<ele>9</ele>
					<time>0001-01-01T00:00:00Z</time>
				</trkpt>
				<trkpt lat="59.55992" lon="5.28582">
					<ele>12</ele>
					<time>0001-01-01T00:00:00Z</time>
				</trkpt>
				<trkpt lat="59.56030" lon="5.28628">
					<ele>14</ele>
					<time>0001-01-01T00:00:00Z</time>
				</trkpt>
				<trkpt lat="59.56156" lon="5.28642">
					<ele>11</ele>
					<time>0001-01-01T00:00:00Z</time>
				</trkpt>
				<trkpt lat="59.56226" lon="5.28657">
					<ele>11</ele>
					<time>0001-01-01T00:00:00Z</time>
				</trkpt>
				<trkpt lat="59.56264" lon="5.28673">
					<ele>11</ele>
					<time>0001-01-01T00:00:00Z</time>
				</trkpt>
				<trkpt lat="59.56385" lon="5.28783">
					<ele>9</ele>
					<time>0001-01-01T00:00:00Z</time>
				</trkpt>
				<trkpt lat="59.56473" lon="5.28849">
					<ele>15</ele>
					<time>0001-01-01T00:00:00Z</time>
				</trkpt>
				<trkpt lat="59.56565" lon="5.28897">
					<ele>16</ele>
					<time>0001-01-01T00:00:00Z</time>
				</trkpt>
				<trkpt lat="59.56747" lon="5.29022">
					<ele>6</ele>
					<time>0001-01-01T00:00:00Z</time>
				</trkpt>
				<trkpt lat="59.56864" lon="5.29101">
					<ele>12</ele>
					<time>0001-01-01T00:00:00Z</time>
				</trkpt>
				<trkpt lat="59.57002" lon="5.29188">
					<ele>14</ele>
					<time>0001-01-01T00:00:00Z</time>
				</trkpt>
				<trkpt lat="59.57152" lon="5.29284">
					<ele>17</ele>
					<time>0001-01-01T00:00:00Z</time>
				</trkpt>
				<trkpt lat="59.57257" lon="5.29353">
					<ele>24</ele>
					<time>0001-01-01T00:00:00Z</time>
				</trkpt>
				<trkpt lat="59.57359" lon="5.29415">
					<ele>29</ele>
					<time>0001-01-01T00:00:00Z</time>
				</trkpt>
				<trkpt lat="59.57472" lon="5.29438">
					<ele>31</ele>
					<time>0001-01-01T00:00:00Z</time>
				</trkpt>
				<trkpt lat="59.57639" lon="5.29430">
					<ele>32</ele>
					<time>0001-01-01T00:00:00Z</time>
				</trkpt>
				<trkpt lat="59.57813" lon="5.29423">
					<ele>32</ele>
					<time>0001-01-01T00:00:00Z</time>
				</trkpt>
				<trkpt lat="59.57960" lon="5.29406">
					<ele>25</ele>
					<time>0001-01-01T00:00:00Z</time>
				</trkpt>
				<trkpt lat="59.58085" lon="5.29375">
					<ele>20</ele>
					<time>0001-01-01T00:00:00Z</time>
				</trkpt>
				<trkpt lat="59.58105" lon="5.29375">
					<ele>19</ele>
					<time>0001-01-01T00:00:00Z</time>
				</trkpt>
				<trkpt lat="59.58314" lon="5.29506">
					<ele>19</ele>
					<time>0001-01-01T00:00:00Z</time>
				</trkpt>
				<trkpt lat="59.58454" lon="5.29571">
					<ele>19</ele>
					<time>0001-01-01T00:00:00Z</time>
				</trkpt>
				<trkpt lat="59.58550" lon="5.29710">
					<ele>27</ele>
					<time>0001-01-01T00:00:00Z</time>
				</trkpt>
				<trkpt lat="59.58639" lon="5.29841">
					<ele>34</ele>
					<time>0001-01-01T00:00:00Z</time>
				</trkpt>
				<trkpt lat="59.58735" lon="5.29983">
					<ele>40</ele>
					<time>0001-01-01T00:00:00Z</time>
				</trkpt>
				<trkpt lat="59.58838" lon="5.30148">
					<ele>40</ele>
					<time>0001-01-01T00:00:00Z</time>
				</trkpt>
				<trkpt lat="59.58927" lon="5.30424">
					<ele>37</ele>
					<time>0001-01-01T00:00:00Z</time>
				</trkpt>
				<trkpt lat="59.58941" lon="5.30451">
					<ele>37</ele>
					<time>0001-01-01T00:00:00Z</time>
				</trkpt>
				<trkpt lat="59.58974" lon="5.30485">
					<ele>36</ele>
					<time>0001-01-01T00:00:00Z</time>
				</trkpt>
				<trkpt lat="59.59045" lon="5.30531">
					<ele>35</ele>
					<time>0001-01-01T00:00:00Z</time>
				</trkpt>
				<trkpt lat="59.59086" lon="5.30575">
					<ele>32</ele>
					<time>0001-01-01T00:00:00Z</time>
				</trkpt>
				<trkpt lat="59.59237" lon="5.30841">
					<ele>27</ele>
					<time>0001-01-01T00:00:00Z</time>
				</trkpt>
				<trkpt lat="59.59341" lon="5.31081">
					<ele>25</ele>
					<time>0001-01-01T00:00:00Z</time>
				</trkpt>
				<trkpt lat="59.59442" lon="5.31322">
					<ele>21</ele>
					<time>0001-01-01T00:00:00Z</time>
				</trkpt>
				<trkpt lat="59.59520" lon="5.31578">
					<ele>17</ele>
					<time>0001-01-01T00:00:00Z</time>
				</trkpt>
				<trkpt lat="59.59593" lon="5.31845">
					<ele>16</ele>
					<time>0001-01-01T00:00:00Z</time>
				</trkpt>
				<trkpt lat="59.59628" lon="5.32031">
					<ele>15</ele>
					<time>0001-01-01T00:00:00Z</time>
				</trkpt>
				<trkpt lat="59.59677" lon="5.32091">
					<ele>15</ele>
					<time>0001-01-01T00:00:00Z</time>
				</trkpt>
				<trkpt lat="59.59709" lon="5.32084">
					<ele>13</ele>
					<time>0001-01-01T00:00:00Z</time>
				</trkpt>
				<trkpt lat="59.59718" lon="5.32061">
					<ele>12</ele>
					<time>0001-01-01T00:00:00Z</time>
				</trkpt>
				<trkpt lat="59.59752" lon="5.31914">
					<ele>6</ele>
					<time>0001-01-01T00:00:00Z</time>
				</trkpt>
				<trkpt lat="59.59785" lon="5.31872">
					<ele>5</ele>
					<time>0001-01-01T00:00:00Z</time>
				</trkpt>
				<trkpt lat="59.59791" lon="5.31866">
					<ele>3</ele>
					<time>0001-01-01T00:00:00Z</time>
				</trkpt>
				<trkpt lat="59.59791" lon="5.31866">
					<ele>3</ele>
					<time>0001-01-01T00:00:00Z</time>
				</trkpt>
				<trkpt lat="59.59806" lon="5.31863">
					<ele>3</ele>
					<time>0001-01-01T00:00:00Z</time>
				</trkpt>
				<trkpt lat="59.59807" lon="5.31867">
					<ele>3</ele>
					<time>0001-01-01T00:00:00Z</time>
				</trkpt>
				<trkpt lat="59.60808" lon="5.23659">
					<ele>1</ele>
					<time>0001-01-01T00:00:00Z</time>
				</trkpt>
				<trkpt lat="59.60781" lon="5.23630">
					<ele>0</ele>
					<time>0001-01-01T00:00:00Z</time>
				</trkpt>
				<trkpt lat="59.60709" lon="5.23512">
					<ele>3</ele>
					<time>0001-01-01T00:00:00Z</time>
				</trkpt>
				<trkpt lat="59.60647" lon="5.23410">
					<ele>8</ele>
					<time>0001-01-01T00:00:00Z</time>
				</trkpt>
				<trkpt lat="59.60572" lon="5.23288">
					<ele>11</ele>
					<time>0001-01-01T00:00:00Z</time>
				</trkpt>
				<trkpt lat="59.60503" lon="5.23132">
					<ele>18</ele>
					<time>0001-01-01T00:00:00Z</time>
				</trkpt>
				<trkpt lat="59.60433" lon="5.22900">
					<ele>22</ele>
					<time>0001-01-01T00:00:00Z</time>
				</trkpt>
				<trkpt lat="59.60346" lon="5.22751">
					<ele>24</ele>
					<time>0001-01-01T00:00:00Z</time>
				</trkpt>
				<trkpt lat="59.60279" lon="5.22633">
					<ele>28</ele>
					<time>0001-01-01T00:00:00Z</time>
				</trkpt>
				<trkpt lat="59.60269" lon="5.22609">
					<ele>29</ele>
					<time>0001-01-01T00:00:00Z</time>
				</trkpt>
				<trkpt lat="59.60253" lon="5.22561">
					<ele>31</ele>
					<time>0001-01-01T00:00:00Z</time>
				</trkpt>
				<trkpt lat="59.60224" lon="5.22368">
					<ele>32</ele>
					<time>0001-01-01T00:00:00Z</time>
				</trkpt>
				<trkpt lat="59.60182" lon="5.22019">
					<ele>31</ele>
					<time>0001-01-01T00:00:00Z</time>
				</trkpt>
				<trkpt lat="59.60179" lon="5.21649">
					<ele>23</ele>
					<time>0001-01-01T00:00:00Z</time>
				</trkpt>
				<trkpt lat="59.60173" lon="5.21368">
					<ele>11</ele>
					<time>0001-01-01T00:00:00Z</time>
				</trkpt>
				<trkpt lat="59.60177" lon="5.21114">
					<ele>2</ele>
					<time>0001-01-01T00:00:00Z</time>
				</trkpt>
				<trkpt lat="59.60200" lon="5.21021">
					<ele>0</ele>
					<time>0001-01-01T00:00:00Z</time>
				</trkpt>
				<trkpt lat="59.60195" lon="5.20984">
					<ele>0</ele>
					<time>0001-01-01T00:00:00Z</time>
				</trkpt>
				<trkpt lat="59.60183" lon="5.20955">
					<ele>0</ele>
					<time>0001-01-01T00:00:00Z</time>
				</trkpt>
				<trkpt lat="59.60185" lon="5.20947">
					<ele>3</ele>
					<time>0001-01-01T00:00:00Z</time>
				</trkpt>
				<trkpt lat="59.60194" lon="5.20967">
					<ele>3</ele>
					<time>0001-01-01T00:00:00Z</time>
				</trkpt>
				<trkpt lat="59.60197" lon="5.20984">
					<ele>2</ele>
					<time>0001-01-01T00:00:00Z</time>
				</trkpt>
				<trkpt lat="59.60209" lon="5.20950">
					<ele>3</ele>
					<time>0001-01-01T00:00:00Z</time>
				</trkpt>
				<trkpt lat="59.60204" lon="5.20864">
					<ele>2</ele>
					<time>0001-01-01T00:00:00Z</time>
				</trkpt>
				<trkpt lat="59.60231" lon="5.20818">
					<ele>3</ele>
					<time>0001-01-01T00:00:00Z</time>
				</trkpt>
				<trkpt lat="59.60241" lon="5.20830">
					<ele>4</ele>
					<time>0001-01-01T00:00:00Z</time>
				</trkpt>
				<trkpt lat="59.60306" lon="5.20912">
					<ele>10</ele>
					<time>0001-01-01T00:00:00Z</time>
				</trkpt>
				<trkpt lat="59.60331" lon="5.20930">
					<ele>11</ele>
					<time>0001-01-01T00:00:00Z</time>
				</trkpt>
				<trkpt lat="59.60380" lon="5.21041">
					<ele>16</ele>
					<time>0001-01-01T00:00:00Z</time>
				</trkpt>
				<trkpt lat="59.60430" lon="5.21170">
					<ele>22</ele>
					<time>0001-01-01T00:00:00Z</time>
				</trkpt>
				<trkpt lat="59.60479" lon="5.21163">
					<ele>26</ele>
					<time>0001-01-01T00:00:00Z</time>
				</trkpt>
				<trkpt lat="59.60509" lon="5.21037">
					<ele>29</ele>
					<time>0001-01-01T00:00:00Z</time>
				</trkpt>
				<trkpt lat="59.60557" lon="5.20788">
					<ele>35</ele>
					<time>0001-01-01T00:00:00Z</time>
				</trkpt>
				<trkpt lat="59.60624" lon="5.20713">
					<ele>35</ele>
					<time>0001-01-01T00:00:00Z</time>
				</trkpt>
				<trkpt lat="59.60746" lon="5.20650">
					<ele>41</ele>
					<time>0001-01-01T00:00:00Z</time>
				</trkpt>
				<trkpt lat="59.60829" lon="5.20562">
					<ele>49</ele>
					<time>0001-01-01T00:00:00Z</time>
				</trkpt>
				<trkpt lat="59.60906" lon="5.20432">
					<ele>55</ele>
					<time>0001-01-01T00:00:00Z</time>
				</trkpt>
				<trkpt lat="59.60993" lon="5.20297">
					<ele>65</ele>
					<time>0001-01-01T00:00:00Z</time>
				</trkpt>
				<trkpt lat="59.61071" lon="5.20207">
					<ele>69</ele>
					<time>0001-01-01T00:00:00Z</time>
				</trkpt>
				<trkpt lat="59.61165" lon="5.20126">
					<ele>69</ele>
					<time>0001-01-01T00:00:00Z</time>
				</trkpt>
				<trkpt lat="59.61313" lon="5.20050">
					<ele>60</ele>
					<time>0001-01-01T00:00:00Z</time>
				</trkpt>
				<trkpt lat="59.61523" lon="5.20015">
					<ele>48</ele>
					<time>0001-01-01T00:00:00Z</time>
				</trkpt>
				<trkpt lat="59.61684" lon="5.19897">
					<ele>42</ele>
					<time>0001-01-01T00:00:00Z</time>
				</trkpt>
				<trkpt lat="59.61878" lon="5.19705">
					<ele>34</ele>
					<time>0001-01-01T00:00:00Z</time>
				</trkpt>
				<trkpt lat="59.62079" lon="5.19570">
					<ele>29</ele>
					<time>0001-01-01T00:00:00Z</time>
				</trkpt>
				<trkpt lat="59.62275" lon="5.19427">
					<ele>28</ele>
					<time>0001-01-01T00:00:00Z</time>
				</trkpt>
				<trkpt lat="59.62433" lon="5.19362">
					<ele>30</ele>
					<time>0001-01-01T00:00:00Z</time>
				</trkpt>
				<trkpt lat="59.62554" lon="5.19339">
					<ele>23</ele>
					<time>0001-01-01T00:00:00Z</time>
				</trkpt>
				<trkpt lat="59.62621" lon="5.19216">
					<ele>18</ele>
					<time>0001-01-01T00:00:00Z</time>
				</trkpt>
				<trkpt lat="59.62626" lon="5.19194">
					<ele>18</ele>
					<time>0001-01-01T00:00:00Z</time>
				</trkpt>
				<trkpt lat="59.62641" lon="5.19109">
					<ele>17</ele>
					<time>0001-01-01T00:00:00Z</time>
				</trkpt>
				<trkpt lat="59.62677" lon="5.19032">
					<ele>17</ele>
					<time>0001-01-01T00:00:00Z</time>
				</trkpt>
				<trkpt lat="59.62746" lon="5.18923">
					<ele>18</ele>
					<time>0001-01-01T00:00:00Z</time>
				</trkpt>
				<trkpt lat="59.62754" lon="5.18812">
					<ele>15</ele>
					<time>0001-01-01T00:00:00Z</time>
				</trkpt>
				<trkpt lat="59.62783" lon="5.18697">
					<ele>9</ele>
					<time>0001-01-01T00:00:00Z</time>
				</trkpt>
				<trkpt lat="59.62844" lon="5.18642">
					<ele>7</ele>
					<time>0001-01-01T00:00:00Z</time>
				</trkpt>
				<trkpt lat="59.62972" lon="5.18615">
					<ele>5</ele>
					<time>0001-01-01T00:00:00Z</time>
				</trkpt>
				<trkpt lat="59.63124" lon="5.18648">
					<ele>6</ele>
					<time>0001-01-01T00:00:00Z</time>
				</trkpt>
				<trkpt lat="59.63244" lon="5.18732">
					<ele>11</ele>
					<time>0001-01-01T00:00:00Z</time>
				</trkpt>
				<trkpt lat="59.63369" lon="5.18768">
					<ele>14</ele>
					<time>0001-01-01T00:00:00Z</time>
				</trkpt>
				<trkpt lat="59.63510" lon="5.18808">
					<ele>11</ele>
					<time>0001-01-01T00:00:00Z</time>
				</trkpt>
				<trkpt lat="59.63638" lon="5.18857">
					<ele>15</ele>
					<time>0001-01-01T00:00:00Z</time>
				</trkpt>
				<trkpt lat="59.63759" lon="5.18879">
					<ele>21</ele>
					<time>0001-01-01T00:00:00Z</time>
				</trkpt>
				<trkpt lat="59.63865" lon="5.18900">
					<ele>23</ele>
					<time>0001-01-01T00:00:00Z</time>
				</trkpt>
				<trkpt lat="59.63905" lon="5.18901">
					<ele>24</ele>
					<time>0001-01-01T00:00:00Z</time>
				</trkpt>
				<trkpt lat="59.63916" lon="5.18894">
					<ele>26</ele>
					<time>0001-01-01T00:00:00Z</time>
				</trkpt>
				<trkpt lat="59.63932" lon="5.18867">
					<ele>27</ele>
					<time>0001-01-01T00:00:00Z</time>
				</trkpt>
				<trkpt lat="59.63970" lon="5.18759">
					<ele>28</ele>
					<time>0001-01-01T00:00:00Z</time>
				</trkpt>
				<trkpt lat="59.64069" lon="5.18673">
					<ele>28</ele>
					<time>0001-01-01T00:00:00Z</time>
				</trkpt>
				<trkpt lat="59.64231" lon="5.18577">
					<ele>26</ele>
					<time>0001-01-01T00:00:00Z</time>
				</trkpt>
				<trkpt lat="59.64320" lon="5.18485">
					<ele>30</ele>
					<time>0001-01-01T00:00:00Z</time>
				</trkpt>
				<trkpt lat="59.64445" lon="5.18344">
					<ele>34</ele>
					<time>0001-01-01T00:00:00Z</time>
				</trkpt>
				<trkpt lat="59.64551" lon="5.18203">
					<ele>37</ele>
					<time>0001-01-01T00:00:00Z</time>
				</trkpt>
				<trkpt lat="59.64653" lon="5.18037">
					<ele>34</ele>
					<time>0001-01-01T00:00:00Z</time>
				</trkpt>
				<trkpt lat="59.64663" lon="5.17945">
					<ele>31</ele>
					<time>0001-01-01T00:00:00Z</time>
				</trkpt>
				<trkpt lat="59.64658" lon="5.17875">
					<ele>30</ele>
					<time>0001-01-01T00:00:00Z</time>
				</trkpt>
				<trkpt lat="59.64685" lon="5.17753">
					<ele>32</ele>
					<time>0001-01-01T00:00:00Z</time>
				</trkpt>
				<trkpt lat="59.64747" lon="5.17665">
					<ele>34</ele>
					<time>0001-01-01T00:00:00Z</time>
				</trkpt>
				<trkpt lat="59.64755" lon="5.17553">
					<ele>33</ele>
					<time>0001-01-01T00:00:00Z</time>
				</trkpt>
				<trkpt lat="59.64692" lon="5.17355">
					<ele>36</ele>
					<time>0001-01-01T00:00:00Z</time>
				</trkpt>
				<trkpt lat="59.64669" lon="5.17287">
					<ele>36</ele>
					<time>0001-01-01T00:00:00Z</time>
				</trkpt>
				<trkpt lat="59.64680" lon="5.17213">
					<ele>35</ele>
					<time>0001-01-01T00:00:00Z</time>
				</trkpt>
				<trkpt lat="59.64758" lon="5.17013">
					<ele>36</ele>
					<time>0001-01-01T00:00:00Z</time>
				</trkpt>
				<trkpt lat="59.64783" lon="5.16942">
					<ele>36</ele>
					<time>0001-01-01T00:00:00Z</time>
				</trkpt>
				<trkpt lat="59.64795" lon="5.16934">
					<ele>37</ele>
					<time>0001-01-01T00:00:00Z</time>
				</trkpt>
				<trkpt lat="59.64882" lon="5.16938">
					<ele>36</ele>
					<time>0001-01-01T00:00:00Z</time>
				</trkpt>
				<trkpt lat="59.64964" lon="5.16868">
					<ele>36</ele>
					<time>0001-01-01T00:00:00Z</time>
				</trkpt>
				<trkpt lat="59.64975" lon="5.16848">
					<ele>37</ele>
					<time>0001-01-01T00:00:00Z</time>
				</trkpt>
				<trkpt lat="59.65078" lon="5.16593">
					<ele>37</ele>
					<time>0001-01-01T00:00:00Z</time>
				</trkpt>
				<trkpt lat="59.65182" lon="5.16472">
					<ele>39</ele>
					<time>0001-01-01T00:00:00Z</time>
				</trkpt>
				<trkpt lat="59.65286" lon="5.16380">
					<ele>38</ele>
					<time>0001-01-01T00:00:00Z</time>
				</trkpt>
				<trkpt lat="59.65402" lon="5.16434">
					<ele>34</ele>
					<time>0001-01-01T00:00:00Z</time>
				</trkpt>
				<trkpt lat="59.65494" lon="5.16601">
					<ele>35</ele>
					<time>0001-01-01T00:00:00Z</time>
				</trkpt>
				<trkpt lat="59.65545" lon="5.16719">
					<ele>41</ele>
					<time>0001-01-01T00:00:00Z</time>
				</trkpt>
				<trkpt lat="59.65617" lon="5.16824">
					<ele>47</ele>
					<time>0001-01-01T00:00:00Z</time>
				</trkpt>
				<trkpt lat="59.65690" lon="5.16970">
					<ele>53</ele>
					<time>0001-01-01T00:00:00Z</time>
				</trkpt>
				<trkpt lat="59.65761" lon="5.17142">
					<ele>52</ele>
					<time>0001-01-01T00:00:00Z</time>
				</trkpt>
				<trkpt lat="59.65786" lon="5.17191">
					<ele>51</ele>
					<time>0001-01-01T00:00:00Z</time>
				</trkpt>
				<trkpt lat="59.65828" lon="5.17225">
					<ele>51</ele>
					<time>0001-01-01T00:00:00Z</time>
				</trkpt>
				<trkpt lat="59.65867" lon="5.17235">
					<ele>49</ele>
					<time>0001-01-01T00:00:00Z</time>
				</trkpt>
				<trkpt lat="59.66029" lon="5.17248">
					<ele>36</ele>
					<time>0001-01-01T00:00:00Z</time>
				</trkpt>
				<trkpt lat="59.66088" lon="5.17253">
					<ele>36</ele>
					<time>0001-01-01T00:00:00Z</time>
				</trkpt>
				<trkpt lat="59.66174" lon="5.17228">
					<ele>37</ele>
					<time>0001-01-01T00:00:00Z</time>
				</trkpt>
				<trkpt lat="59.66217" lon="5.17256">
					<ele>37</ele>
					<time>0001-01-01T00:00:00Z</time>
				</trkpt>
				<trkpt lat="59.66306" lon="5.17383">
					<ele>43</ele>
					<time>0001-01-01T00:00:00Z</time>
				</trkpt>
				<trkpt lat="59.66383" lon="5.17487">
					<ele>47</ele>
					<time>0001-01-01T00:00:00Z</time>
				</trkpt>
				<trkpt lat="59.66484" lon="5.17592">
					<ele>49</ele>
					<time>0001-01-01T00:00:00Z</time>
				</trkpt>
				<trkpt lat="59.66610" lon="5.17657">
					<ele>53</ele>
					<time>0001-01-01T00:00:00Z</time>
				</trkpt>
				<trkpt lat="59.66758" lon="5.17709">
					<ele>57</ele>
					<time>0001-01-01T00:00:00Z</time>
				</trkpt>
				<trkpt lat="59.66838" lon="5.17716">
					<ele>62</ele>
					<time>0001-01-01T00:00:00Z</time>
				</trkpt>
				<trkpt lat="59.66842" lon="5.17713">
					<ele>62</ele>
					<time>0001-01-01T00:00:00Z</time>
				</trkpt>
				<trkpt lat="59.66899" lon="5.17589">
					<ele>66</ele>
					<time>0001-01-01T00:00:00Z</time>
				</trkpt>
				<trkpt lat="59.66961" lon="5.17431">
					<ele>61</ele>
					<time>0001-01-01T00:00:00Z</time>
				</trkpt>
				<trkpt lat="59.67023" lon="5.17219">
					<ele>54</ele>
					<time>0001-01-01T00:00:00Z</time>
				</trkpt>
				<trkpt lat="59.67091" lon="5.16909">
					<ele>32</ele>
					<time>0001-01-01T00:00:00Z</time>
				</trkpt>
				<trkpt lat="59.67151" lon="5.16837">
					<ele>22</ele>
					<time>0001-01-01T00:00:00Z</time>
				</trkpt>
				<trkpt lat="59.67176" lon="5.16847">
					<ele>20</ele>
					<time>0001-01-01T00:00:00Z</time>
				</trkpt>
				<trkpt lat="59.67368" lon="5.16958">
					<ele>12</ele>
					<time>0001-01-01T00:00:00Z</time>
				</trkpt>
				<trkpt lat="59.67493" lon="5.17058">
					<ele>12</ele>
					<time>0001-01-01T00:00:00Z</time>
				</trkpt>
				<trkpt lat="59.67606" lon="5.17258">
					<ele>13</ele>
					<time>0001-01-01T00:00:00Z</time>
				</trkpt>
				<trkpt lat="59.67639" lon="5.17328">
					<ele>15</ele>
					<time>0001-01-01T00:00:00Z</time>
				</trkpt>
				<trkpt lat="59.67703" lon="5.17419">
					<ele>23</ele>
					<time>0001-01-01T00:00:00Z</time>
				</trkpt>
				<trkpt lat="59.67775" lon="5.17496">
					<ele>23</ele>
					<time>0001-01-01T00:00:00Z</time>
				</trkpt>
				<trkpt lat="59.67830" lon="5.17565">
					<ele>24</ele>
					<time>0001-01-01T00:00:00Z</time>
				</trkpt>
				<trkpt lat="59.67919" lon="5.17749">
					<ele>28</ele>
					<time>0001-01-01T00:00:00Z</time>
				</trkpt>
				<trkpt lat="59.68013" lon="5.17762">
					<ele>31</ele>
					<time>0001-01-01T00:00:00Z</time>
				</trkpt>
				<trkpt lat="59.68077" lon="5.17730">
					<ele>30</ele>
					<time>0001-01-01T00:00:00Z</time>
				</trkpt>
				<trkpt lat="59.68157" lon="5.17782">
					<ele>30</ele>
					<time>0001-01-01T00:00:00Z</time>
				</trkpt>
				<trkpt lat="59.68262" lon="5.18034">
					<ele>32</ele>
					<time>0001-01-01T00:00:00Z</time>
				</trkpt>
				<trkpt lat="59.68309" lon="5.18250">
					<ele>32</ele>
					<time>0001-01-01T00:00:00Z</time>
				</trkpt>
				<trkpt lat="59.68371" lon="5.18412">
					<ele>32</ele>
					<time>0001-01-01T00:00:00Z</time>
				</trkpt>
				<trkpt lat="59.68425" lon="5.18450">
					<ele>34</ele>
					<time>0001-01-01T00:00:00Z</time>
				</trkpt>
				<trkpt lat="59.68455" lon="5.18504">
					<ele>34</ele>
					<time>0001-01-01T00:00:00Z</time>
				</trkpt>
				<trkpt lat="59.68492" lon="5.18625">
					<ele>34</ele>
					<time>0001-01-01T00:00:00Z</time>
				</trkpt>
				<trkpt lat="59.68503" lon="5.18649">
					<ele>34</ele>
					<time>0001-01-01T00:00:00Z</time>
				</trkpt>
				<trkpt lat="59.68557" lon="5.18673">
					<ele>34</ele>
					<time>0001-01-01T00:00:00Z</time>
				</trkpt>
				<trkpt lat="59.68741" lon="5.18471">
					<ele>38</ele>
					<time>0001-01-01T00:00:00Z</time>
				</trkpt>
				<trkpt lat="59.68850" lon="5.18297">
					<ele>37</ele>
					<time>0001-01-01T00:00:00Z</time>
				</trkpt>
				<trkpt lat="59.68978" lon="5.18061">
					<ele>36</ele>
					<time>0001-01-01T00:00:00Z</time>
				</trkpt>
				<trkpt lat="59.69062" lon="5.17876">
					<ele>35</ele>
					<time>0001-01-01T00:00:00Z</time>
				</trkpt>
				<trkpt lat="59.69127" lon="5.17858">
					<ele>34</ele>
					<time>0001-01-01T00:00:00Z</time>
				</trkpt>
				<trkpt lat="59.69161" lon="5.17822">
					<ele>33</ele>
					<time>0001-01-01T00:00:00Z</time>
				</trkpt>
				<trkpt lat="59.69295" lon="5.17649">
					<ele>31</ele>
					<time>0001-01-01T00:00:00Z</time>
				</trkpt>
				<trkpt lat="59.69376" lon="5.17646">
					<ele>28</ele>
					<time>0001-01-01T00:00:00Z</time>
				</trkpt>
				<trkpt lat="59.69530" lon="5.17694">
					<ele>23</ele>
					<time>0001-01-01T00:00:00Z</time>
				</trkpt>
				<trkpt lat="59.69581" lon="5.17710">
					<ele>21</ele>
					<time>0001-01-01T00:00:00Z</time>
				</trkpt>
				<trkpt lat="59.69631" lon="5.17682">
					<ele>20</ele>
					<time>0001-01-01T00:00:00Z</time>
				</trkpt>
				<trkpt lat="59.69695" lon="5.17674">
					<ele>18</ele>
					<time>0001-01-01T00:00:00Z</time>
				</trkpt>
				<trkpt lat="59.69808" lon="5.17799">
					<ele>15</ele>
					<time>0001-01-01T00:00:00Z</time>
				</trkpt>
				<trkpt lat="59.69918" lon="5.18029">
					<ele>14</ele>
					<time>0001-01-01T00:00:00Z</time>
				</trkpt>
				<trkpt lat="59.70021" lon="5.18259">
					<ele>10</ele>
					<time>0001-01-01T00:00:00Z</time>
				</trkpt>
				<trkpt lat="59.70104" lon="5.18550">
					<ele>10</ele>
					<time>0001-01-01T00:00:00Z</time>
				</trkpt>
				<trkpt lat="59.70178" lon="5.18788">
					<ele>15</ele>
					<time>0001-01-01T00:00:00Z</time>
				</trkpt>
				<trkpt lat="59.70215" lon="5.18922">
					<ele>16</ele>
					<time>0001-01-01T00:00:00Z</time>
				</trkpt>
				<trkpt lat="59.70273" lon="5.18990">
					<ele>24</ele>
					<time>0001-01-01T00:00:00Z</time>
				</trkpt>
				<trkpt lat="59.70362" lon="5.19055">
					<ele>26</ele>
					<time>0001-01-01T00:00:00Z</time>
				</trkpt>
				<trkpt lat="59.70466" lon="5.19259">
					<ele>26</ele>
					<time>0001-01-01T00:00:00Z</time>
				</trkpt>
				<trkpt lat="59.70586" lon="5.19559">
					<ele>28</ele>
					<time>0001-01-01T00:00:00Z</time>
				</trkpt>
				<trkpt lat="59.70650" lon="5.19753">
					<ele>30</ele>
					<time>0001-01-01T00:00:00Z</time>
				</trkpt>
				<trkpt lat="59.70718" lon="5.19915">
					<ele>36</ele>
					<time>0001-01-01T00:00:00Z</time>
				</trkpt>
				<trkpt lat="59.70802" lon="5.20079">
					<ele>43</ele>
					<time>0001-01-01T00:00:00Z</time>
				</trkpt>
				<trkpt lat="59.70896" lon="5.20273">
					<ele>46</ele>
					<time>0001-01-01T00:00:00Z</time>
				</trkpt>
				<trkpt lat="59.70980" lon="5.20498">
					<ele>47</ele>
					<time>0001-01-01T00:00:00Z</time>
				</trkpt>
				<trkpt lat="59.71207" lon="5.20833">
					<ele>49</ele>
					<time>0001-01-01T00:00:00Z</time>
				</trkpt>
				<trkpt lat="59.71299" lon="5.21113">
					<ele>53</ele>
					<time>0001-01-01T00:00:00Z</time>
				</trkpt>
				<trkpt lat="59.71369" lon="5.21315">
					<ele>52</ele>
					<time>0001-01-01T00:00:00Z</time>
				</trkpt>
				<trkpt lat="59.71477" lon="5.21645">
					<ele>44</ele>
					<time>0001-01-01T00:00:00Z</time>
				</trkpt>
				<trkpt lat="59.71598" lon="5.21814">
					<ele>41</ele>
					<time>0001-01-01T00:00:00Z</time>
				</trkpt>
				<trkpt lat="59.71715" lon="5.21918">
					<ele>38</ele>
					<time>0001-01-01T00:00:00Z</time>
				</trkpt>
				<trkpt lat="59.71853" lon="5.22009">
					<ele>35</ele>
					<time>0001-01-01T00:00:00Z</time>
				</trkpt>
				<trkpt lat="59.71961" lon="5.22196">
					<ele>31</ele>
					<time>0001-01-01T00:00:00Z</time>
				</trkpt>
				<trkpt lat="59.72072" lon="5.22422">
					<ele>33</ele>
					<time>0001-01-01T00:00:00Z</time>
				</trkpt>
				<trkpt lat="59.72192" lon="5.22671">
					<ele>33</ele>
					<time>0001-01-01T00:00:00Z</time>
				</trkpt>
				<trkpt lat="59.72306" lon="5.22875">
					<ele>25</ele>
					<time>0001-01-01T00:00:00Z</time>
				</trkpt>
				<trkpt lat="59.72349" lon="5.23004">
					<ele>20</ele>
					<time>0001-01-01T00:00:00Z</time>
				</trkpt>
				<trkpt lat="59.72388" lon="5.23077">
					<ele>16</ele>
					<time>0001-01-01T00:00:00Z</time>
				</trkpt>
				<trkpt lat="59.72472" lon="5.23244">
					<ele>19</ele>
					<time>0001-01-01T00:00:00Z</time>
				</trkpt>
				<trkpt lat="59.72621" lon="5.23455">
					<ele>22</ele>
					<time>0001-01-01T00:00:00Z</time>
				</trkpt>
				<trkpt lat="59.72745" lon="5.23611">
					<ele>21</ele>
					<time>0001-01-01T00:00:00Z</time>
				</trkpt>
				<trkpt lat="59.72820" lon="5.23695">
					<ele>19</ele>
					<time>0001-01-01T00:00:00Z</time>
				</trkpt>
				<trkpt lat="59.72866" lon="5.23706">
					<ele>17</ele>
					<time>0001-01-01T00:00:00Z</time>
				</trkpt>
				<trkpt lat="59.73052" lon="5.23671">
					<ele>17</ele>
					<time>0001-01-01T00:00:00Z</time>
				</trkpt>
				<trkpt lat="59.73067" lon="5.23662">
					<ele>17</ele>
					<time>0001-01-01T00:00:00Z</time>
				</trkpt>
				<trkpt lat="59.73230" lon="5.23423">
					<ele>19</ele>
					<time>0001-01-01T00:00:00Z</time>
				</trkpt>
				<trkpt lat="59.73283" lon="5.23351">
					<ele>19</ele>
					<time>0001-01-01T00:00:00Z</time>
				</trkpt>
				<trkpt lat="59.73329" lon="5.23330">
					<ele>18</ele>
					<time>0001-01-01T00:00:00Z</time>
				</trkpt>
				<trkpt lat="59.73371" lon="5.23316">
					<ele>15</ele>
					<time>0001-01-01T00:00:00Z</time>
				</trkpt>
				<trkpt lat="59.73523" lon="5.23199">
					<ele>14</ele>
					<time>0001-01-01T00:00:00Z</time>
				</trkpt>
				<trkpt lat="59.73666" lon="5.23184">
					<ele>13</ele>
					<time>0001-01-01T00:00:00Z</time>
				</trkpt>
				<trkpt lat="59.73721" lon="5.23126">
					<ele>12</ele>
					<time>0001-01-01T00:00:00Z</time>
				</trkpt>
				<trkpt lat="59.73766" lon="5.23140">
					<ele>12</ele>
					<time>0001-01-01T00:00:00Z</time>
				</trkpt>
				<trkpt lat="59.73912" lon="5.23299">
					<ele>10</ele>
					<time>0001-01-01T00:00:00Z</time>
				</trkpt>
				<trkpt lat="59.73959" lon="5.23265">
					<ele>13</ele>
					<time>0001-01-01T00:00:00Z</time>
				</trkpt>
				<trkpt lat="59.73966" lon="5.23242">
					<ele>15</ele>
					<time>0001-01-01T00:00:00Z</time>
				</trkpt>
				<trkpt lat="59.74002" lon="5.23122">
					<ele>16</ele>
					<time>0001-01-01T00:00:00Z</time>
				</trkpt>
				<trkpt lat="59.74056" lon="5.23102">
					<ele>17</ele>
					<time>0001-01-01T00:00:00Z</time>
				</trkpt>
				<trkpt lat="59.74052" lon="5.23091">
					<ele>17</ele>
					<time>0001-01-01T00:00:00Z</time>
				</trkpt>
				<trkpt lat="59.74036" lon="5.23089">
					<ele>16</ele>
					<time>0001-01-01T00:00:00Z</time>
				</trkpt>
				<trkpt lat="59.74037" lon="5.23100">
					<ele>15</ele>
					<time>0001-01-01T00:00:00Z</time>
				</trkpt>
				<trkpt lat="59.74035" lon="5.23098">
					<ele>16</ele>
					<time>0001-01-01T00:00:00Z</time>
				</trkpt>
				<trkpt lat="59.74076" lon="5.23112">
					<ele>18</ele>
					<time>0001-01-01T00:00:00Z</time>
				</trkpt>
				<trkpt lat="59.74192" lon="5.23111">
					<ele>21</ele>
					<time>0001-01-01T00:00:00Z</time>
				</trkpt>
				<trkpt lat="59.74212" lon="5.23110">
					<ele>22</ele>
					<time>0001-01-01T00:00:00Z</time>
				</trkpt>
				<trkpt lat="59.74230" lon="5.23115">
					<ele>22</ele>
					<time>0001-01-01T00:00:00Z</time>
				</trkpt>
				<trkpt lat="59.74307" lon="5.23148">
					<ele>21</ele>
					<time>0001-01-01T00:00:00Z</time>
				</trkpt>
				<trkpt lat="59.74356" lon="5.23099">
					<ele>16</ele>
					<time>0001-01-01T00:00:00Z</time>
				</trkpt>
				<trkpt lat="59.74414" lon="5.23118">
					<ele>15</ele>
					<time>0001-01-01T00:00:00Z</time>
				</trkpt>
				<trkpt lat="59.74569" lon="5.23341">
					<ele>11</ele>
					<time>0001-01-01T00:00:00Z</time>
				</trkpt>
				<trkpt lat="59.74599" lon="5.23403">
					<ele>10</ele>
					<time>0001-01-01T00:00:00Z</time>
				</trkpt>
				<trkpt lat="59.74609" lon="5.23435">
					<ele>11</ele>
					<time>0001-01-01T00:00:00Z</time>
				</trkpt>
				<trkpt lat="59.74599" lon="5.23497">
					<ele>11</ele>
					<time>0001-01-01T00:00:00Z</time>
				</trkpt>
				<trkpt lat="59.74597" lon="5.23518">
					<ele>11</ele>
					<time>0001-01-01T00:00:00Z</time>
				</trkpt>
				<trkpt lat="59.74601" lon="5.23570">
					<ele>13</ele>
					<time>0001-01-01T00:00:00Z</time>
				</trkpt>
				<trkpt lat="59.74608" lon="5.23598">
					<ele>14</ele>
					<time>0001-01-01T00:00:00Z</time>
				</trkpt>
				<trkpt lat="59.74630" lon="5.23639">
					<ele>16</ele>
					<time>0001-01-01T00:00:00Z</time>
				</trkpt>
				<trkpt lat="59.74671" lon="5.23675">
					<ele>17</ele>
					<time>0001-01-01T00:00:00Z</time>
				</trkpt>
				<trkpt lat="59.74674" lon="5.23741">
					<ele>18</ele>
					<time>0001-01-01T00:00:00Z</time>
				</trkpt>
				<trkpt lat="59.74659" lon="5.23745">
					<ele>19</ele>
					<time>0001-01-01T00:00:00Z</time>
				</trkpt>
				<trkpt lat="59.74626" lon="5.23741">
					<ele>21</ele>
					<time>0001-01-01T00:00:00Z</time>
				</trkpt>
				<trkpt lat="59.74551" lon="5.23834">
					<ele>23</ele>
					<time>0001-01-01T00:00:00Z</time>
				</trkpt>
				<trkpt lat="59.74547" lon="5.23845">
					<ele>23</ele>
					<time>0001-01-01T00:00:00Z</time>
				</trkpt>
				<trkpt lat="59.74546" lon="5.23921">
					<ele>24</ele>
					<time>0001-01-01T00:00:00Z</time>
				</trkpt>
				<trkpt lat="59.74608" lon="5.24072">
					<ele>23</ele>
					<time>0001-01-01T00:00:00Z</time>
				</trkpt>
				<trkpt lat="59.74637" lon="5.24080">
					<ele>24</ele>
					<time>0001-01-01T00:00:00Z</time>
				</trkpt>
				<trkpt lat="59.74679" lon="5.24124">
					<ele>23</ele>
					<time>0001-01-01T00:00:00Z</time>
				</trkpt>
				<trkpt lat="59.74694" lon="5.24187">
					<ele>25</ele>
					<time>0001-01-01T00:00:00Z</time>
				</trkpt>
				<trkpt lat="59.74715" lon="5.24223">
					<ele>26</ele>
					<time>0001-01-01T00:00:00Z</time>
				</trkpt>
				<trkpt lat="59.74741" lon="5.24247">
					<ele>26</ele>
					<time>0001-01-01T00:00:00Z</time>
				</trkpt>
				<trkpt lat="59.74790" lon="5.24210">
					<ele>26</ele>
					<time>0001-01-01T00:00:00Z</time>
				</trkpt>
				<trkpt lat="59.74866" lon="5.24182">
					<ele>27</ele>
					<time>0001-01-01T00:00:00Z</time>
				</trkpt>
				<trkpt lat="59.74918" lon="5.24286">
					<ele>26</ele>
					<time>0001-01-01T00:00:00Z</time>
				</trkpt>
				<trkpt lat="59.74930" lon="5.24445">
					<ele>28</ele>
					<time>0001-01-01T00:00:00Z</time>
				</trkpt>
				<trkpt lat="59.74918" lon="5.24475">
					<ele>30</ele>
					<time>0001-01-01T00:00:00Z</time>
				</trkpt>
				<trkpt lat="59.74901" lon="5.24486">
					<ele>31</ele>
					<time>0001-01-01T00:00:00Z</time>
				</trkpt>
				<trkpt lat="59.74874" lon="5.24512">
					<ele>32</ele>
					<time>0001-01-01T00:00:00Z</time>
				</trkpt>
				<trkpt lat="59.74804" lon="5.24537">
					<ele>37</ele>
					<time>0001-01-01T00:00:00Z</time>
				</trkpt>
				<trkpt lat="59.74737" lon="5.24639">
					<ele>40</ele>
					<time>0001-01-01T00:00:00Z</time>
				</trkpt>
				<trkpt lat="59.74731" lon="5.24682">
					<ele>41</ele>
					<time>0001-01-01T00:00:00Z</time>
				</trkpt>
				<trkpt lat="59.74732" lon="5.24756">
					<ele>42</ele>
					<time>0001-01-01T00:00:00Z</time>
				</trkpt>
				<trkpt lat="59.74724" lon="5.24787">
					<ele>42</ele>
					<time>0001-01-01T00:00:00Z</time>
				</trkpt>
				<trkpt lat="59.74717" lon="5.24804">
					<ele>43</ele>
					<time>0001-01-01T00:00:00Z</time>
				</trkpt>
				<trkpt lat="59.74717" lon="5.24882">
					<ele>44</ele>
					<time>0001-01-01T00:00:00Z</time>
				</trkpt>
				<trkpt lat="59.74769" lon="5.24966">
					<ele>43</ele>
					<time>0001-01-01T00:00:00Z</time>
				</trkpt>
				<trkpt lat="59.74821" lon="5.25137">
					<ele>42</ele>
					<time>0001-01-01T00:00:00Z</time>
				</trkpt>
				<trkpt lat="59.74850" lon="5.25272">
					<ele>40</ele>
					<time>0001-01-01T00:00:00Z</time>
				</trkpt>
				<trkpt lat="59.74846" lon="5.25354">
					<ele>40</ele>
					<time>0001-01-01T00:00:00Z</time>
				</trkpt>
				<trkpt lat="59.74803" lon="5.25444">
					<ele>39</ele>
					<time>0001-01-01T00:00:00Z</time>
				</trkpt>
				<trkpt lat="59.74777" lon="5.25428">
					<ele>39</ele>
					<time>0001-01-01T00:00:00Z</time>
				</trkpt>
				<trkpt lat="59.74726" lon="5.25457">
					<ele>40</ele>
					<time>0001-01-01T00:00:00Z</time>
				</trkpt>
				<trkpt lat="59.74651" lon="5.25598">
					<ele>42</ele>
					<time>0001-01-01T00:00:00Z</time>
				</trkpt>
				<trkpt lat="59.74630" lon="5.25679">
					<ele>42</ele>
					<time>0001-01-01T00:00:00Z</time>
				</trkpt>
				<trkpt lat="59.74604" lon="5.25717">
					<ele>41</ele>
					<time>0001-01-01T00:00:00Z</time>
				</trkpt>
				<trkpt lat="59.74582" lon="5.25735">
					<ele>42</ele>
					<time>0001-01-01T00:00:00Z</time>
				</trkpt>
				<trkpt lat="59.74564" lon="5.25839">
					<ele>42</ele>
					<time>0001-01-01T00:00:00Z</time>
				</trkpt>
				<trkpt lat="59.74586" lon="5.25887">
					<ele>40</ele>
					<time>0001-01-01T00:00:00Z</time>
				</trkpt>
				<trkpt lat="59.74657" lon="5.26029">
					<ele>36</ele>
					<time>0001-01-01T00:00:00Z</time>
				</trkpt>
				<trkpt lat="59.74691" lon="5.26069">
					<ele>33</ele>
					<time>0001-01-01T00:00:00Z</time>
				</trkpt>
				<trkpt lat="59.74736" lon="5.26152">
					<ele>31</ele>
					<time>0001-01-01T00:00:00Z</time>
				</trkpt>
				<trkpt lat="59.74877" lon="5.26325">
					<ele>28</ele>
					<time>0001-01-01T00:00:00Z</time>
				</trkpt>
				<trkpt lat="59.74944" lon="5.26446">
					<ele>24</ele>
					<time>0001-01-01T00:00:00Z</time>
				</trkpt>
				<trkpt lat="59.74963" lon="5.26525">
					<ele>22</ele>
					<time>0001-01-01T00:00:00Z</time>
				</trkpt>
				<trkpt lat="59.75022" lon="5.26654">
					<ele>17</ele>
					<time>0001-01-01T00:00:00Z</time>
				</trkpt>
				<trkpt lat="59.75007" lon="5.26765">
					<ele>16</ele>
					<time>0001-01-01T00:00:00Z</time>
				</trkpt>
				<trkpt lat="59.74978" lon="5.26797">
					<ele>16</ele>
					<time>0001-01-01T00:00:00Z</time>
				</trkpt>
				<trkpt lat="59.74938" lon="5.26857">
					<ele>17</ele>
					<time>0001-01-01T00:00:00Z</time>
				</trkpt>
				<trkpt lat="59.74921" lon="5.26870">
					<ele>17</ele>
					<time>0001-01-01T00:00:00Z</time>
				</trkpt>
				<trkpt lat="59.74887" lon="5.26847">
					<ele>18</ele>
					<time>0001-01-01T00:00:00Z</time>
				</trkpt>
				<trkpt lat="59.74739" lon="5.26811">
					<ele>17</ele>
					<time>0001-01-01T00:00:00Z</time>
				</trkpt>
				<trkpt lat="59.74734" lon="5.26813">
					<ele>18</ele>
					<time>0001-01-01T00:00:00Z</time>
				</trkpt>
				<trkpt lat="59.74680" lon="5.26861">
					<ele>20</ele>
					<time>0001-01-01T00:00:00Z</time>
				</trkpt>
				<trkpt lat="59.74660" lon="5.26892">
					<ele>22</ele>
					<time>0001-01-01T00:00:00Z</time>
				</trkpt>
				<trkpt lat="59.74649" lon="5.26914">
					<ele>23</ele>
					<time>0001-01-01T00:00:00Z</time>
				</trkpt>
				<trkpt lat="59.74596" lon="5.27063">
					<ele>30</ele>
					<time>0001-01-01T00:00:00Z</time>
				</trkpt>
				<trkpt lat="59.74539" lon="5.27172">
					<ele>33</ele>
					<time>0001-01-01T00:00:00Z</time>
				</trkpt>
				<trkpt lat="59.74459" lon="5.27286">
					<ele>30</ele>
					<time>0001-01-01T00:00:00Z</time>
				</trkpt>
				<trkpt lat="59.74412" lon="5.27318">
					<ele>29</ele>
					<time>0001-01-01T00:00:00Z</time>
				</trkpt>
				<trkpt lat="59.74294" lon="5.27313">
					<ele>29</ele>
					<time>0001-01-01T00:00:00Z</time>
				</trkpt>
				<trkpt lat="59.74086" lon="5.27140">
					<ele>27</ele>
					<time>0001-01-01T00:00:00Z</time>
				</trkpt>
				<trkpt lat="59.74027" lon="5.27094">
					<ele>27</ele>
					<time>0001-01-01T00:00:00Z</time>
				</trkpt>
				<trkpt lat="59.73964" lon="5.27060">
					<ele>25</ele>
					<time>0001-01-01T00:00:00Z</time>
				</trkpt>
				<trkpt lat="59.73941" lon="5.27055">
					<ele>26</ele>
					<time>0001-01-01T00:00:00Z</time>
				</trkpt>
				<trkpt lat="59.73910" lon="5.27058">
					<ele>27</ele>
					<time>0001-01-01T00:00:00Z</time>
				</trkpt>
				<trkpt lat="59.73839" lon="5.27187">
					<ele>27</ele>
					<time>0001-01-01T00:00:00Z</time>
				</trkpt>
				<trkpt lat="59.73816" lon="5.27184">
					<ele>27</ele>
					<time>0001-01-01T00:00:00Z</time>
				</trkpt>
				<trkpt lat="59.73779" lon="5.27195">
					<ele>26</ele>
					<time>0001-01-01T00:00:00Z</time>
				</trkpt>
				<trkpt lat="59.73717" lon="5.27257">
					<ele>26</ele>
					<time>0001-01-01T00:00:00Z</time>
				</trkpt>
				<trkpt lat="59.73685" lon="5.27272">
					<ele>26</ele>
					<time>0001-01-01T00:00:00Z</time>
				</trkpt>
				<trkpt lat="59.73627" lon="5.27301">
					<ele>27</ele>
					<time>0001-01-01T00:00:00Z</time>
				</trkpt>
				<trkpt lat="59.73547" lon="5.27375">
					<ele>29</ele>
					<time>0001-01-01T00:00:00Z</time>
				</trkpt>
				<trkpt lat="59.73515" lon="5.27371">
					<ele>31</ele>
					<time>0001-01-01T00:00:00Z</time>
				</trkpt>
				<trkpt lat="59.73448" lon="5.27329">
					<ele>36</ele>
					<time>0001-01-01T00:00:00Z</time>
				</trkpt>
				<trkpt lat="59.73391" lon="5.27360">
					<ele>39</ele>
					<time>0001-01-01T00:00:00Z</time>
				</trkpt>
				<trkpt lat="59.73385" lon="5.27371">
					<ele>39</ele>
					<time>0001-01-01T00:00:00Z</time>
				</trkpt>
				<trkpt lat="59.73327" lon="5.27555">
					<ele>41</ele>
					<time>0001-01-01T00:00:00Z</time>
				</trkpt>
				<trkpt lat="59.73287" lon="5.27860">
					<ele>45</ele>
					<time>0001-01-01T00:00:00Z</time>
				</trkpt>
				<trkpt lat="59.73307" lon="5.28038">
					<ele>50</ele>
					<time>0001-01-01T00:00:00Z</time>
				</trkpt>
				<trkpt lat="59.73309" lon="5.28063">
					<ele>51</ele>
					<time>0001-01-01T00:00:00Z</time>
				</trkpt>
				<trkpt lat="59.73301" lon="5.28123">
					<ele>52</ele>
					<time>0001-01-01T00:00:00Z</time>
				</trkpt>
				<trkpt lat="59.73213" lon="5.28342">
					<ele>54</ele>
					<time>0001-01-01T00:00:00Z</time>
				</trkpt>
				<trkpt lat="59.73131" lon="5.28559">
					<ele>51</ele>
					<time>0001-01-01T00:00:00Z</time>
				</trkpt>
				<trkpt lat="59.73075" lon="5.28715">
					<ele>48</ele>
					<time>0001-01-01T00:00:00Z</time>
				</trkpt>
				<trkpt lat="59.73077" lon="5.28843">
					<ele>50</ele>
					<time>0001-01-01T00:00:00Z</time>
				</trkpt>
				<trkpt lat="59.73094" lon="5.28880">
					<ele>49</ele>
					<time>0001-01-01T00:00:00Z</time>
				</trkpt>
				<trkpt lat="59.73192" lon="5.29024">
					<ele>46</ele>
					<time>0001-01-01T00:00:00Z</time>
				</trkpt>
				<trkpt lat="59.73336" lon="5.29156">
					<ele>42</ele>
					<time>0001-01-01T00:00:00Z</time>
				</trkpt>
				<trkpt lat="59.73455" lon="5.29436">
					<ele>39</ele>
					<time>0001-01-01T00:00:00Z</time>
				</trkpt>
				<trkpt lat="59.73459" lon="5.29446">
					<ele>39</ele>
					<time>0001-01-01T00:00:00Z</time>
				</trkpt>
				<trkpt lat="59.73458" lon="5.29526">
					<ele>41</ele>
					<time>0001-01-01T00:00:00Z</time>
				</trkpt>
				<trkpt lat="59.73409" lon="5.29580">
					<ele>43</ele>
					<time>0001-01-01T00:00:00Z</time>
				</trkpt>
				<trkpt lat="59.73404" lon="5.29592">
					<ele>43</ele>
					<time>0001-01-01T00:00:00Z</time>
				</trkpt>
				<trkpt lat="59.73396" lon="5.29624">
					<ele>43</ele>
					<time>0001-01-01T00:00:00Z</time>
				</trkpt>
				<trkpt lat="59.73394" lon="5.29693">
					<ele>43</ele>
					<time>0001-01-01T00:00:00Z</time>
				</trkpt>
				<trkpt lat="59.73413" lon="5.29736">
					<ele>43</ele>
					<time>0001-01-01T00:00:00Z</time>
				</trkpt>
				<trkpt lat="59.73547" lon="5.29901">
					<ele>46</ele>
					<time>0001-01-01T00:00:00Z</time>
				</trkpt>
				<trkpt lat="59.73661" lon="5.30032">
					<ele>48</ele>
					<time>0001-01-01T00:00:00Z</time>
				</trkpt>
				<trkpt lat="59.73747" lon="5.30136">
					<ele>47</ele>
					<time>0001-01-01T00:00:00Z</time>
				</trkpt>
				<trkpt lat="59.73878" lon="5.30291">
					<ele>43</ele>
					<time>0001-01-01T00:00:00Z</time>
				</trkpt>
				<trkpt lat="59.73998" lon="5.30438">
					<ele>46</ele>
					<time>0001-01-01T00:00:00Z</time>
				</trkpt>
				<trkpt lat="59.74102" lon="5.30621">
					<ele>39</ele>
					<time>0001-01-01T00:00:00Z</time>
				</trkpt>
				<trkpt lat="59.74262" lon="5.30951">
					<ele>35</ele>
					<time>0001-01-01T00:00:00Z</time>
				</trkpt>
				<trkpt lat="59.74398" lon="5.31085">
					<ele>30</ele>
					<time>0001-01-01T00:00:00Z</time>
				</trkpt>
				<trkpt lat="59.74430" lon="5.31224">
					<ele>27</ele>
					<time>0001-01-01T00:00:00Z</time>
				</trkpt>
				<trkpt lat="59.74436" lon="5.31332">
					<ele>25</ele>
					<time>0001-01-01T00:00:00Z</time>
				</trkpt>
				<trkpt lat="59.74465" lon="5.31443">
					<ele>21</ele>
					<time>0001-01-01T00:00:00Z</time>
				</trkpt>
				<trkpt lat="59.74501" lon="5.31505">
					<ele>18</ele>
					<time>0001-01-01T00:00:00Z</time>
				</trkpt>
				<trkpt lat="59.74599" lon="5.31588">
					<ele>9</ele>
					<time>0001-01-01T00:00:00Z</time>
				</trkpt>
				<trkpt lat="59.74643" lon="5.31721">
					<ele>8</ele>
					<time>0001-01-01T00:00:00Z</time>
				</trkpt>
				<trkpt lat="59.74648" lon="5.31806">
					<ele>7</ele>
					<time>0001-01-01T00:00:00Z</time>
				</trkpt>
				<trkpt lat="59.74714" lon="5.32014">
					<ele>9</ele>
					<time>0001-01-01T00:00:00Z</time>
				</trkpt>
				<trkpt lat="59.74736" lon="5.32072">
					<ele>10</ele>
					<time>0001-01-01T00:00:00Z</time>
				</trkpt>
				<trkpt lat="59.74723" lon="5.32147">
					<ele>11</ele>
					<time>0001-01-01T00:00:00Z</time>
				</trkpt>
				<trkpt lat="59.74715" lon="5.32151">
					<ele>11</ele>
					<time>0001-01-01T00:00:00Z</time>
				</trkpt>
				<trkpt lat="59.74666" lon="5.32163">
					<ele>16</ele>
					<time>0001-01-01T00:00:00Z</time>
				</trkpt>
				<trkpt lat="59.74628" lon="5.32149">
					<ele>20</ele>
					<time>0001-01-01T00:00:00Z</time>
				</trkpt>
				<trkpt lat="59.74582" lon="5.32087">
					<ele>28</ele>
					<time>0001-01-01T00:00:00Z</time>
				</trkpt>
				<trkpt lat="59.74523" lon="5.32040">
					<ele>35</ele>
					<time>0001-01-01T00:00:00Z</time>
				</trkpt>
				<trkpt lat="59.74462" lon="5.32071">
					<ele>40</ele>
					<time>0001-01-01T00:00:00Z</time>
				</trkpt>
				<trkpt lat="59.74390" lon="5.32165">
					<ele>41</ele>
					<time>0001-01-01T00:00:00Z</time>
				</trkpt>
				<trkpt lat="59.74290" lon="5.32295">
					<ele>49</ele>
					<time>0001-01-01T00:00:00Z</time>
				</trkpt>
				<trkpt lat="59.74184" lon="5.32374">
					<ele>50</ele>
					<time>0001-01-01T00:00:00Z</time>
				</trkpt>
				<trkpt lat="59.74025" lon="5.32454">
					<ele>49</ele>
					<time>0001-01-01T00:00:00Z</time>
				</trkpt>
				<trkpt lat="59.73889" lon="5.32543">
					<ele>45</ele>
					<time>0001-01-01T00:00:00Z</time>
				</trkpt>
				<trkpt lat="59.73785" lon="5.32626">
					<ele>33</ele>
					<time>0001-01-01T00:00:00Z</time>
				</trkpt>
				<trkpt lat="59.73614" lon="5.32797">
					<ele>28</ele>
					<time>0001-01-01T00:00:00Z</time>
				</trkpt>
				<trkpt lat="59.73472" lon="5.32986">
					<ele>29</ele>
					<time>0001-01-01T00:00:00Z</time>
				</trkpt>
				<trkpt lat="59.73328" lon="5.33207">
					<ele>24</ele>
					<time>0001-01-01T00:00:00Z</time>
				</trkpt>
				<trkpt lat="59.73195" lon="5.33347">
					<ele>23</ele>
					<time>0001-01-01T00:00:00Z</time>
				</trkpt>
				<trkpt lat="59.73165" lon="5.33351">
					<ele>23</ele>
					<time>0001-01-01T00:00:00Z</time>
				</trkpt>
				<trkpt lat="59.73151" lon="5.33347">
					<ele>24</ele>
					<time>0001-01-01T00:00:00Z</time>
				</trkpt>
				<trkpt lat="59.73135" lon="5.33378">
					<ele>25</ele>
					<time>0001-01-01T00:00:00Z</time>
				</trkpt>
				<trkpt lat="59.73135" lon="5.33402">
					<ele>25</ele>
					<time>0001-01-01T00:00:00Z</time>
				</trkpt>
				<trkpt lat="59.73169" lon="5.33400">
					<ele>25</ele>
					<time>0001-01-01T00:00:00Z</time>
				</trkpt>
				<trkpt lat="59.73205" lon="5.33414">
					<ele>26</ele>
					<time>0001-01-01T00:00:00Z</time>
				</trkpt>
				<trkpt lat="59.73252" lon="5.33570">
					<ele>28</ele>
					<time>0001-01-01T00:00:00Z</time>
				</trkpt>
				<trkpt lat="59.73274" lon="5.33608">
					<ele>30</ele>
					<time>0001-01-01T00:00:00Z</time>
				</trkpt>
				<trkpt lat="59.73372" lon="5.33685">
					<ele>28</ele>
					<time>0001-01-01T00:00:00Z</time>
				</trkpt>
				<trkpt lat="59.73426" lon="5.33837">
					<ele>28</ele>
					<time>0001-01-01T00:00:00Z</time>
				</trkpt>
				<trkpt lat="59.73478" lon="5.34218">
					<ele>23</ele>
					<time>0001-01-01T00:00:00Z</time>
				</trkpt>
				<trkpt lat="59.73543" lon="5.34414">
					<ele>14</ele>
					<time>0001-01-01T00:00:00Z</time>
				</trkpt>
				<trkpt lat="59.73576" lon="5.34449">
					<ele>13</ele>
					<time>0001-01-01T00:00:00Z</time>
				</trkpt>
				<trkpt lat="59.73643" lon="5.34481">
					<ele>11</ele>
					<time>0001-01-01T00:00:00Z</time>
				</trkpt>
				<trkpt lat="59.73682" lon="5.34554">
					<ele>9</ele>
					<time>0001-01-01T00:00:00Z</time>
				</trkpt>
				<trkpt lat="59.73691" lon="5.34607">
					<ele>10</ele>
					<time>0001-01-01T00:00:00Z</time>
				</trkpt>
				<trkpt lat="59.73676" lon="5.34629">
					<ele>9</ele>
					<time>0001-01-01T00:00:00Z</time>
				</trkpt>
				<trkpt lat="59.73561" lon="5.34719">
					<ele>7</ele>
					<time>0001-01-01T00:00:00Z</time>
				</trkpt>
				<trkpt lat="59.73474" lon="5.34882">
					<ele>9</ele>
					<time>0001-01-01T00:00:00Z</time>
				</trkpt>
				<trkpt lat="59.73322" lon="5.35241">
					<ele>9</ele>
					<time>0001-01-01T00:00:00Z</time>
				</trkpt>
				<trkpt lat="59.73248" lon="5.35424">
					<ele>7</ele>
					<time>0001-01-01T00:00:00Z</time>
				</trkpt>
				<trkpt lat="59.73232" lon="5.35501">
					<ele>7</ele>
					<time>0001-01-01T00:00:00Z</time>
				</trkpt>
				<trkpt lat="59.73208" lon="5.35717">
					<ele>11</ele>
					<time>0001-01-01T00:00:00Z</time>
				</trkpt>
				<trkpt lat="59.73247" lon="5.35923">
					<ele>13</ele>
					<time>0001-01-01T00:00:00Z</time>
				</trkpt>
				<trkpt lat="59.73344" lon="5.36090">
					<ele>15</ele>
					<time>0001-01-01T00:00:00Z</time>
				</trkpt>
				<trkpt lat="59.73496" lon="5.36309">
					<ele>15</ele>
					<time>0001-01-01T00:00:00Z</time>
				</trkpt>
				<trkpt lat="59.73606" lon="5.36525">
					<ele>16</ele>
					<time>0001-01-01T00:00:00Z</time>
				</trkpt>
				<trkpt lat="59.73647" lon="5.36725">
					<ele>22</ele>
					<time>0001-01-01T00:00:00Z</time>
				</trkpt>
				<trkpt lat="59.73658" lon="5.36909">
					<ele>28</ele>
					<time>0001-01-01T00:00:00Z</time>
				</trkpt>
				<trkpt lat="59.73667" lon="5.37057">
					<ele>33</ele>
					<time>0001-01-01T00:00:00Z</time>
				</trkpt>
				<trkpt lat="59.73678" lon="5.37241">
					<ele>39</ele>
					<time>0001-01-01T00:00:00Z</time>
				</trkpt>
				<trkpt lat="59.73693" lon="5.37504">
					<ele>44</ele>
					<time>0001-01-01T00:00:00Z</time>
				</trkpt>
				<trkpt lat="59.73711" lon="5.37833">
					<ele>46</ele>
					<time>0001-01-01T00:00:00Z</time>
				</trkpt>
				<trkpt lat="59.73726" lon="5.38110">
					<ele>42</ele>
					<time>0001-01-01T00:00:00Z</time>
				</trkpt>
				<trkpt lat="59.73750" lon="5.38520">
					<ele>29</ele>
					<time>0001-01-01T00:00:00Z</time>
				</trkpt>
				<trkpt lat="59.73741" lon="5.38930">
					<ele>19</ele>
					<time>0001-01-01T00:00:00Z</time>
				</trkpt>
				<trkpt lat="59.73731" lon="5.39035">
					<ele>18</ele>
					<time>0001-01-01T00:00:00Z</time>
				</trkpt>
				<trkpt lat="59.73709" lon="5.39324">
					<ele>15</ele>
					<time>0001-01-01T00:00:00Z</time>
				</trkpt>
				<trkpt lat="59.73760" lon="5.39585">
					<ele>12</ele>
					<time>0001-01-01T00:00:00Z</time>
				</trkpt>
				<trkpt lat="59.73892" lon="5.39860">
					<ele>9</ele>
					<time>0001-01-01T00:00:00Z</time>
				</trkpt>
				<trkpt lat="59.74016" lon="5.40121">
					<ele>11</ele>
					<time>0001-01-01T00:00:00Z</time>
				</trkpt>
				<trkpt lat="59.74075" lon="5.40324">
					<ele>11</ele>
					<time>0001-01-01T00:00:00Z</time>
				</trkpt>
				<trkpt lat="59.74093" lon="5.40369">
					<ele>11</ele>
					<time>0001-01-01T00:00:00Z</time>
				</trkpt>
				<trkpt lat="59.74143" lon="5.40375">
					<ele>11</ele>
					<time>0001-01-01T00:00:00Z</time>
				</trkpt>
				<trkpt lat="59.74152" lon="5.40356">
					<ele>11</ele>
					<time>0001-01-01T00:00:00Z</time>
				</trkpt>
				<trkpt lat="59.74250" lon="5.40186">
					<ele>14</ele>
					<time>0001-01-01T00:00:00Z</time>
				</trkpt>
				<trkpt lat="59.74381" lon="5.40114">
					<ele>18</ele>
					<time>0001-01-01T00:00:00Z</time>
				</trkpt>
				<trkpt lat="59.74520" lon="5.40172">
					<ele>22</ele>
					<time>0001-01-01T00:00:00Z</time>
				</trkpt>
				<trkpt lat="59.74660" lon="5.40227">
					<ele>25</ele>
					<time>0001-01-01T00:00:00Z</time>
				</trkpt>
				<trkpt lat="59.74854" lon="5.40313">
					<ele>28</ele>
					<time>0001-01-01T00:00:00Z</time>
				</trkpt>
				<trkpt lat="59.75027" lon="5.40391">
					<ele>26</ele>
					<time>0001-01-01T00:00:00Z</time>
				</trkpt>
				<trkpt lat="59.75301" lon="5.40535">
					<ele>23</ele>
					<time>0001-01-01T00:00:00Z</time>
				</trkpt>
				<trkpt lat="59.75420" lon="5.40574">
					<ele>27</ele>
					<time>0001-01-01T00:00:00Z</time>
				</trkpt>
				<trkpt lat="59.75526" lon="5.40620">
					<ele>32</ele>
					<time>0001-01-01T00:00:00Z</time>
				</trkpt>
				<trkpt lat="59.75625" lon="5.40678">
					<ele>37</ele>
					<time>0001-01-01T00:00:00Z</time>
				</trkpt>
				<trkpt lat="59.75737" lon="5.40770">
					<ele>42</ele>
					<time>0001-01-01T00:00:00Z</time>
				</trkpt>
				<trkpt lat="59.75860" lon="5.40902">
					<ele>48</ele>
					<time>0001-01-01T00:00:00Z</time>
				</trkpt>
				<trkpt lat="59.75987" lon="5.41085">
					<ele>49</ele>
					<time>0001-01-01T00:00:00Z</time>
				</trkpt>
				<trkpt lat="59.76060" lon="5.41266">
					<ele>47</ele>
					<time>0001-01-01T00:00:00Z</time>
				</trkpt>
				<trkpt lat="59.76093" lon="5.41536">
					<ele>42</ele>
					<time>0001-01-01T00:00:00Z</time>
				</trkpt>
				<trkpt lat="59.76060" lon="5.41850">
					<ele>36</ele>
					<time>0001-01-01T00:00:00Z</time>
				</trkpt>
				<trkpt lat="59.76025" lon="5.42317">
					<ele>29</ele>
					<time>0001-01-01T00:00:00Z</time>
				</trkpt>
				<trkpt lat="59.76054" lon="5.42700">
					<ele>27</ele>
					<time>0001-01-01T00:00:00Z</time>
				</trkpt>
				<trkpt lat="59.76108" lon="5.43087">
					<ele>29</ele>
					<time>0001-01-01T00:00:00Z</time>
				</trkpt>
				<trkpt lat="59.76106" lon="5.43424">
					<ele>30</ele>
					<time>0001-01-01T00:00:00Z</time>
				</trkpt>
				<trkpt lat="59.76051" lon="5.43800">
					<ele>32</ele>
					<time>0001-01-01T00:00:00Z</time>
				</trkpt>
				<trkpt lat="59.75993" lon="5.44105">
					<ele>34</ele>
					<time>0001-01-01T00:00:00Z</time>
				</trkpt>
				<trkpt lat="59.75970" lon="5.44387">
					<ele>36</ele>
					<time>0001-01-01T00:00:00Z</time>
				</trkpt>
				<trkpt lat="59.76001" lon="5.44627">
					<ele>40</ele>
					<time>0001-01-01T00:00:00Z</time>
				</trkpt>
				<trkpt lat="59.76074" lon="5.44807">
					<ele>43</ele>
					<time>0001-01-01T00:00:00Z</time>
				</trkpt>
				<trkpt lat="59.76102" lon="5.44845">
					<ele>41</ele>
					<time>0001-01-01T00:00:00Z</time>
				</trkpt>
				<trkpt lat="59.76104" lon="5.44945">
					<ele>40</ele>
					<time>0001-01-01T00:00:00Z</time>
				</trkpt>
				<trkpt lat="59.76100" lon="5.44926">
					<ele>40</ele>
					<time>0001-01-01T00:00:00Z</time>
				</trkpt>
				<trkpt lat="59.76101" lon="5.44922">
					<ele>42</ele>
					<time>0001-01-01T00:00:00Z</time>
				</trkpt>
				<trkpt lat="59.76118" lon="5.44965">
					<ele>43</ele>
					<time>0001-01-01T00:00:00Z</time>
				</trkpt>
				<trkpt lat="59.76200" lon="5.45081">
					<ele>51</ele>
					<time>0001-01-01T00:00:00Z</time>
				</trkpt>
				<trkpt lat="59.76290" lon="5.45253">
					<ele>51</ele>
					<time>0001-01-01T00:00:00Z</time>
				</trkpt>
				<trkpt lat="59.76386" lon="5.45458">
					<ele>47</ele>
					<time>0001-01-01T00:00:00Z</time>
				</trkpt>
				<trkpt lat="59.76374" lon="5.45535">
					<ele>51</ele>
					<time>0001-01-01T00:00:00Z</time>
				</trkpt>
				<trkpt lat="59.76364" lon="5.45492">
					<ele>53</ele>
					<time>0001-01-01T00:00:00Z</time>
				</trkpt>
				<trkpt lat="59.76370" lon="5.45479">
					<ele>53</ele>
					<time>0001-01-01T00:00:00Z</time>
				</trkpt>
				<trkpt lat="59.76425" lon="5.45406">
					<ele>53</ele>
					<time>0001-01-01T00:00:00Z</time>
				</trkpt>
				<trkpt lat="59.76431" lon="5.45279">
					<ele>52</ele>
					<time>0001-01-01T00:00:00Z</time>
				</trkpt>
				<trkpt lat="59.76453" lon="5.44966">
					<ele>48</ele>
					<time>0001-01-01T00:00:00Z</time>
				</trkpt>
				<trkpt lat="59.76462" lon="5.44862">
					<ele>50</ele>
					<time>0001-01-01T00:00:00Z</time>
				</trkpt>
				<trkpt lat="59.76532" lon="5.44654">
					<ele>53</ele>
					<time>0001-01-01T00:00:00Z</time>
				</trkpt>
				<trkpt lat="59.76538" lon="5.44642">
					<ele>53</ele>
					<time>0001-01-01T00:00:00Z</time>
				</trkpt>
				<trkpt lat="59.76609" lon="5.44360">
					<ele>53</ele>
					<time>0001-01-01T00:00:00Z</time>
				</trkpt>
				<trkpt lat="59.76617" lon="5.44331">
					<ele>53</ele>
					<time>0001-01-01T00:00:00Z</time>
				</trkpt>
				<trkpt lat="59.76702" lon="5.44172">
					<ele>57</ele>
					<time>0001-01-01T00:00:00Z</time>
				</trkpt>
				<trkpt lat="59.76757" lon="5.44111">
					<ele>57</ele>
					<time>0001-01-01T00:00:00Z</time>
				</trkpt>
				<trkpt lat="59.76847" lon="5.43821">
					<ele>53</ele>
					<time>0001-01-01T00:00:00Z</time>
				</trkpt>
				<trkpt lat="59.76884" lon="5.43764">
					<ele>50</ele>
					<time>0001-01-01T00:00:00Z</time>
				</trkpt>
				<trkpt lat="59.76934" lon="5.43726">
					<ele>49</ele>
					<time>0001-01-01T00:00:00Z</time>
				</trkpt>
				<trkpt lat="59.76970" lon="5.43668">
					<ele>47</ele>
					<time>0001-01-01T00:00:00Z</time>
				</trkpt>
				<trkpt lat="59.76980" lon="5.43523">
					<ele>46</ele>
					<time>0001-01-01T00:00:00Z</time>
				</trkpt>
				<trkpt lat="59.76949" lon="5.43446">
					<ele>46</ele>
					<time>0001-01-01T00:00:00Z</time>
				</trkpt>
				<trkpt lat="59.76821" lon="5.43324">
					<ele>42</ele>
					<time>0001-01-01T00:00:00Z</time>
				</trkpt>
				<trkpt lat="59.76804" lon="5.43224">
					<ele>41</ele>
					<time>0001-01-01T00:00:00Z</time>
				</trkpt>
				<trkpt lat="59.76820" lon="5.43220">
					<ele>41</ele>
					<time>0001-01-01T00:00:00Z</time>
				</trkpt>
				<trkpt lat="59.76830" lon="5.43194">
					<ele>42</ele>
					<time>0001-01-01T00:00:00Z</time>
				</trkpt>
				<trkpt lat="59.76819" lon="5.43084">
					<ele>42</ele>
					<time>0001-01-01T00:00:00Z</time>
				</trkpt>
				<trkpt lat="59.76797" lon="5.43066">
					<ele>42</ele>
					<time>0001-01-01T00:00:00Z</time>
				</trkpt>
				<trkpt lat="59.76762" lon="5.43037">
					<ele>41</ele>
					<time>0001-01-01T00:00:00Z</time>
				</trkpt>
				<trkpt lat="59.76691" lon="5.42946">
					<ele>40</ele>
					<time>0001-01-01T00:00:00Z</time>
				</trkpt>
				<trkpt lat="59.76665" lon="5.42884">
					<ele>39</ele>
					<time>0001-01-01T00:00:00Z</time>
				</trkpt>
				<trkpt lat="59.76640" lon="5.42774">
					<ele>38</ele>
					<time>0001-01-01T00:00:00Z</time>
				</trkpt>
				<trkpt lat="59.76648" lon="5.42684">
					<ele>37</ele>
					<time>0001-01-01T00:00:00Z</time>
				</trkpt>
				<trkpt lat="59.76685" lon="5.42521">
					<ele>32</ele>
					<time>0001-01-01T00:00:00Z</time>
				</trkpt>
				<trkpt lat="59.76718" lon="5.42461">
					<ele>30</ele>
					<time>0001-01-01T00:00:00Z</time>
				</trkpt>
				<trkpt lat="59.76763" lon="5.42332">
					<ele>25</ele>
					<time>0001-01-01T00:00:00Z</time>
				</trkpt>
				<trkpt lat="59.76776" lon="5.41960">
					<ele>20</ele>
					<time>0001-01-01T00:00:00Z</time>
				</trkpt>
				<trkpt lat="59.76805" lon="5.41735">
					<ele>19</ele>
					<time>0001-01-01T00:00:00Z</time>
				</trkpt>
				<trkpt lat="59.76840" lon="5.41548">
					<ele>20</ele>
					<time>0001-01-01T00:00:00Z</time>
				</trkpt>
				<trkpt lat="59.76862" lon="5.41496">
					<ele>20</ele>
					<time>0001-01-01T00:00:00Z</time>
				</trkpt>
				<trkpt lat="59.76988" lon="5.41256">
					<ele>22</ele>
					<time>0001-01-01T00:00:00Z</time>
				</trkpt>
				<trkpt lat="59.77066" lon="5.41088">
					<ele>22</ele>
					<time>0001-01-01T00:00:00Z</time>
				</trkpt>
				<trkpt lat="59.77182" lon="5.40610">
					<ele>24</ele>
					<time>0001-01-01T00:00:00Z</time>
				</trkpt>
				<trkpt lat="59.77255" lon="5.40332">
					<ele>25</ele>
					<time>0001-01-01T00:00:00Z</time>
				</trkpt>
				<trkpt lat="59.77340" lon="5.40135">
					<ele>19</ele>
					<time>0001-01-01T00:00:00Z</time>
				</trkpt>
				<trkpt lat="59.77354" lon="5.40000">
					<ele>18</ele>
					<time>0001-01-01T00:00:00Z</time>
				</trkpt>
				<trkpt lat="59.77410" lon="5.39754">
					<ele>17</ele>
					<time>0001-01-01T00:00:00Z</time>
				</trkpt>
				<trkpt lat="59.77425" lon="5.39712">
					<ele>18</ele>
					<time>0001-01-01T00:00:00Z</time>
				</trkpt>
				<trkpt lat="59.77464" lon="5.39530">
					<ele>21</ele>
					<time>0001-01-01T00:00:00Z</time>
				</trkpt>
				<trkpt lat="59.77492" lon="5.39447">
					<ele>20</ele>
					<time>0001-01-01T00:00:00Z</time>
				</trkpt>
				<trkpt lat="59.77554" lon="5.39340">
					<ele>21</ele>
					<time>0001-01-01T00:00:00Z</time>
				</trkpt>
				<trkpt lat="59.77612" lon="5.39343">
					<ele>18</ele>
					<time>0001-01-01T00:00:00Z</time>
				</trkpt>
				<trkpt lat="59.77618" lon="5.39372">
					<ele>18</ele>
					<time>0001-01-01T00:00:00Z</time>
				</trkpt>
				<trkpt lat="59.77622" lon="5.39402">
					<ele>18</ele>
					<time>0001-01-01T00:00:00Z</time>
				</trkpt>
				<trkpt lat="59.77631" lon="5.39472">
					<ele>18</ele>
					<time>0001-01-01T00:00:00Z</time>
				</trkpt>
				<trkpt lat="59.77724" lon="5.39510">
					<ele>17</ele>
					<time>0001-01-01T00:00:00Z</time>
				</trkpt>
				<trkpt lat="59.77771" lon="5.39546">
					<ele>20</ele>
					<time>0001-01-01T00:00:00Z</time>
				</trkpt>
				<trkpt lat="59.77816" lon="5.39617">
					<ele>23</ele>
					<time>0001-01-01T00:00:00Z</time>
				</trkpt>
				<trkpt lat="59.77867" lon="5.39666">
					<ele>24</ele>
					<time>0001-01-01T00:00:00Z</time>
				</trkpt>
				<trkpt lat="59.77907" lon="5.39665">
					<ele>25</ele>
					<time>0001-01-01T00:00:00Z</time>
				</trkpt>
				<trkpt lat="59.77937" lon="5.39581">
					<ele>24</ele>
					<time>0001-01-01T00:00:00Z</time>
				</trkpt>
				<trkpt lat="59.77931" lon="5.39462">
					<ele>23</ele>
					<time>0001-01-01T00:00:00Z</time>
				</trkpt>
				<trkpt lat="59.77931" lon="5.39426">
					<ele>23</ele>
					<time>0001-01-01T00:00:00Z</time>
				</trkpt>
				<trkpt lat="59.77969" lon="5.39214">
					<ele>26</ele>
					<time>0001-01-01T00:00:00Z</time>
				</trkpt>
				<trkpt lat="59.77980" lon="5.39176">
					<ele>26</ele>
					<time>0001-01-01T00:00:00Z</time>
				</trkpt>
				<trkpt lat="59.78061" lon="5.39001">
					<ele>30</ele>
					<time>0001-01-01T00:00:00Z</time>
				</trkpt>
				<trkpt lat="59.78088" lon="5.38910">
					<ele>32</ele>
					<time>0001-01-01T00:00:00Z</time>
				</trkpt>
				<trkpt lat="59.78121" lon="5.38863">
					<ele>33</ele>
					<time>0001-01-01T00:00:00Z</time>
				</trkpt>
				<trkpt lat="59.78135" lon="5.38799">
					<ele>34</ele>
					<time>0001-01-01T00:00:00Z</time>
				</trkpt>
				<trkpt lat="59.78146" lon="5.38472">
					<ele>40</ele>
					<time>0001-01-01T00:00:00Z</time>
				</trkpt>
				<trkpt lat="59.78148" lon="5.38462">
					<ele>40</ele>
					<time>0001-01-01T00:00:00Z</time>
				</trkpt>
				<trkpt lat="59.78186" lon="5.38343">
					<ele>45</ele>
					<time>0001-01-01T00:00:00Z</time>
				</trkpt>
				<trkpt lat="59.78189" lon="5.38324">
					<ele>46</ele>
					<time>0001-01-01T00:00:00Z</time>
				</trkpt>
				<trkpt lat="59.78196" lon="5.38265">
					<ele>47</ele>
					<time>0001-01-01T00:00:00Z</time>
				</trkpt>
				<trkpt lat="59.78199" lon="5.38197">
					<ele>49</ele>
					<time>0001-01-01T00:00:00Z</time>
				</trkpt>
				<trkpt lat="59.78213" lon="5.38089">
					<ele>53</ele>
					<time>0001-01-01T00:00:00Z</time>
				</trkpt>
				<trkpt lat="59.78214" lon="5.38073">
					<ele>53</ele>
					<time>0001-01-01T00:00:00Z</time>
				</trkpt>
				<trkpt lat="59.78215" lon="5.38049">
					<ele>53</ele>
					<time>0001-01-01T00:00:00Z</time>
				</trkpt>
				<trkpt lat="59.78216" lon="5.37941">
					<ele>56</ele>
					<time>0001-01-01T00:00:00Z</time>
				</trkpt>
				<trkpt lat="59.78255" lon="5.37733">
					<ele>57</ele>
					<time>0001-01-01T00:00:00Z</time>
				</trkpt>
				<trkpt lat="59.78259" lon="5.37722">
					<ele>58</ele>
					<time>0001-01-01T00:00:00Z</time>
				</trkpt>
				<trkpt lat="59.78381" lon="5.37476">
					<ele>62</ele>
					<time>0001-01-01T00:00:00Z</time>
				</trkpt>
				<trkpt lat="59.78410" lon="5.37447">
					<ele>64</ele>
					<time>0001-01-01T00:00:00Z</time>
				</trkpt>
				<trkpt lat="59.78551" lon="5.37415">
					<ele>58</ele>
					<time>0001-01-01T00:00:00Z</time>
				</trkpt>
				<trkpt lat="59.78584" lon="5.37403">
					<ele>55</ele>
					<time>0001-01-01T00:00:00Z</time>
				</trkpt>
				<trkpt lat="59.78624" lon="5.37353">
					<ele>51</ele>
					<time>0001-01-01T00:00:00Z</time>
				</trkpt>
				<trkpt lat="59.78652" lon="5.37305">
					<ele>49</ele>
					<time>0001-01-01T00:00:00Z</time>
				</trkpt>
				<trkpt lat="59.78816" lon="5.37223">
					<ele>34</ele>
					<time>0001-01-01T00:00:00Z</time>
				</trkpt>
				<trkpt lat="59.78889" lon="5.37186">
					<ele>32</ele>
					<time>0001-01-01T00:00:00Z</time>
				</trkpt>
				<trkpt lat="59.78954" lon="5.37192">
					<ele>32</ele>
					<time>0001-01-01T00:00:00Z</time>
				</trkpt>
				<trkpt lat="59.79000" lon="5.37204">
					<ele>34</ele>
					<time>0001-01-01T00:00:00Z</time>
				</trkpt>
				<trkpt lat="59.79037" lon="5.37229">
					<ele>35</ele>
					<time>0001-01-01T00:00:00Z</time>
				</trkpt>
				<trkpt lat="59.79106" lon="5.37304">
					<ele>40</ele>
					<time>0001-01-01T00:00:00Z</time>
				</trkpt>
				<trkpt lat="59.79134" lon="5.37296">
					<ele>42</ele>
					<time>0001-01-01T00:00:00Z</time>
				</trkpt>
				<trkpt lat="59.79209" lon="5.37216">
					<ele>47</ele>
					<time>0001-01-01T00:00:00Z</time>
				</trkpt>
				<trkpt lat="59.79264" lon="5.37264">
					<ele>51</ele>
					<time>0001-01-01T00:00:00Z</time>
				</trkpt>
				<trkpt lat="59.79343" lon="5.37370">
					<ele>57</ele>
					<time>0001-01-01T00:00:00Z</time>
				</trkpt>
				<trkpt lat="59.79419" lon="5.37502">
					<ele>65</ele>
					<time>0001-01-01T00:00:00Z</time>
				</trkpt>
				<trkpt lat="59.79477" lon="5.37673">
					<ele>72</ele>
					<time>0001-01-01T00:00:00Z</time>
				</trkpt>
				<trkpt lat="59.79523" lon="5.37813">
					<ele>79</ele>
					<time>0001-01-01T00:00:00Z</time>
				</trkpt>
				<trkpt lat="59.79587" lon="5.37987">
					<ele>79</ele>
					<time>0001-01-01T00:00:00Z</time>
				</trkpt>
				<trkpt lat="59.79658" lon="5.38204">
					<ele>72</ele>
					<time>0001-01-01T00:00:00Z</time>
				</trkpt>
				<trkpt lat="59.79663" lon="5.38225">
					<ele>71</ele>
					<time>0001-01-01T00:00:00Z</time>
				</trkpt>
				<trkpt lat="59.79683" lon="5.38356">
					<ele>68</ele>
					<time>0001-01-01T00:00:00Z</time>
				</trkpt>
				<trkpt lat="59.79712" lon="5.38411">
					<ele>66</ele>
					<time>0001-01-01T00:00:00Z</time>
				</trkpt>
				<trkpt lat="59.79754" lon="5.38405">
					<ele>65</ele>
					<time>0001-01-01T00:00:00Z</time>
				</trkpt>
				<trkpt lat="59.79811" lon="5.38405">
					<ele>62</ele>
					<time>0001-01-01T00:00:00Z</time>
				</trkpt>
				<trkpt lat="59.79832" lon="5.38424">
					<ele>60</ele>
					<time>0001-01-01T00:00:00Z</time>
				</trkpt>
				<trkpt lat="59.79897" lon="5.38408">
					<ele>59</ele>
					<time>0001-01-01T00:00:00Z</time>
				</trkpt>
				<trkpt lat="59.80068" lon="5.38234">
					<ele>59</ele>
					<time>0001-01-01T00:00:00Z</time>
				</trkpt>
				<trkpt lat="59.80262" lon="5.37940">
					<ele>56</ele>
					<time>0001-01-01T00:00:00Z</time>
				</trkpt>
				<trkpt lat="59.80279" lon="5.37926">
					<ele>56</ele>
					<time>0001-01-01T00:00:00Z</time>
				</trkpt>
				<trkpt lat="59.80337" lon="5.37913">
					<ele>57</ele>
					<time>0001-01-01T00:00:00Z</time>
				</trkpt>
				<trkpt lat="59.80375" lon="5.37891">
					<ele>58</ele>
					<time>0001-01-01T00:00:00Z</time>
				</trkpt>
				<trkpt lat="59.80474" lon="5.37810">
					<ele>59</ele>
					<time>0001-01-01T00:00:00Z</time>
				</trkpt>
				<trkpt lat="59.80556" lon="5.37639">
					<ele>60</ele>
					<time>0001-01-01T00:00:00Z</time>
				</trkpt>
				<trkpt lat="59.80673" lon="5.37398">
					<ele>57</ele>
					<time>0001-01-01T00:00:00Z</time>
				</trkpt>
				<trkpt lat="59.80787" lon="5.37136">
					<ele>57</ele>
					<time>0001-01-01T00:00:00Z</time>
				</trkpt>
				<trkpt lat="59.80864" lon="5.36818">
					<ele>57</ele>
					<time>0001-01-01T00:00:00Z</time>
				</trkpt>
				<trkpt lat="59.80873" lon="5.36790">
					<ele>57</ele>
					<time>0001-01-01T00:00:00Z</time>
				</trkpt>
				<trkpt lat="59.80939" lon="5.36744">
					<ele>56</ele>
					<time>0001-01-01T00:00:00Z</time>
				</trkpt>
				<trkpt lat="59.81076" lon="5.36763">
					<ele>58</ele>
					<time>0001-01-01T00:00:00Z</time>
				</trkpt>
				<trkpt lat="59.81185" lon="5.36744">
					<ele>58</ele>
					<time>0001-01-01T00:00:00Z</time>
				</trkpt>
				<trkpt lat="59.81232" lon="5.36693">
					<ele>57</ele>
					<time>0001-01-01T00:00:00Z</time>
				</trkpt>
				<trkpt lat="59.81268" lon="5.36637">
					<ele>56</ele>
					<time>0001-01-01T00:00:00Z</time>
				</trkpt>
				<trkpt lat="59.81319" lon="5.36605">
					<ele>56</ele>
					<time>0001-01-01T00:00:00Z</time>
				</trkpt>
				<trkpt lat="59.81467" lon="5.36542">
					<ele>52</ele>
					<time>0001-01-01T00:00:00Z</time>
				</trkpt>
				<trkpt lat="59.81591" lon="5.36452">
					<ele>52</ele>
					<time>0001-01-01T00:00:00Z</time>
				</trkpt>
				<trkpt lat="59.81767" lon="5.36405">
					<ele>50</ele>
					<time>0001-01-01T00:00:00Z</time>
				</trkpt>
				<trkpt lat="59.81937" lon="5.36387">
					<ele>48</ele>
					<time>0001-01-01T00:00:00Z</time>
				</trkpt>
				<trkpt lat="59.82094" lon="5.36446">
					<ele>49</ele>
					<time>0001-01-01T00:00:00Z</time>
				</trkpt>
				<trkpt lat="59.82295" lon="5.36290">
					<ele>47</ele>
					<time>0001-01-01T00:00:00Z</time>
				</trkpt>
				<trkpt lat="59.82400" lon="5.36132">
					<ele>44</ele>
					<time>0001-01-01T00:00:00Z</time>
				</trkpt>
				<trkpt lat="59.82463" lon="5.36068">
					<ele>42</ele>
					<time>0001-01-01T00:00:00Z</time>
				</trkpt>
				<trkpt lat="59.82598" lon="5.35941">
					<ele>39</ele>
					<time>0001-01-01T00:00:00Z</time>
				</trkpt>
				<trkpt lat="59.82636" lon="5.35916">
					<ele>38</ele>
					<time>0001-01-01T00:00:00Z</time>
				</trkpt>
				<trkpt lat="59.82694" lon="5.35834">
					<ele>37</ele>
					<time>0001-01-01T00:00:00Z</time>
				</trkpt>
				<trkpt lat="59.82710" lon="5.35811">
					<ele>36</ele>
					<time>0001-01-01T00:00:00Z</time>
				</trkpt>
				<trkpt lat="59.82775" lon="5.35848">
					<ele>34</ele>
					<time>0001-01-01T00:00:00Z</time>
				</trkpt>
				<trkpt lat="59.82783" lon="5.35862">
					<ele>34</ele>
					<time>0001-01-01T00:00:00Z</time>
				</trkpt>
				<trkpt lat="59.82841" lon="5.36010">
					<ele>34</ele>
					<time>0001-01-01T00:00:00Z</time>
				</trkpt>
				<trkpt lat="59.82900" lon="5.36001">
					<ele>33</ele>
					<time>0001-01-01T00:00:00Z</time>
				</trkpt>
				<trkpt lat="59.82970" lon="5.35969">
					<ele>32</ele>
					<time>0001-01-01T00:00:00Z</time>
				</trkpt>
				<trkpt lat="59.83020" lon="5.35963">
					<ele>31</ele>
					<time>0001-01-01T00:00:00Z</time>
				</trkpt>
				<trkpt lat="59.83090" lon="5.35949">
					<ele>30</ele>
					<time>0001-01-01T00:00:00Z</time>
				</trkpt>
				<trkpt lat="59.83153" lon="5.35963">
					<ele>30</ele>
					<time>0001-01-01T00:00:00Z</time>
				</trkpt>
				<trkpt lat="59.83194" lon="5.36040">
					<ele>29</ele>
					<time>0001-01-01T00:00:00Z</time>
				</trkpt>
				<trkpt lat="59.83210" lon="5.36060">
					<ele>29</ele>
					<time>0001-01-01T00:00:00Z</time>
				</trkpt>
				<trkpt lat="59.83231" lon="5.36092">
					<ele>30</ele>
					<time>0001-01-01T00:00:00Z</time>
				</trkpt>
				<trkpt lat="59.83307" lon="5.36129">
					<ele>34</ele>
					<time>0001-01-01T00:00:00Z</time>
				</trkpt>
				<trkpt lat="59.83324" lon="5.36161">
					<ele>34</ele>
					<time>0001-01-01T00:00:00Z</time>
				</trkpt>
				<trkpt lat="59.83337" lon="5.36223">
					<ele>33</ele>
					<time>0001-01-01T00:00:00Z</time>
				</trkpt>
				<trkpt lat="59.83412" lon="5.36426">
					<ele>37</ele>
					<time>0001-01-01T00:00:00Z</time>
				</trkpt>
				<trkpt lat="59.83432" lon="5.36462">
					<ele>40</ele>
					<time>0001-01-01T00:00:00Z</time>
				</trkpt>
				<trkpt lat="59.83439" lon="5.36465">
					<ele>53</ele>
					<time>0001-01-01T00:00:00Z</time>
				</trkpt>
				<trkpt lat="59.83466" lon="5.36496">
					<ele>56</ele>
					<time>0001-01-01T00:00:00Z</time>
				</trkpt>
				<trkpt lat="59.83478" lon="5.36527">
					<ele>57</ele>
					<time>0001-01-01T00:00:00Z</time>
				</trkpt>
				<trkpt lat="59.83526" lon="5.36528">
					<ele>55</ele>
					<time>0001-01-01T00:00:00Z</time>
				</trkpt>
				<trkpt lat="59.83554" lon="5.36491">
					<ele>54</ele>
					<time>0001-01-01T00:00:00Z</time>
				</trkpt>
				<trkpt lat="59.83578" lon="5.36443">
					<ele>54</ele>
					<time>0001-01-01T00:00:00Z</time>
				</trkpt>
				<trkpt lat="59.83586" lon="5.36419">
					<ele>55</ele>
					<time>0001-01-01T00:00:00Z</time>
				</trkpt>
				<trkpt lat="59.83656" lon="5.36294">
					<ele>59</ele>
					<time>0001-01-01T00:00:00Z</time>
				</trkpt>
				<trkpt lat="59.83761" lon="5.36351">
					<ele>63</ele>
					<time>0001-01-01T00:00:00Z</time>
				</trkpt>
				<trkpt lat="59.83766" lon="5.36353">
					<ele>63</ele>
					<time>0001-01-01T00:00:00Z</time>
				</trkpt>
				<trkpt lat="59.83852" lon="5.36336">
					<ele>65</ele>
					<time>0001-01-01T00:00:00Z</time>
				</trkpt>
				<trkpt lat="59.83906" lon="5.36234">
					<ele>63</ele>
					<time>0001-01-01T00:00:00Z</time>
				</trkpt>
				<trkpt lat="59.83917" lon="5.36148">
					<ele>62</ele>
					<time>0001-01-01T00:00:00Z</time>
				</trkpt>
				<trkpt lat="59.83945" lon="5.36090">
					<ele>62</ele>
					<time>0001-01-01T00:00:00Z</time>
				</trkpt>
				<trkpt lat="59.83981" lon="5.36048">
					<ele>60</ele>
					<time>0001-01-01T00:00:00Z</time>
				</trkpt>
				<trkpt lat="59.83981" lon="5.36046">
					<ele>66</ele>
					<time>0001-01-01T00:00:00Z</time>
				</trkpt>
				<trkpt lat="59.83994" lon="5.36027">
					<ele>65</ele>
					<time>0001-01-01T00:00:00Z</time>
				</trkpt>
				<trkpt lat="59.84049" lon="5.35957">
					<ele>64</ele>
					<time>0001-01-01T00:00:00Z</time>
				</trkpt>
				<trkpt lat="59.84115" lon="5.35848">
					<ele>61</ele>
					<time>0001-01-01T00:00:00Z</time>
				</trkpt>
				<trkpt lat="59.84149" lon="5.35829">
					<ele>59</ele>
					<time>0001-01-01T00:00:00Z</time>
				</trkpt>
				<trkpt lat="59.84167" lon="5.35823">
					<ele>58</ele>
					<time>0001-01-01T00:00:00Z</time>
				</trkpt>
				<trkpt lat="59.84215" lon="5.35765">
					<ele>55</ele>
					<time>0001-01-01T00:00:00Z</time>
				</trkpt>
				<trkpt lat="59.84279" lon="5.35621">
					<ele>51</ele>
					<time>0001-01-01T00:00:00Z</time>
				</trkpt>
				<trkpt lat="59.84302" lon="5.35584">
					<ele>51</ele>
					<time>0001-01-01T00:00:00Z</time>
				</trkpt>
				<trkpt lat="59.84513" lon="5.35558">
					<ele>47</ele>
					<time>0001-01-01T00:00:00Z</time>
				</trkpt>
				<trkpt lat="59.84642" lon="5.35545">
					<ele>47</ele>
					<time>0001-01-01T00:00:00Z</time>
				</trkpt>
				<trkpt lat="59.84677" lon="5.35526">
					<ele>47</ele>
					<time>0001-01-01T00:00:00Z</time>
				</trkpt>
				<trkpt lat="59.84734" lon="5.35490">
					<ele>45</ele>
					<time>0001-01-01T00:00:00Z</time>
				</trkpt>
				<trkpt lat="59.84759" lon="5.35456">
					<ele>45</ele>
					<time>0001-01-01T00:00:00Z</time>
				</trkpt>
				<trkpt lat="59.84892" lon="5.35221">
					<ele>46</ele>
					<time>0001-01-01T00:00:00Z</time>
				</trkpt>
				<trkpt lat="59.84941" lon="5.35152">
					<ele>46</ele>
					<time>0001-01-01T00:00:00Z</time>
				</trkpt>
				<trkpt lat="59.85117" lon="5.35028">
					<ele>43</ele>
					<time>0001-01-01T00:00:00Z</time>
				</trkpt>
				<trkpt lat="59.85300" lon="5.34937">
					<ele>38</ele>
					<time>0001-01-01T00:00:00Z</time>
				</trkpt>
				<trkpt lat="59.85496" lon="5.34868">
					<ele>40</ele>
					<time>0001-01-01T00:00:00Z</time>
				</trkpt>
				<trkpt lat="59.85569" lon="5.34985">
					<ele>40</ele>
					<time>0001-01-01T00:00:00Z</time>
				</trkpt>
				<trkpt lat="59.85623" lon="5.35013">
					<ele>41</ele>
					<time>0001-01-01T00:00:00Z</time>
				</trkpt>
				<trkpt lat="59.85753" lon="5.35013">
					<ele>44</ele>
					<time>0001-01-01T00:00:00Z</time>
				</trkpt>
				<trkpt lat="59.85866" lon="5.34961">
					<ele>46</ele>
					<time>0001-01-01T00:00:00Z</time>
				</trkpt>
				<trkpt lat="59.86078" lon="5.34989">
					<ele>44</ele>
					<time>0001-01-01T00:00:00Z</time>
				</trkpt>
				<trkpt lat="59.86238" lon="5.35010">
					<ele>49</ele>
					<time>0001-01-01T00:00:00Z</time>
				</trkpt>
				<trkpt lat="59.86397" lon="5.34977">
					<ele>46</ele>
					<time>0001-01-01T00:00:00Z</time>
				</trkpt>
				<trkpt lat="59.86655" lon="5.34885">
					<ele>45</ele>
					<time>0001-01-01T00:00:00Z</time>
				</trkpt>
				<trkpt lat="59.86877" lon="5.34787">
					<ele>43</ele>
					<time>0001-01-01T00:00:00Z</time>
				</trkpt>
				<trkpt lat="59.87084" lon="5.34702">
					<ele>46</ele>
					<time>0001-01-01T00:00:00Z</time>
				</trkpt>
				<trkpt lat="59.87253" lon="5.34641">
					<ele>44</ele>
					<time>0001-01-01T00:00:00Z</time>
				</trkpt>
				<trkpt lat="59.87465" lon="5.34561">
					<ele>43</ele>
					<time>0001-01-01T00:00:00Z</time>
				</trkpt>
				<trkpt lat="59.87617" lon="5.34507">
					<ele>47</ele>
					<time>0001-01-01T00:00:00Z</time>
				</trkpt>
				<trkpt lat="59.87732" lon="5.34485">
					<ele>52</ele>
					<time>0001-01-01T00:00:00Z</time>
				</trkpt>
				<trkpt lat="59.87748" lon="5.34481">
					<ele>53</ele>
					<time>0001-01-01T00:00:00Z</time>
				</trkpt>
				<trkpt lat="59.87775" lon="5.34480">
					<ele>54</ele>
					<time>0001-01-01T00:00:00Z</time>
				</trkpt>
				<trkpt lat="59.87885" lon="5.34615">
					<ele>58</ele>
					<time>0001-01-01T00:00:00Z</time>
				</trkpt>
				<trkpt lat="59.87926" lon="5.34655">
					<ele>60</ele>
					<time>0001-01-01T00:00:00Z</time>
				</trkpt>
				<trkpt lat="59.87940" lon="5.34659">
					<ele>61</ele>
					<time>0001-01-01T00:00:00Z</time>
				</trkpt>
				<trkpt lat="59.87985" lon="5.34657">
					<ele>63</ele>
					<time>0001-01-01T00:00:00Z</time>
				</trkpt>
				<trkpt lat="59.88082" lon="5.34559">
					<ele>64</ele>
					<time>0001-01-01T00:00:00Z</time>
				</trkpt>
				<trkpt lat="59.88146" lon="5.34382">
					<ele>62</ele>
					<time>0001-01-01T00:00:00Z</time>
				</trkpt>
				<trkpt lat="59.88156" lon="5.34346">
					<ele>62</ele>
					<time>0001-01-01T00:00:00Z</time>
				</trkpt>
				<trkpt lat="59.88247" lon="5.34180">
					<ele>58</ele>
					<time>0001-01-01T00:00:00Z</time>
				</trkpt>
				<trkpt lat="59.88258" lon="5.34166">
					<ele>58</ele>
					<time>0001-01-01T00:00:00Z</time>
				</trkpt>
				<trkpt lat="59.88302" lon="5.34036">
					<ele>52</ele>
					<time>0001-01-01T00:00:00Z</time>
				</trkpt>
				<trkpt lat="59.88333" lon="5.33829">
					<ele>49</ele>
					<time>0001-01-01T00:00:00Z</time>
				</trkpt>
				<trkpt lat="59.88415" lon="5.33639">
					<ele>50</ele>
					<time>0001-01-01T00:00:00Z</time>
				</trkpt>
				<trkpt lat="59.88447" lon="5.33611">
					<ele>51</ele>
					<time>0001-01-01T00:00:00Z</time>
				</trkpt>
				<trkpt lat="59.88647" lon="5.33550">
					<ele>49</ele>
					<time>0001-01-01T00:00:00Z</time>
				</trkpt>
				<trkpt lat="59.88909" lon="5.33434">
					<ele>45</ele>
					<time>0001-01-01T00:00:00Z</time>
				</trkpt>
				<trkpt lat="59.89113" lon="5.33299">
					<ele>37</ele>
					<time>0001-01-01T00:00:00Z</time>
				</trkpt>
				<trkpt lat="59.89125" lon="5.33296">
					<ele>37</ele>
					<time>0001-01-01T00:00:00Z</time>
				</trkpt>
				<trkpt lat="59.89371" lon="5.33349">
					<ele>27</ele>
					<time>0001-01-01T00:00:00Z</time>
				</trkpt>
				<trkpt lat="59.89510" lon="5.33436">
					<ele>22</ele>
					<time>0001-01-01T00:00:00Z</time>
				</trkpt>
				<trkpt lat="59.89560" lon="5.33500">
					<ele>22</ele>
					<time>0001-01-01T00:00:00Z</time>
				</trkpt>
				<trkpt lat="59.89695" lon="5.33583">
					<ele>20</ele>
					<time>0001-01-01T00:00:00Z</time>
				</trkpt>
				<trkpt lat="59.89791" lon="5.33701">
					<ele>27</ele>
					<time>0001-01-01T00:00:00Z</time>
				</trkpt>
				<trkpt lat="59.89856" lon="5.33734">
					<ele>29</ele>
					<time>0001-01-01T00:00:00Z</time>
				</trkpt>
				<trkpt lat="59.89992" lon="5.33726">
					<ele>34</ele>
					<time>0001-01-01T00:00:00Z</time>
				</trkpt>
				<trkpt lat="59.90147" lon="5.33722">
					<ele>31</ele>
					<time>0001-01-01T00:00:00Z</time>
				</trkpt>
				<trkpt lat="59.90281" lon="5.33708">
					<ele>32</ele>
					<time>0001-01-01T00:00:00Z</time>
				</trkpt>
				<trkpt lat="59.90297" lon="5.33703">
					<ele>34</ele>
					<time>0001-01-01T00:00:00Z</time>
				</trkpt>
				<trkpt lat="59.90435" lon="5.33597">
					<ele>39</ele>
					<time>0001-01-01T00:00:00Z</time>
				</trkpt>
				<trkpt lat="59.90574" lon="5.33489">
					<ele>42</ele>
					<time>0001-01-01T00:00:00Z</time>
				</trkpt>
				<trkpt lat="59.90713" lon="5.33389">
					<ele>45</ele>
					<time>0001-01-01T00:00:00Z</time>
				</trkpt>
				<trkpt lat="59.90838" lon="5.33291">
					<ele>46</ele>
					<time>0001-01-01T00:00:00Z</time>
				</trkpt>
				<trkpt lat="59.91018" lon="5.33148">
					<ele>49</ele>
					<time>0001-01-01T00:00:00Z</time>
				</trkpt>
				<trkpt lat="59.91213" lon="5.32993">
					<ele>51</ele>
					<time>0001-01-01T00:00:00Z</time>
				</trkpt>
				<trkpt lat="59.91355" lon="5.32827">
					<ele>49</ele>
					<time>0001-01-01T00:00:00Z</time>
				</trkpt>
				<trkpt lat="59.91534" lon="5.32564">
					<ele>39</ele>
					<time>0001-01-01T00:00:00Z</time>
				</trkpt>
				<trkpt lat="59.91635" lon="5.32413">
					<ele>34</ele>
					<time>0001-01-01T00:00:00Z</time>
				</trkpt>
				<trkpt lat="59.91710" lon="5.32162">
					<ele>27</ele>
					<time>0001-01-01T00:00:00Z</time>
				</trkpt>
				<trkpt lat="59.91774" lon="5.31785">
					<ele>16</ele>
					<time>0001-01-01T00:00:00Z</time>
				</trkpt>
				<trkpt lat="59.91782" lon="5.31715">
					<ele>13</ele>
					<time>0001-01-01T00:00:00Z</time>
				</trkpt>
				<trkpt lat="59.91822" lon="5.31701">
					<ele>11</ele>
					<time>0001-01-01T00:00:00Z</time>
				</trkpt>
				<trkpt lat="59.91826" lon="5.31713">
					<ele>11</ele>
					<time>0001-01-01T00:00:00Z</time>
				</trkpt>
				<trkpt lat="59.91934" lon="5.32010">
					<ele>14</ele>
					<time>0001-01-01T00:00:00Z</time>
				</trkpt>
				<trkpt lat="59.91985" lon="5.32271">
					<ele>15</ele>
					<time>0001-01-01T00:00:00Z</time>
				</trkpt>
				<trkpt lat="59.92001" lon="5.32615">
					<ele>18</ele>
					<time>0001-01-01T00:00:00Z</time>
				</trkpt>
				<trkpt lat="59.92017" lon="5.32856">
					<ele>20</ele>
					<time>0001-01-01T00:00:00Z</time>
				</trkpt>
				<trkpt lat="59.92026" lon="5.32898">
					<ele>20</ele>
					<time>0001-01-01T00:00:00Z</time>
				</trkpt>
				<trkpt lat="59.92045" lon="5.32944">
					<ele>21</ele>
					<time>0001-01-01T00:00:00Z</time>
				</trkpt>
				<trkpt lat="59.92155" lon="5.33112">
					<ele>24</ele>
					<time>0001-01-01T00:00:00Z</time>
				</trkpt>
				<trkpt lat="59.92184" lon="5.33133">
					<ele>25</ele>
					<time>0001-01-01T00:00:00Z</time>
				</trkpt>
				<trkpt lat="59.92385" lon="5.33172">
					<ele>31</ele>
					<time>0001-01-01T00:00:00Z</time>
				</trkpt>
				<trkpt lat="59.92583" lon="5.33200">
					<ele>35</ele>
					<time>0001-01-01T00:00:00Z</time>
				</trkpt>
				<trkpt lat="59.92751" lon="5.33242">
					<ele>36</ele>
					<time>0001-01-01T00:00:00Z</time>
				</trkpt>
				<trkpt lat="59.93185" lon="5.33535">
					<ele>41</ele>
					<time>0001-01-01T00:00:00Z</time>
				</trkpt>
				<trkpt lat="59.93343" lon="5.33558">
					<ele>43</ele>
					<time>0001-01-01T00:00:00Z</time>
				</trkpt>
				<trkpt lat="59.93537" lon="5.33593">
					<ele>48</ele>
					<time>0001-01-01T00:00:00Z</time>
				</trkpt>
				<trkpt lat="59.93688" lon="5.33630">
					<ele>52</ele>
					<time>0001-01-01T00:00:00Z</time>
				</trkpt>
				<trkpt lat="59.93765" lon="5.33695">
					<ele>52</ele>
					<time>0001-01-01T00:00:00Z</time>
				</trkpt>
				<trkpt lat="59.93843" lon="5.33700">
					<ele>50</ele>
					<time>0001-01-01T00:00:00Z</time>
				</trkpt>
				<trkpt lat="59.93913" lon="5.33680">
					<ele>49</ele>
					<time>0001-01-01T00:00:00Z</time>
				</trkpt>
				<trkpt lat="59.94271" lon="5.33422">
					<ele>50</ele>
					<time>0001-01-01T00:00:00Z</time>
				</trkpt>
				<trkpt lat="59.94431" lon="5.33374">
					<ele>51</ele>
					<time>0001-01-01T00:00:00Z</time>
				</trkpt>
				<trkpt lat="59.94664" lon="5.33225">
					<ele>53</ele>
					<time>0001-01-01T00:00:00Z</time>
				</trkpt>
				<trkpt lat="59.94838" lon="5.33112">
					<ele>53</ele>
					<time>0001-01-01T00:00:00Z</time>
				</trkpt>
				<trkpt lat="59.94982" lon="5.33031">
					<ele>54</ele>
					<time>0001-01-01T00:00:00Z</time>
				</trkpt>
				<trkpt lat="59.95158" lon="5.32824">
					<ele>56</ele>
					<time>0001-01-01T00:00:00Z</time>
				</trkpt>
				<trkpt lat="59.95317" lon="5.32652">
					<ele>56</ele>
					<time>0001-01-01T00:00:00Z</time>
				</trkpt>
				<trkpt lat="59.95405" lon="5.32671">
					<ele>55</ele>
					<time>0001-01-01T00:00:00Z</time>
				</trkpt>
				<trkpt lat="59.95563" lon="5.32840">
					<ele>59</ele>
					<time>0001-01-01T00:00:00Z</time>
				</trkpt>
				<trkpt lat="59.95668" lon="5.32955">
					<ele>61</ele>
					<time>0001-01-01T00:00:00Z</time>
				</trkpt>
				<trkpt lat="59.95802" lon="5.33123">
					<ele>58</ele>
					<time>0001-01-01T00:00:00Z</time>
				</trkpt>
				<trkpt lat="59.95938" lon="5.33339">
					<ele>54</ele>
					<time>0001-01-01T00:00:00Z</time>
				</trkpt>
				<trkpt lat="59.96055" lon="5.33528">
					<ele>51</ele>
					<time>0001-01-01T00:00:00Z</time>
				</trkpt>
				<trkpt lat="59.96132" lon="5.33551">
					<ele>50</ele>
					<time>0001-01-01T00:00:00Z</time>
				</trkpt>
				<trkpt lat="59.96236" lon="5.33450">
					<ele>56</ele>
					<time>0001-01-01T00:00:00Z</time>
				</trkpt>
				<trkpt lat="59.96313" lon="5.33411">
					<ele>58</ele>
					<time>0001-01-01T00:00:00Z</time>
				</trkpt>
				<trkpt lat="59.96341" lon="5.33471">
					<ele>58</ele>
					<time>0001-01-01T00:00:00Z</time>
				</trkpt>
				<trkpt lat="59.96424" lon="5.33820">
					<ele>62</ele>
					<time>0001-01-01T00:00:00Z</time>
				</trkpt>
				<trkpt lat="59.96446" lon="5.34129">
					<ele>55</ele>
					<time>0001-01-01T00:00:00Z</time>
				</trkpt>
				<trkpt lat="59.96463" lon="5.34193">
					<ele>54</ele>
					<time>0001-01-01T00:00:00Z</time>
				</trkpt>
				<trkpt lat="59.96473" lon="5.34210">
					<ele>54</ele>
					<time>0001-01-01T00:00:00Z</time>
				</trkpt>
				<trkpt lat="59.96479" lon="5.34215">
					<ele>54</ele>
					<time>0001-01-01T00:00:00Z</time>
				</trkpt>
				<trkpt lat="59.96497" lon="5.34195">
					<ele>53</ele>
					<time>0001-01-01T00:00:00Z</time>
				</trkpt>
				<trkpt lat="59.96589" lon="5.34041">
					<ele>42</ele>
					<time>0001-01-01T00:00:00Z</time>
				</trkpt>
				<trkpt lat="59.96615" lon="5.34011">
					<ele>40</ele>
					<time>0001-01-01T00:00:00Z</time>
				</trkpt>
				<trkpt lat="59.96643" lon="5.33975">
					<ele>37</ele>
					<time>0001-01-01T00:00:00Z</time>
				</trkpt>
				<trkpt lat="59.96647" lon="5.33971">
					<ele>39</ele>
					<time>0001-01-01T00:00:00Z</time>
				</trkpt>
				<trkpt lat="59.96659" lon="5.33950">
					<ele>38</ele>
					<time>0001-01-01T00:00:00Z</time>
				</trkpt>
				<trkpt lat="59.96671" lon="5.33928">
					<ele>35</ele>
					<time>0001-01-01T00:00:00Z</time>
				</trkpt>
				<trkpt lat="59.96673" lon="5.33925">
					<ele>34</ele>
					<time>0001-01-01T00:00:00Z</time>
				</trkpt>
				<trkpt lat="59.96729" lon="5.33811">
					<ele>26</ele>
					<time>0001-01-01T00:00:00Z</time>
				</trkpt>
				<trkpt lat="59.96767" lon="5.33682">
					<ele>18</ele>
					<time>0001-01-01T00:00:00Z</time>
				</trkpt>
				<trkpt lat="59.96803" lon="5.33471">
					<ele>8</ele>
					<time>0001-01-01T00:00:00Z</time>
				</trkpt>
				<trkpt lat="59.96826" lon="5.33443">
					<ele>8</ele>
					<time>0001-01-01T00:00:00Z</time>
				</trkpt>
				<trkpt lat="60.14599" lon="5.42720">
					<ele>-10</ele>
					<time>0001-01-01T00:00:00Z</time>
				</trkpt>
				<trkpt lat="60.14692" lon="5.42828">
					<ele>0</ele>
					<time>0001-01-01T00:00:00Z</time>
				</trkpt>
				<trkpt lat="60.14841" lon="5.42977">
					<ele>11</ele>
					<time>0001-01-01T00:00:00Z</time>
				</trkpt>
				<trkpt lat="60.14846" lon="5.42980">
					<ele>11</ele>
					<time>0001-01-01T00:00:00Z</time>
				</trkpt>
				<trkpt lat="60.14881" lon="5.42988">
					<ele>12</ele>
					<time>0001-01-01T00:00:00Z</time>
				</trkpt>
				<trkpt lat="60.14977" lon="5.42927">
					<ele>18</ele>
					<time>0001-01-01T00:00:00Z</time>
				</trkpt>
				<trkpt lat="60.15018" lon="5.42902">
					<ele>19</ele>
					<time>0001-01-01T00:00:00Z</time>
				</trkpt>
				<trkpt lat="60.15085" lon="5.42894">
					<ele>25</ele>
					<time>0001-01-01T00:00:00Z</time>
				</trkpt>
				<trkpt lat="60.15142" lon="5.42955">
					<ele>31</ele>
					<time>0001-01-01T00:00:00Z</time>
				</trkpt>
				<trkpt lat="60.15196" lon="5.43081">
					<ele>40</ele>
					<time>0001-01-01T00:00:00Z</time>
				</trkpt>
				<trkpt lat="60.15269" lon="5.43187">
					<ele>44</ele>
					<time>0001-01-01T00:00:00Z</time>
				</trkpt>
				<trkpt lat="60.15377" lon="5.43274">
					<ele>50</ele>
					<time>0001-01-01T00:00:00Z</time>
				</trkpt>
				<trkpt lat="60.15467" lon="5.43398">
					<ele>53</ele>
					<time>0001-01-01T00:00:00Z</time>
				</trkpt>
				<trkpt lat="60.15545" lon="5.43495">
					<ele>54</ele>
					<time>0001-01-01T00:00:00Z</time>
				</trkpt>
				<trkpt lat="60.15687" lon="5.43536">
					<ele>54</ele>
					<time>0001-01-01T00:00:00Z</time>
				</trkpt>
				<trkpt lat="60.15911" lon="5.43578">
					<ele>54</ele>
					<time>0001-01-01T00:00:00Z</time>
				</trkpt>
				<trkpt lat="60.16123" lon="5.43706">
					<ele>52</ele>
					<time>0001-01-01T00:00:00Z</time>
				</trkpt>
				<trkpt lat="60.16202" lon="5.43756">
					<ele>52</ele>
					<time>0001-01-01T00:00:00Z</time>
				</trkpt>
				<trkpt lat="60.16318" lon="5.43827">
					<ele>55</ele>
					<time>0001-01-01T00:00:00Z</time>
				</trkpt>
				<trkpt lat="60.16506" lon="5.43981">
					<ele>53</ele>
					<time>0001-01-01T00:00:00Z</time>
				</trkpt>
				<trkpt lat="60.16641" lon="5.44116">
					<ele>56</ele>
					<time>0001-01-01T00:00:00Z</time>
				</trkpt>
				<trkpt lat="60.16786" lon="5.44171">
					<ele>58</ele>
					<time>0001-01-01T00:00:00Z</time>
				</trkpt>
				<trkpt lat="60.16958" lon="5.44326">
					<ele>58</ele>
					<time>0001-01-01T00:00:00Z</time>
				</trkpt>
				<trkpt lat="60.17067" lon="5.44463">
					<ele>60</ele>
					<time>0001-01-01T00:00:00Z</time>
				</trkpt>
				<trkpt lat="60.17100" lon="5.44454">
					<ele>62</ele>
					<time>0001-01-01T00:00:00Z</time>
				</trkpt>
				<trkpt lat="60.17157" lon="5.44306">
					<ele>63</ele>
					<time>0001-01-01T00:00:00Z</time>
				</trkpt>
				<trkpt lat="60.17170" lon="5.44274">
					<ele>62</ele>
					<time>0001-01-01T00:00:00Z</time>
				</trkpt>
				<trkpt lat="60.17203" lon="5.44220">
					<ele>64</ele>
					<time>0001-01-01T00:00:00Z</time>
				</trkpt>
				<trkpt lat="60.17196" lon="5.44151">
					<ele>63</ele>
					<time>0001-01-01T00:00:00Z</time>
				</trkpt>
				<trkpt lat="60.17062" lon="5.43889">
					<ele>60</ele>
					<time>0001-01-01T00:00:00Z</time>
				</trkpt>
				<trkpt lat="60.16957" lon="5.43621">
					<ele>63</ele>
					<time>0001-01-01T00:00:00Z</time>
				</trkpt>
				<trkpt lat="60.16901" lon="5.43454">
					<ele>67</ele>
					<time>0001-01-01T00:00:00Z</time>
				</trkpt>
				<trkpt lat="60.16838" lon="5.43208">
					<ele>70</ele>
					<time>0001-01-01T00:00:00Z</time>
				</trkpt>
				<trkpt lat="60.16830" lon="5.43016">
					<ele>69</ele>
					<time>0001-01-01T00:00:00Z</time>
				</trkpt>
				<trkpt lat="60.16841" lon="5.42863">
					<ele>70</ele>
					<time>0001-01-01T00:00:00Z</time>
				</trkpt>
				<trkpt lat="60.16860" lon="5.42801">
					<ele>69</ele>
					<time>0001-01-01T00:00:00Z</time>
				</trkpt>
				<trkpt lat="60.16890" lon="5.42748">
					<ele>67</ele>
					<time>0001-01-01T00:00:00Z</time>
				</trkpt>
				<trkpt lat="60.16917" lon="5.42611">
					<ele>63</ele>
					<time>0001-01-01T00:00:00Z</time>
				</trkpt>
				<trkpt lat="60.16917" lon="5.42468">
					<ele>59</ele>
					<time>0001-01-01T00:00:00Z</time>
				</trkpt>
				<trkpt lat="60.16932" lon="5.42433">
					<ele>58</ele>
					<time>0001-01-01T00:00:00Z</time>
				</trkpt>
				<trkpt lat="60.17027" lon="5.42280">
					<ele>54</ele>
					<time>0001-01-01T00:00:00Z</time>
				</trkpt>
				<trkpt lat="60.17074" lon="5.42235">
					<ele>53</ele>
					<time>0001-01-01T00:00:00Z</time>
				</trkpt>
				<trkpt lat="60.17167" lon="5.42054">
					<ele>53</ele>
					<time>0001-01-01T00:00:00Z</time>
				</trkpt>
				<trkpt lat="60.17265" lon="5.41849">
					<ele>54</ele>
					<time>0001-01-01T00:00:00Z</time>
				</trkpt>
				<trkpt lat="60.17305" lon="5.41720">
					<ele>54</ele>
					<time>0001-01-01T00:00:00Z</time>
				</trkpt>
				<trkpt lat="60.17341" lon="5.41464">
					<ele>56</ele>
					<time>0001-01-01T00:00:00Z</time>
				</trkpt>
				<trkpt lat="60.17356" lon="5.41357">
					<ele>57</ele>
					<time>0001-01-01T00:00:00Z</time>
				</trkpt>
				<trkpt lat="60.17390" lon="5.41279">
					<ele>58</ele>
					<time>0001-01-01T00:00:00Z</time>
				</trkpt>
				<trkpt lat="60.17545" lon="5.41159">
					<ele>57</ele>
					<time>0001-01-01T00:00:00Z</time>
				</trkpt>
				<trkpt lat="60.17637" lon="5.41055">
					<ele>55</ele>
					<time>0001-01-01T00:00:00Z</time>
				</trkpt>
				<trkpt lat="60.17655" lon="5.41047">
					<ele>55</ele>
					<time>0001-01-01T00:00:00Z</time>
				</trkpt>
				<trkpt lat="60.17747" lon="5.41038">
					<ele>56</ele>
					<time>0001-01-01T00:00:00Z</time>
				</trkpt>
				<trkpt lat="60.17812" lon="5.41024">
					<ele>59</ele>
					<time>0001-01-01T00:00:00Z</time>
				</trkpt>
				<trkpt lat="60.17879" lon="5.41049">
					<ele>59</ele>
					<time>0001-01-01T00:00:00Z</time>
				</trkpt>
				<trkpt lat="60.18061" lon="5.41008">
					<ele>56</ele>
					<time>0001-01-01T00:00:00Z</time>
				</trkpt>
				<trkpt lat="60.18262" lon="5.41021">
					<ele>55</ele>
					<time>0001-01-01T00:00:00Z</time>
				</trkpt>
				<trkpt lat="60.18344" lon="5.40986">
					<ele>55</ele>
					<time>0001-01-01T00:00:00Z</time>
				</trkpt>
				<trkpt lat="60.18354" lon="5.40972">
					<ele>54</ele>
					<time>0001-01-01T00:00:00Z</time>
				</trkpt>
				<trkpt lat="60.18382" lon="5.40814">
					<ele>59</ele>
					<time>0001-01-01T00:00:00Z</time>
				</trkpt>
				<trkpt lat="60.18393" lon="5.40792">
					<ele>59</ele>
					<time>0001-01-01T00:00:00Z</time>
				</trkpt>
				<trkpt lat="60.18463" lon="5.40851">
					<ele>63</ele>
					<time>0001-01-01T00:00:00Z</time>
				</trkpt>
				<trkpt lat="60.18576" lon="5.40987">
					<ele>63</ele>
					<time>0001-01-01T00:00:00Z</time>
				</trkpt>
				<trkpt lat="60.18651" lon="5.41146">
					<ele>65</ele>
					<time>0001-01-01T00:00:00Z</time>
				</trkpt>
				<trkpt lat="60.18788" lon="5.41362">
					<ele>65</ele>
					<time>0001-01-01T00:00:00Z</time>
				</trkpt>
				<trkpt lat="60.18947" lon="5.41603">
					<ele>68</ele>
					<time>0001-01-01T00:00:00Z</time>
				</trkpt>
				<trkpt lat="60.19073" lon="5.41823">
					<ele>68</ele>
					<time>0001-01-01T00:00:00Z</time>
				</trkpt>
				<trkpt lat="60.19193" lon="5.41954">
					<ele>67</ele>
					<time>0001-01-01T00:00:00Z</time>
				</trkpt>
				<trkpt lat="60.19353" lon="5.42145">
					<ele>62</ele>
					<time>0001-01-01T00:00:00Z</time>
				</trkpt>
				<trkpt lat="60.19528" lon="5.42443">
					<ele>59</ele>
					<time>0001-01-01T00:00:00Z</time>
				</trkpt>
				<trkpt lat="60.19704" lon="5.42745">
					<ele>56</ele>
					<time>0001-01-01T00:00:00Z</time>
				</trkpt>
				<trkpt lat="60.19768" lon="5.42852">
					<ele>55</ele>
					<time>0001-01-01T00:00:00Z</time>
				</trkpt>
				<trkpt lat="60.19783" lon="5.42876">
					<ele>55</ele>
					<time>0001-01-01T00:00:00Z</time>
				</trkpt>
				<trkpt lat="60.19823" lon="5.42928">
					<ele>55</ele>
					<time>0001-01-01T00:00:00Z</time>
				</trkpt>
				<trkpt lat="60.19848" lon="5.42901">
					<ele>55</ele>
					<time>0001-01-01T00:00:00Z</time>
				</trkpt>
				<trkpt lat="60.19864" lon="5.42814">
					<ele>59</ele>
					<time>0001-01-01T00:00:00Z</time>
				</trkpt>
				<trkpt lat="60.19868" lon="5.42603">
					<ele>63</ele>
					<time>0001-01-01T00:00:00Z</time>
				</trkpt>
				<trkpt lat="60.19902" lon="5.42344">
					<ele>65</ele>
					<time>0001-01-01T00:00:00Z</time>
				</trkpt>
				<trkpt lat="60.19930" lon="5.42146">
					<ele>68</ele>
					<time>0001-01-01T00:00:00Z</time>
				</trkpt>
				<trkpt lat="60.19928" lon="5.42052">
					<ele>67</ele>
					<time>0001-01-01T00:00:00Z</time>
				</trkpt>
				<trkpt lat="60.19946" lon="5.41978">
					<ele>68</ele>
					<time>0001-01-01T00:00:00Z</time>
				</trkpt>
				<trkpt lat="60.19959" lon="5.41948">
					<ele>69</ele>
					<time>0001-01-01T00:00:00Z</time>
				</trkpt>
				<trkpt lat="60.19981" lon="5.41919">
					<ele>69</ele>
					<time>0001-01-01T00:00:00Z</time>
				</trkpt>
				<trkpt lat="60.20085" lon="5.41808">
					<ele>72</ele>
					<time>0001-01-01T00:00:00Z</time>
				</trkpt>
				<trkpt lat="60.20169" lon="5.41467">
					<ele>73</ele>
					<time>0001-01-01T00:00:00Z</time>
				</trkpt>
				<trkpt lat="60.20258" lon="5.41393">
					<ele>75</ele>
					<time>0001-01-01T00:00:00Z</time>
				</trkpt>
				<trkpt lat="60.20283" lon="5.41333">
					<ele>75</ele>
					<time>0001-01-01T00:00:00Z</time>
				</trkpt>
				<trkpt lat="60.20303" lon="5.41274">
					<ele>76</ele>
					<time>0001-01-01T00:00:00Z</time>
				</trkpt>
				<trkpt lat="60.20328" lon="5.41227">
					<ele>76</ele>
					<time>0001-01-01T00:00:00Z</time>
				</trkpt>
				<trkpt lat="60.20405" lon="5.41157">
					<ele>75</ele>
					<time>0001-01-01T00:00:00Z</time>
				</trkpt>
				<trkpt lat="60.20523" lon="5.41139">
					<ele>78</ele>
					<time>0001-01-01T00:00:00Z</time>
				</trkpt>
				<trkpt lat="60.20649" lon="5.41148">
					<ele>81</ele>
					<time>0001-01-01T00:00:00Z</time>
				</trkpt>
				<trkpt lat="60.20848" lon="5.41118">
					<ele>78</ele>
					<time>0001-01-01T00:00:00Z</time>
				</trkpt>
				<trkpt lat="60.20949" lon="5.41041">
					<ele>77</ele>
					<time>0001-01-01T00:00:00Z</time>
				</trkpt>
				<trkpt lat="60.20976" lon="5.41027">
					<ele>77</ele>
					<time>0001-01-01T00:00:00Z</time>
				</trkpt>
				<trkpt lat="60.21117" lon="5.41027">
					<ele>71</ele>
					<time>0001-01-01T00:00:00Z</time>
				</trkpt>
				<trkpt lat="60.21182" lon="5.41042">
					<ele>67</ele>
					<time>0001-01-01T00:00:00Z</time>
				</trkpt>
				<trkpt lat="60.21320" lon="5.40986">
					<ele>66</ele>
					<time>0001-01-01T00:00:00Z</time>
				</trkpt>
				<trkpt lat="60.21354" lon="5.40984">
					<ele>65</ele>
					<time>0001-01-01T00:00:00Z</time>
				</trkpt>
				<trkpt lat="60.21394" lon="5.40964">
					<ele>65</ele>
					<time>0001-01-01T00:00:00Z</time>
				</trkpt>
				<trkpt lat="60.21444" lon="5.40920">
					<ele>62</ele>
					<time>0001-01-01T00:00:00Z</time>
				</trkpt>
				<trkpt lat="60.21503" lon="5.40937">
					<ele>63</ele>
					<time>0001-01-01T00:00:00Z</time>
				</trkpt>
				<trkpt lat="60.21630" lon="5.41060">
					<ele>61</ele>
					<time>0001-01-01T00:00:00Z</time>
				</trkpt>
				<trkpt lat="60.21743" lon="5.41062">
					<ele>62</ele>
					<time>0001-01-01T00:00:00Z</time>
				</trkpt>
				<trkpt lat="60.21761" lon="5.41031">
					<ele>62</ele>
					<time>0001-01-01T00:00:00Z</time>
				</trkpt>
				<trkpt lat="60.21868" lon="5.40943">
					<ele>63</ele>
					<time>0001-01-01T00:00:00Z</time>
				</trkpt>
				<trkpt lat="60.21899" lon="5.40939">
					<ele>62</ele>
					<time>0001-01-01T00:00:00Z</time>
				</trkpt>
				<trkpt lat="60.21921" lon="5.40947">
					<ele>62</ele>
					<time>0001-01-01T00:00:00Z</time>
				</trkpt>
				<trkpt lat="60.22016" lon="5.40941">
					<ele>63</ele>
					<time>0001-01-01T00:00:00Z</time>
				</trkpt>
				<trkpt lat="60.22124" lon="5.41049">
					<ele>63</ele>
					<time>0001-01-01T00:00:00Z</time>
				</trkpt>
				<trkpt lat="60.22368" lon="5.41077">
					<ele>64</ele>
					<time>0001-01-01T00:00:00Z</time>
				</trkpt>
				<trkpt lat="60.22655" lon="5.40827">
					<ele>63</ele>
					<time>0001-01-01T00:00:00Z</time>
				</trkpt>
				<trkpt lat="60.22688" lon="5.40708">
					<ele>64</ele>
					<time>0001-01-01T00:00:00Z</time>
				</trkpt>
				<trkpt lat="60.22721" lon="5.40447">
					<ele>63</ele>
					<time>0001-01-01T00:00:00Z</time>
				</trkpt>
				<trkpt lat="60.22723" lon="5.40383">
					<ele>61</ele>
					<time>0001-01-01T00:00:00Z</time>
				</trkpt>
				<trkpt lat="60.22560" lon="5.39974">
					<ele>58</ele>
					<time>0001-01-01T00:00:00Z</time>
				</trkpt>
				<trkpt lat="60.22494" lon="5.39856">
					<ele>56</ele>
					<time>0001-01-01T00:00:00Z</time>
				</trkpt>
				<trkpt lat="60.22471" lon="5.39810">
					<ele>55</ele>
					<time>0001-01-01T00:00:00Z</time>
				</trkpt>
				<trkpt lat="60.22294" lon="5.39552">
					<ele>49</ele>
					<time>0001-01-01T00:00:00Z</time>
				</trkpt>
				<trkpt lat="60.22109" lon="5.39054">
					<ele>22</ele>
					<time>0001-01-01T00:00:00Z</time>
				</trkpt>
				<trkpt lat="60.22020" lon="5.38865">
					<ele>17</ele>
					<time>0001-01-01T00:00:00Z</time>
				</trkpt>
				<trkpt lat="60.22014" lon="5.38851">
					<ele>17</ele>
					<time>0001-01-01T00:00:00Z</time>
				</trkpt>
				<trkpt lat="60.21977" lon="5.38746">
					<ele>15</ele>
					<time>0001-01-01T00:00:00Z</time>
				</trkpt>
				<trkpt lat="60.21989" lon="5.38681">
					<ele>16</ele>
					<time>0001-01-01T00:00:00Z</time>
				</trkpt>
				<trkpt lat="60.21999" lon="5.38519">
					<ele>20</ele>
					<time>0001-01-01T00:00:00Z</time>
				</trkpt>
				<trkpt lat="60.22012" lon="5.38513">
					<ele>21</ele>
					<time>0001-01-01T00:00:00Z</time>
				</trkpt>
				<trkpt lat="60.22019" lon="5.38421">
					<ele>25</ele>
					<time>0001-01-01T00:00:00Z</time>
				</trkpt>
				<trkpt lat="60.22016" lon="5.38340">
					<ele>28</ele>
					<time>0001-01-01T00:00:00Z</time>
				</trkpt>
				<trkpt lat="60.22061" lon="5.38166">
					<ele>28</ele>
					<time>0001-01-01T00:00:00Z</time>
				</trkpt>
				<trkpt lat="60.22118" lon="5.38134">
					<ele>28</ele>
					<time>0001-01-01T00:00:00Z</time>
				</trkpt>
				<trkpt lat="60.22145" lon="5.38146">
					<ele>28</ele>
					<time>0001-01-01T00:00:00Z</time>
				</trkpt>
				<trkpt lat="60.22261" lon="5.38164">
					<ele>30</ele>
					<time>0001-01-01T00:00:00Z</time>
				</trkpt>
				<trkpt lat="60.22274" lon="5.38161">
					<ele>31</ele>
					<time>0001-01-01T00:00:00Z</time>
				</trkpt>
				<trkpt lat="60.22294" lon="5.38066">
					<ele>33</ele>
					<time>0001-01-01T00:00:00Z</time>
				</trkpt>
				<trkpt lat="60.22233" lon="5.37862">
					<ele>32</ele>
					<time>0001-01-01T00:00:00Z</time>
				</trkpt>
				<trkpt lat="60.22260" lon="5.37626">
					<ele>33</ele>
					<time>0001-01-01T00:00:00Z</time>
				</trkpt>
				<trkpt lat="60.22283" lon="5.37596">
					<ele>33</ele>
					<time>0001-01-01T00:00:00Z</time>
				</trkpt>
				<trkpt lat="60.22309" lon="5.37572">
					<ele>33</ele>
					<time>0001-01-01T00:00:00Z</time>
				</trkpt>
				<trkpt lat="60.22364" lon="5.37492">
					<ele>33</ele>
					<time>0001-01-01T00:00:00Z</time>
				</trkpt>
				<trkpt lat="60.22407" lon="5.37474">
					<ele>32</ele>
					<time>0001-01-01T00:00:00Z</time>
				</trkpt>
				<trkpt lat="60.22478" lon="5.37475">
					<ele>31</ele>
					<time>0001-01-01T00:00:00Z</time>
				</trkpt>
				<trkpt lat="60.22562" lon="5.37441">
					<ele>29</ele>
					<time>0001-01-01T00:00:00Z</time>
				</trkpt>
				<trkpt lat="60.22591" lon="5.37382">
					<ele>29</ele>
					<time>0001-01-01T00:00:00Z</time>
				</trkpt>
				<trkpt lat="60.22624" lon="5.37358">
					<ele>28</ele>
					<time>0001-01-01T00:00:00Z</time>
				</trkpt>
				<trkpt lat="60.22667" lon="5.37322">
					<ele>29</ele>
					<time>0001-01-01T00:00:00Z</time>
				</trkpt>
				<trkpt lat="60.22692" lon="5.37256">
					<ele>29</ele>
					<time>0001-01-01T00:00:00Z</time>
				</trkpt>
				<trkpt lat="60.22726" lon="5.37107">
					<ele>31</ele>
					<time>0001-01-01T00:00:00Z</time>
				</trkpt>
				<trkpt lat="60.22805" lon="5.36954">
					<ele>34</ele>
					<time>0001-01-01T00:00:00Z</time>
				</trkpt>
				<trkpt lat="60.22891" lon="5.36823">
					<ele>33</ele>
					<time>0001-01-01T00:00:00Z</time>
				</trkpt>
				<trkpt lat="60.22904" lon="5.36801">
					<ele>32</ele>
					<time>0001-01-01T00:00:00Z</time>
				</trkpt>
				<trkpt lat="60.22933" lon="5.36624">
					<ele>31</ele>
					<time>0001-01-01T00:00:00Z</time>
				</trkpt>
				<trkpt lat="60.22945" lon="5.36566">
					<ele>31</ele>
					<time>0001-01-01T00:00:00Z</time>
				</trkpt>
				<trkpt lat="60.23029" lon="5.36417">
					<ele>30</ele>
					<time>0001-01-01T00:00:00Z</time>
				</trkpt>
				<trkpt lat="60.23144" lon="5.36364">
					<ele>29</ele>
					<time>0001-01-01T00:00:00Z</time>
				</trkpt>
				<trkpt lat="60.23274" lon="5.36409">
					<ele>35</ele>
					<time>0001-01-01T00:00:00Z</time>
				</trkpt>
				<trkpt lat="60.23359" lon="5.36425">
					<ele>40</ele>
					<time>0001-01-01T00:00:00Z</time>
				</trkpt>
				<trkpt lat="60.23429" lon="5.36365">
					<ele>45</ele>
					<time>0001-01-01T00:00:00Z</time>
				</trkpt>
				<trkpt lat="60.23499" lon="5.36318">
					<ele>50</ele>
					<time>0001-01-01T00:00:00Z</time>
				</trkpt>
				<trkpt lat="60.23578" lon="5.36272">
					<ele>54</ele>
					<time>0001-01-01T00:00:00Z</time>
				</trkpt>
				<trkpt lat="60.23638" lon="5.36311">
					<ele>61</ele>
					<time>0001-01-01T00:00:00Z</time>
				</trkpt>
				<trkpt lat="60.23730" lon="5.36379">
					<ele>70</ele>
					<time>0001-01-01T00:00:00Z</time>
				</trkpt>
				<trkpt lat="60.23738" lon="5.36380">
					<ele>70</ele>
					<time>0001-01-01T00:00:00Z</time>
				</trkpt>
				<trkpt lat="60.23824" lon="5.36317">
					<ele>71</ele>
					<time>0001-01-01T00:00:00Z</time>
				</trkpt>
				<trkpt lat="60.23835" lon="5.36317">
					<ele>71</ele>
					<time>0001-01-01T00:00:00Z</time>
				</trkpt>
				<trkpt lat="60.23931" lon="5.36389">
					<ele>71</ele>
					<time>0001-01-01T00:00:00Z</time>
				</trkpt>
				<trkpt lat="60.23983" lon="5.36380">
					<ele>73</ele>
					<time>0001-01-01T00:00:00Z</time>
				</trkpt>
				<trkpt lat="60.24011" lon="5.36374">
					<ele>73</ele>
					<time>0001-01-01T00:00:00Z</time>
				</trkpt>
				<trkpt lat="60.24032" lon="5.36381">
					<ele>70</ele>
					<time>0001-01-01T00:00:00Z</time>
				</trkpt>
				<trkpt lat="60.24062" lon="5.36420">
					<ele>70</ele>
					<time>0001-01-01T00:00:00Z</time>
				</trkpt>
				<trkpt lat="60.24067" lon="5.36486">
					<ele>73</ele>
					<time>0001-01-01T00:00:00Z</time>
				</trkpt>
				<trkpt lat="60.24103" lon="5.36562">
					<ele>75</ele>
					<time>0001-01-01T00:00:00Z</time>
				</trkpt>
				<trkpt lat="60.24109" lon="5.36582">
					<ele>75</ele>
					<time>0001-01-01T00:00:00Z</time>
				</trkpt>
				<trkpt lat="60.24121" lon="5.36630">
					<ele>75</ele>
					<time>0001-01-01T00:00:00Z</time>
				</trkpt>
				<trkpt lat="60.24131" lon="5.36673">
					<ele>76</ele>
					<time>0001-01-01T00:00:00Z</time>
				</trkpt>
				<trkpt lat="60.24291" lon="5.36778">
					<ele>75</ele>
					<time>0001-01-01T00:00:00Z</time>
				</trkpt>
				<trkpt lat="60.24437" lon="5.36755">
					<ele>75</ele>
					<time>0001-01-01T00:00:00Z</time>
				</trkpt>
				<trkpt lat="60.24413" lon="5.36775">
					<ele>75</ele>
					<time>0001-01-01T00:00:00Z</time>
				</trkpt>
				<trkpt lat="60.24503" lon="5.36787">
					<ele>76</ele>
					<time>0001-01-01T00:00:00Z</time>
				</trkpt>
				<trkpt lat="60.24567" lon="5.36734">
					<ele>92</ele>
					<time>0001-01-01T00:00:00Z</time>
				</trkpt>
				<trkpt lat="60.24708" lon="5.36584">
					<ele>112</ele>
					<time>0001-01-01T00:00:00Z</time>
				</trkpt>
				<trkpt lat="60.24902" lon="5.36506">
					<ele>129</ele>
					<time>0001-01-01T00:00:00Z</time>
				</trkpt>
				<trkpt lat="60.24986" lon="5.36521">
					<ele>142</ele>
					<time>0001-01-01T00:00:00Z</time>
				</trkpt>
				<trkpt lat="60.25066" lon="5.36537">
					<ele>147</ele>
					<time>0001-01-01T00:00:00Z</time>
				</trkpt>
				<trkpt lat="60.25085" lon="5.36551">
					<ele>151</ele>
					<time>0001-01-01T00:00:00Z</time>
				</trkpt>
				<trkpt lat="60.25148" lon="5.36591">
					<ele>156</ele>
					<time>0001-01-01T00:00:00Z</time>
				</trkpt>
				<trkpt lat="60.25207" lon="5.36625">
					<ele>166</ele>
					<time>0001-01-01T00:00:00Z</time>
				</trkpt>
				<trkpt lat="60.25268" lon="5.36669">
					<ele>172</ele>
					<time>0001-01-01T00:00:00Z</time>
				</trkpt>
				<trkpt lat="60.25372" lon="5.36688">
					<ele>179</ele>
					<time>0001-01-01T00:00:00Z</time>
				</trkpt>
				<trkpt lat="60.25435" lon="5.36661">
					<ele>187</ele>
					<time>0001-01-01T00:00:00Z</time>
				</trkpt>
				<trkpt lat="60.25497" lon="5.36653">
					<ele>196</ele>
					<time>0001-01-01T00:00:00Z</time>
				</trkpt>
				<trkpt lat="60.25541" lon="5.36601">
					<ele>203</ele>
					<time>0001-01-01T00:00:00Z</time>
				</trkpt>
				<trkpt lat="60.25569" lon="5.36493">
					<ele>209</ele>
					<time>0001-01-01T00:00:00Z</time>
				</trkpt>
				<trkpt lat="60.25626" lon="5.36486">
					<ele>212</ele>
					<time>0001-01-01T00:00:00Z</time>
				</trkpt>
				<trkpt lat="60.25675" lon="5.36431">
					<ele>219</ele>
					<time>0001-01-01T00:00:00Z</time>
				</trkpt>
				<trkpt lat="60.25702" lon="5.36277">
					<ele>226</ele>
					<time>0001-01-01T00:00:00Z</time>
				</trkpt>
				<trkpt lat="60.25703" lon="5.36271">
					<ele>230</ele>
					<time>0001-01-01T00:00:00Z</time>
				</trkpt>
				<trkpt lat="60.25707" lon="5.36246">
					<ele>233</ele>
					<time>0001-01-01T00:00:00Z</time>
				</trkpt>
				<trkpt lat="60.25723" lon="5.36116">
					<ele>232</ele>
					<time>0001-01-01T00:00:00Z</time>
				</trkpt>
				<trkpt lat="60.25725" lon="5.36098">
					<ele>232</ele>
					<time>0001-01-01T00:00:00Z</time>
				</trkpt>
				<trkpt lat="60.25737" lon="5.35984">
					<ele>224</ele>
					<time>0001-01-01T00:00:00Z</time>
				</trkpt>
				<trkpt lat="60.25737" lon="5.35944">
					<ele>222</ele>
					<time>0001-01-01T00:00:00Z</time>
				</trkpt>
				<trkpt lat="60.25725" lon="5.35868">
					<ele>219</ele>
					<time>0001-01-01T00:00:00Z</time>
				</trkpt>
				<trkpt lat="60.25699" lon="5.35773">
					<ele>217</ele>
					<time>0001-01-01T00:00:00Z</time>
				</trkpt>
				<trkpt lat="60.25651" lon="5.35662">
					<ele>213</ele>
					<time>0001-01-01T00:00:00Z</time>
				</trkpt>
				<trkpt lat="60.25613" lon="5.35612">
					<ele>209</ele>
					<time>0001-01-01T00:00:00Z</time>
				</trkpt>
				<trkpt lat="60.25491" lon="5.35511">
					<ele>208</ele>
					<time>0001-01-01T00:00:00Z</time>
				</trkpt>
				<trkpt lat="60.25458" lon="5.35439">
					<ele>208</ele>
					<time>0001-01-01T00:00:00Z</time>
				</trkpt>
				<trkpt lat="60.25464" lon="5.35304">
					<ele>206</ele>
					<time>0001-01-01T00:00:00Z</time>
				</trkpt>
				<trkpt lat="60.25497" lon="5.35260">
					<ele>206</ele>
					<time>0001-01-01T00:00:00Z</time>
				</trkpt>
				<trkpt lat="60.25566" lon="5.35103">
					<ele>199</ele>
					<time>0001-01-01T00:00:00Z</time>
				</trkpt>
				<trkpt lat="60.25565" lon="5.35023">
					<ele>196</ele>
					<time>0001-01-01T00:00:00Z</time>
				</trkpt>
				<trkpt lat="60.25585" lon="5.34847">
					<ele>177</ele>
					<time>0001-01-01T00:00:00Z</time>
				</trkpt>
				<trkpt lat="60.25607" lon="5.34863">
					<ele>168</ele>
					<time>0001-01-01T00:00:00Z</time>
				</trkpt>
				<trkpt lat="60.25634" lon="5.34939">
					<ele>162</ele>
					<time>0001-01-01T00:00:00Z</time>
				</trkpt>
				<trkpt lat="60.25675" lon="5.34999">
					<ele>158</ele>
					<time>0001-01-01T00:00:00Z</time>
				</trkpt>
				<trkpt lat="60.25738" lon="5.35069">
					<ele>146</ele>
					<time>0001-01-01T00:00:00Z</time>
				</trkpt>
				<trkpt lat="60.25768" lon="5.35121">
					<ele>141</ele>
					<time>0001-01-01T00:00:00Z</time>
				</trkpt>
				<trkpt lat="60.25805" lon="5.35318">
					<ele>133</ele>
					<time>0001-01-01T00:00:00Z</time>
				</trkpt>
				<trkpt lat="60.25807" lon="5.35333">
					<ele>133</ele>
					<time>0001-01-01T00:00:00Z</time>
				</trkpt>
				<trkpt lat="60.25836" lon="5.35365">
					<ele>133</ele>
					<time>0001-01-01T00:00:00Z</time>
				</trkpt>
				<trkpt lat="60.25945" lon="5.35380">
					<ele>133</ele>
					<time>0001-01-01T00:00:00Z</time>
				</trkpt>
				<trkpt lat="60.25988" lon="5.35261">
					<ele>124</ele>
					<time>0001-01-01T00:00:00Z</time>
				</trkpt>
				<trkpt lat="60.26017" lon="5.35186">
					<ele>109</ele>
					<time>0001-01-01T00:00:00Z</time>
				</trkpt>
				<trkpt lat="60.26062" lon="5.35198">
					<ele>100</ele>
					<time>0001-01-01T00:00:00Z</time>
				</trkpt>
				<trkpt lat="60.26153" lon="5.35142">
					<ele>88</ele>
					<time>0001-01-01T00:00:00Z</time>
				</trkpt>
				<trkpt lat="60.26184" lon="5.35081">
					<ele>83</ele>
					<time>0001-01-01T00:00:00Z</time>
				</trkpt>
				<trkpt lat="60.26298" lon="5.34778">
					<ele>69</ele>
					<time>0001-01-01T00:00:00Z</time>
				</trkpt>
				<trkpt lat="60.26378" lon="5.34465">
					<ele>56</ele>
					<time>0001-01-01T00:00:00Z</time>
				</trkpt>
				<trkpt lat="60.26442" lon="5.34204">
					<ele>53</ele>
					<time>0001-01-01T00:00:00Z</time>
				</trkpt>
				<trkpt lat="60.26479" lon="5.34070">
					<ele>54</ele>
					<time>0001-01-01T00:00:00Z</time>
				</trkpt>
				<trkpt lat="60.26486" lon="5.34049">
					<ele>54</ele>
					<time>0001-01-01T00:00:00Z</time>
				</trkpt>
				<trkpt lat="60.26516" lon="5.33997">
					<ele>53</ele>
					<time>0001-01-01T00:00:00Z</time>
				</trkpt>
				<trkpt lat="60.26621" lon="5.33964">
					<ele>50</ele>
					<time>0001-01-01T00:00:00Z</time>
				</trkpt>
				<trkpt lat="60.26646" lon="5.33953">
					<ele>49</ele>
					<time>0001-01-01T00:00:00Z</time>
				</trkpt>
				<trkpt lat="60.26689" lon="5.33904">
					<ele>48</ele>
					<time>0001-01-01T00:00:00Z</time>
				</trkpt>
				<trkpt lat="60.26758" lon="5.33699">
					<ele>47</ele>
					<time>0001-01-01T00:00:00Z</time>
				</trkpt>
				<trkpt lat="60.26802" lon="5.33543">
					<ele>46</ele>
					<time>0001-01-01T00:00:00Z</time>
				</trkpt>
				<trkpt lat="60.26810" lon="5.33530">
					<ele>45</ele>
					<time>0001-01-01T00:00:00Z</time>
				</trkpt>
				<trkpt lat="60.26841" lon="5.33446">
					<ele>44</ele>
					<time>0001-01-01T00:00:00Z</time>
				</trkpt>
				<trkpt lat="60.26850" lon="5.33426">
					<ele>45</ele>
					<time>0001-01-01T00:00:00Z</time>
				</trkpt>
				<trkpt lat="60.26865" lon="5.33399">
					<ele>45</ele>
					<time>0001-01-01T00:00:00Z</time>
				</trkpt>
				<trkpt lat="60.26939" lon="5.33324">
					<ele>44</ele>
					<time>0001-01-01T00:00:00Z</time>
				</trkpt>
				<trkpt lat="60.27003" lon="5.33307">
					<ele>44</ele>
					<time>0001-01-01T00:00:00Z</time>
				</trkpt>
				<trkpt lat="60.27150" lon="5.33291">
					<ele>48</ele>
					<time>0001-01-01T00:00:00Z</time>
				</trkpt>
				<trkpt lat="60.27294" lon="5.33177">
					<ele>49</ele>
					<time>0001-01-01T00:00:00Z</time>
				</trkpt>
				<trkpt lat="60.27308" lon="5.33167">
					<ele>49</ele>
					<time>0001-01-01T00:00:00Z</time>
				</trkpt>
				<trkpt lat="60.27345" lon="5.33139">
					<ele>49</ele>
					<time>0001-01-01T00:00:00Z</time>
				</trkpt>
				<trkpt lat="60.27367" lon="5.33133">
					<ele>50</ele>
					<time>0001-01-01T00:00:00Z</time>
				</trkpt>
				<trkpt lat="60.27368" lon="5.33119">
					<ele>50</ele>
					<time>0001-01-01T00:00:00Z</time>
				</trkpt>
				<trkpt lat="60.27416" lon="5.33078">
					<ele>52</ele>
					<time>0001-01-01T00:00:00Z</time>
				</trkpt>
				<trkpt lat="60.27552" lon="5.32969">
					<ele>53</ele>
					<time>0001-01-01T00:00:00Z</time>
				</trkpt>
				<trkpt lat="60.27689" lon="5.32837">
					<ele>56</ele>
					<time>0001-01-01T00:00:00Z</time>
				</trkpt>
				<trkpt lat="60.27836" lon="5.32702">
					<ele>58</ele>
					<time>0001-01-01T00:00:00Z</time>
				</trkpt>
				<trkpt lat="60.27876" lon="5.32674">
					<ele>58</ele>
					<time>0001-01-01T00:00:00Z</time>
				</trkpt>
				<trkpt lat="60.27906" lon="5.32676">
					<ele>58</ele>
					<time>0001-01-01T00:00:00Z</time>
				</trkpt>
				<trkpt lat="60.28044" lon="5.32625">
					<ele>59</ele>
					<time>0001-01-01T00:00:00Z</time>
				</trkpt>
				<trkpt lat="60.28100" lon="5.32587">
					<ele>59</ele>
					<time>0001-01-01T00:00:00Z</time>
				</trkpt>
				<trkpt lat="60.28215" lon="5.32574">
					<ele>58</ele>
					<time>0001-01-01T00:00:00Z</time>
				</trkpt>
				<trkpt lat="60.28286" lon="5.32564">
					<ele>58</ele>
					<time>0001-01-01T00:00:00Z</time>
				</trkpt>
				<trkpt lat="60.28579" lon="5.32700">
					<ele>58</ele>
					<time>0001-01-01T00:00:00Z</time>
				</trkpt>
				<trkpt lat="60.28667" lon="5.32648">
					<ele>57</ele>
					<time>0001-01-01T00:00:00Z</time>
				</trkpt>
				<trkpt lat="60.28724" lon="5.32633">
					<ele>55</ele>
					<time>0001-01-01T00:00:00Z</time>
				</trkpt>
				<trkpt lat="60.28773" lon="5.32644">
					<ele>53</ele>
					<time>0001-01-01T00:00:00Z</time>
				</trkpt>
				<trkpt lat="60.28821" lon="5.32692">
					<ele>53</ele>
					<time>0001-01-01T00:00:00Z</time>
				</trkpt>
				<trkpt lat="60.28856" lon="5.32762">
					<ele>53</ele>
					<time>0001-01-01T00:00:00Z</time>
				</trkpt>
				<trkpt lat="60.28891" lon="5.32788">
					<ele>53</ele>
					<time>0001-01-01T00:00:00Z</time>
				</trkpt>
				<trkpt lat="60.29016" lon="5.32788">
					<ele>53</ele>
					<time>0001-01-01T00:00:00Z</time>
				</trkpt>
				<trkpt lat="60.29067" lon="5.32709">
					<ele>51</ele>
					<time>0001-01-01T00:00:00Z</time>
				</trkpt>
				<trkpt lat="60.29099" lon="5.32590">
					<ele>49</ele>
					<time>0001-01-01T00:00:00Z</time>
				</trkpt>
				<trkpt lat="60.29135" lon="5.32579">
					<ele>48</ele>
					<time>0001-01-01T00:00:00Z</time>
				</trkpt>
				<trkpt lat="60.29166" lon="5.32591">
					<ele>47</ele>
					<time>0001-01-01T00:00:00Z</time>
				</trkpt>
				<trkpt lat="60.29198" lon="5.32539">
					<ele>46</ele>
					<time>0001-01-01T00:00:00Z</time>
				</trkpt>
				<trkpt lat="60.29225" lon="5.32528">
					<ele>48</ele>
					<time>0001-01-01T00:00:00Z</time>
				</trkpt>
				<trkpt lat="60.29275" lon="5.32573">
					<ele>46</ele>
					<time>0001-01-01T00:00:00Z</time>
				</trkpt>
				<trkpt lat="60.29323" lon="5.32627">
					<ele>46</ele>
					<time>0001-01-01T00:00:00Z</time>
				</trkpt>
				<trkpt lat="60.29370" lon="5.32877">
					<ele>46</ele>
					<time>0001-01-01T00:00:00Z</time>
				</trkpt>
				<trkpt lat="60.29465" lon="5.33000">
					<ele>48</ele>
					<time>0001-01-01T00:00:00Z</time>
				</trkpt>
				<trkpt lat="60.29471" lon="5.33008">
					<ele>48</ele>
					<time>0001-01-01T00:00:00Z</time>
				</trkpt>
				<trkpt lat="60.29490" lon="5.33095">
					<ele>47</ele>
					<time>0001-01-01T00:00:00Z</time>
				</trkpt>
				<trkpt lat="60.29514" lon="5.33150">
					<ele>46</ele>
					<time>0001-01-01T00:00:00Z</time>
				</trkpt>
				<trkpt lat="60.29548" lon="5.33198">
					<ele>47</ele>
					<time>0001-01-01T00:00:00Z</time>
				</trkpt>
				<trkpt lat="60.29551" lon="5.33289">
					<ele>47</ele>
					<time>0001-01-01T00:00:00Z</time>
				</trkpt>
				<trkpt lat="60.29527" lon="5.33329">
					<ele>46</ele>
					<time>0001-01-01T00:00:00Z</time>
				</trkpt>
				<trkpt lat="60.29416" lon="5.33441">
					<ele>43</ele>
					<time>0001-01-01T00:00:00Z</time>
				</trkpt>
				<trkpt lat="60.29375" lon="5.33488">
					<ele>42</ele>
					<time>0001-01-01T00:00:00Z</time>
				</trkpt>
				<trkpt lat="60.29359" lon="5.33607">
					<ele>40</ele>
					<time>0001-01-01T00:00:00Z</time>
				</trkpt>
				<trkpt lat="60.29383" lon="5.33653">
					<ele>40</ele>
					<time>0001-01-01T00:00:00Z</time>
				</trkpt>
				<trkpt lat="60.29460" lon="5.33714">
					<ele>40</ele>
					<time>0001-01-01T00:00:00Z</time>
				</trkpt>
				<trkpt lat="60.29601" lon="5.33688">
					<ele>42</ele>
					<time>0001-01-01T00:00:00Z</time>
				</trkpt>
				<trkpt lat="60.29654" lon="5.33728">
					<ele>43</ele>
					<time>0001-01-01T00:00:00Z</time>
				</trkpt>
				<trkpt lat="60.29683" lon="5.33818">
					<ele>43</ele>
					<time>0001-01-01T00:00:00Z</time>
				</trkpt>
				<trkpt lat="60.29727" lon="5.33915">
					<ele>44</ele>
					<time>0001-01-01T00:00:00Z</time>
				</trkpt>
				<trkpt lat="60.29784" lon="5.33929">
					<ele>46</ele>
					<time>0001-01-01T00:00:00Z</time>
				</trkpt>
				<trkpt lat="60.29800" lon="5.33894">
					<ele>46</ele>
					<time>0001-01-01T00:00:00Z</time>
				</trkpt>
				<trkpt lat="60.29826" lon="5.33773">
					<ele>47</ele>
					<time>0001-01-01T00:00:00Z</time>
				</trkpt>
				<trkpt lat="60.29923" lon="5.33653">
					<ele>49</ele>
					<time>0001-01-01T00:00:00Z</time>
				</trkpt>
				<trkpt lat="60.29927" lon="5.33648">
					<ele>49</ele>
					<time>0001-01-01T00:00:00Z</time>
				</trkpt>
				<trkpt lat="60.30044" lon="5.33586">
					<ele>53</ele>
					<time>0001-01-01T00:00:00Z</time>
				</trkpt>
				<trkpt lat="60.30067" lon="5.33578">
					<ele>53</ele>
					<time>0001-01-01T00:00:00Z</time>
				</trkpt>
				<trkpt lat="60.30113" lon="5.33554">
					<ele>53</ele>
					<time>0001-01-01T00:00:00Z</time>
				</trkpt>
				<trkpt lat="60.30172" lon="5.33551">
					<ele>54</ele>
					<time>0001-01-01T00:00:00Z</time>
				</trkpt>
				<trkpt lat="60.30270" lon="5.33594">
					<ele>54</ele>
					<time>0001-01-01T00:00:00Z</time>
				</trkpt>
				<trkpt lat="60.30313" lon="5.33642">
					<ele>53</ele>
					<time>0001-01-01T00:00:00Z</time>
				</trkpt>
				<trkpt lat="60.30332" lon="5.33669">
					<ele>53</ele>
					<time>0001-01-01T00:00:00Z</time>
				</trkpt>
				<trkpt lat="60.30356" lon="5.33704">
					<ele>54</ele>
					<time>0001-01-01T00:00:00Z</time>
				</trkpt>
				<trkpt lat="60.30391" lon="5.33723">
					<ele>54</ele>
					<time>0001-01-01T00:00:00Z</time>
				</trkpt>
				<trkpt lat="60.30522" lon="5.33776">
					<ele>56</ele>
					<time>0001-01-01T00:00:00Z</time>
				</trkpt>
				<trkpt lat="60.30554" lon="5.33768">
					<ele>55</ele>
					<time>0001-01-01T00:00:00Z</time>
				</trkpt>
				<trkpt lat="60.30718" lon="5.33660">
					<ele>57</ele>
					<time>0001-01-01T00:00:00Z</time>
				</trkpt>
				<trkpt lat="60.30770" lon="5.33652">
					<ele>57</ele>
					<time>0001-01-01T00:00:00Z</time>
				</trkpt>
				<trkpt lat="60.30794" lon="5.33690">
					<ele>56</ele>
					<time>0001-01-01T00:00:00Z</time>
				</trkpt>
				<trkpt lat="60.30809" lon="5.33761">
					<ele>56</ele>
					<time>0001-01-01T00:00:00Z</time>
				</trkpt>
				<trkpt lat="60.30811" lon="5.33795">
					<ele>56</ele>
					<time>0001-01-01T00:00:00Z</time>
				</trkpt>
				<trkpt lat="60.30820" lon="5.33885">
					<ele>55</ele>
					<time>0001-01-01T00:00:00Z</time>
				</trkpt>
				<trkpt lat="60.30842" lon="5.33980">
					<ele>53</ele>
					<time>0001-01-01T00:00:00Z</time>
				</trkpt>
				<trkpt lat="60.30880" lon="5.34296">
					<ele>52</ele>
					<time>0001-01-01T00:00:00Z</time>
				</trkpt>
				<trkpt lat="60.30892" lon="5.34369">
					<ele>51</ele>
					<time>0001-01-01T00:00:00Z</time>
				</trkpt>
				<trkpt lat="60.30907" lon="5.34409">
					<ele>50</ele>
					<time>0001-01-01T00:00:00Z</time>
				</trkpt>
				<trkpt lat="60.30990" lon="5.34572">
					<ele>47</ele>
					<time>0001-01-01T00:00:00Z</time>
				</trkpt>
				<trkpt lat="60.31017" lon="5.34629">
					<ele>47</ele>
					<time>0001-01-01T00:00:00Z</time>
				</trkpt>
				<trkpt lat="60.31029" lon="5.34672">
					<ele>47</ele>
					<time>0001-01-01T00:00:00Z</time>
				</trkpt>
				<trkpt lat="60.31074" lon="5.35014">
					<ele>44</ele>
					<time>0001-01-01T00:00:00Z</time>
				</trkpt>
				<trkpt lat="60.31096" lon="5.35194">
					<ele>41</ele>
					<time>0001-01-01T00:00:00Z</time>
				</trkpt>
				<trkpt lat="60.31142" lon="5.35289">
					<ele>39</ele>
					<time>0001-01-01T00:00:00Z</time>
				</trkpt>
				<trkpt lat="60.31345" lon="5.35524">
					<ele>38</ele>
					<time>0001-01-01T00:00:00Z</time>
				</trkpt>
				<trkpt lat="60.31373" lon="5.35532">
					<ele>37</ele>
					<time>0001-01-01T00:00:00Z</time>
				</trkpt>
				<trkpt lat="60.31428" lon="5.35504">
					<ele>37</ele>
					<time>0001-01-01T00:00:00Z</time>
				</trkpt>
				<trkpt lat="60.31498" lon="5.35466">
					<ele>36</ele>
					<time>0001-01-01T00:00:00Z</time>
				</trkpt>
				<trkpt lat="60.31680" lon="5.35368">
					<ele>33</ele>
					<time>0001-01-01T00:00:00Z</time>
				</trkpt>
				<trkpt lat="60.31696" lon="5.35332">
					<ele>33</ele>
					<time>0001-01-01T00:00:00Z</time>
				</trkpt>
				<trkpt lat="60.31743" lon="5.35133">
					<ele>34</ele>
					<time>0001-01-01T00:00:00Z</time>
				</trkpt>
				<trkpt lat="60.31759" lon="5.35113">
					<ele>33</ele>
					<time>0001-01-01T00:00:00Z</time>
				</trkpt>
				<trkpt lat="60.31774" lon="5.35130">
					<ele>33</ele>
					<time>0001-01-01T00:00:00Z</time>
				</trkpt>
				<trkpt lat="60.31860" lon="5.34778">
					<ele>32</ele>
					<time>0001-01-01T00:00:00Z</time>
				</trkpt>
				<trkpt lat="60.31860" lon="5.34685">
					<ele>32</ele>
					<time>0001-01-01T00:00:00Z</time>
				</trkpt>
				<trkpt lat="60.31831" lon="5.34639">
					<ele>31</ele>
					<time>0001-01-01T00:00:00Z</time>
				</trkpt>
				<trkpt lat="60.31860" lon="5.34584">
					<ele>32</ele>
					<time>0001-01-01T00:00:00Z</time>
				</trkpt>
				<trkpt lat="60.31868" lon="5.34579">
					<ele>32</ele>
					<time>0001-01-01T00:00:00Z</time>
				</trkpt>
				<trkpt lat="60.31890" lon="5.34526">
					<ele>30</ele>
					<time>0001-01-01T00:00:00Z</time>
				</trkpt>
				<trkpt lat="60.31897" lon="5.34458">
					<ele>30</ele>
					<time>0001-01-01T00:00:00Z</time>
				</trkpt>
				<trkpt lat="60.31901" lon="5.34295">
					<ele>30</ele>
					<time>0001-01-01T00:00:00Z</time>
				</trkpt>
				<trkpt lat="60.31919" lon="5.34261">
					<ele>31</ele>
					<time>0001-01-01T00:00:00Z</time>
				</trkpt>
				<trkpt lat="60.31926" lon="5.34052">
					<ele>31</ele>
					<time>0001-01-01T00:00:00Z</time>
				</trkpt>
				<trkpt lat="60.32348" lon="5.33812">
					<ele>31</ele>
					<time>0001-01-01T00:00:00Z</time>
				</trkpt>
				<trkpt lat="60.32407" lon="5.33811">
					<ele>31</ele>
					<time>0001-01-01T00:00:00Z</time>
				</trkpt>
				<trkpt lat="60.32439" lon="5.33810">
					<ele>31</ele>
					<time>0001-01-01T00:00:00Z</time>
				</trkpt>
				<trkpt lat="60.32471" lon="5.33837">
					<ele>28</ele>
					<time>0001-01-01T00:00:00Z</time>
				</trkpt>
				<trkpt lat="60.32504" lon="5.33845">
					<ele>29</ele>
					<time>0001-01-01T00:00:00Z</time>
				</trkpt>
				<trkpt lat="60.32557" lon="5.33876">
					<ele>28</ele>
					<time>0001-01-01T00:00:00Z</time>
				</trkpt>
				<trkpt lat="60.32576" lon="5.33877">
					<ele>28</ele>
					<time>0001-01-01T00:00:00Z</time>
				</trkpt>
				<trkpt lat="60.32635" lon="5.33932">
					<ele>32</ele>
					<time>0001-01-01T00:00:00Z</time>
				</trkpt>
				<trkpt lat="60.32659" lon="5.33952">
					<ele>32</ele>
					<time>0001-01-01T00:00:00Z</time>
				</trkpt>
				<trkpt lat="60.32792" lon="5.34204">
					<ele>27</ele>
					<time>0001-01-01T00:00:00Z</time>
				</trkpt>
				<trkpt lat="60.32826" lon="5.34289">
					<ele>27</ele>
					<time>0001-01-01T00:00:00Z</time>
				</trkpt>
				<trkpt lat="60.32882" lon="5.34496">
					<ele>28</ele>
					<time>0001-01-01T00:00:00Z</time>
				</trkpt>
				<trkpt lat="60.32946" lon="5.34588">
					<ele>28</ele>
					<time>0001-01-01T00:00:00Z</time>
				</trkpt>
				<trkpt lat="60.33185" lon="5.34447">
					<ele>22</ele>
					<time>0001-01-01T00:00:00Z</time>
				</trkpt>
				<trkpt lat="60.33312" lon="5.34285">
					<ele>15</ele>
					<time>0001-01-01T00:00:00Z</time>
				</trkpt>
				<trkpt lat="60.33632" lon="5.33802">
					<ele>15</ele>
					<time>0001-01-01T00:00:00Z</time>
				</trkpt>
				<trkpt lat="60.33713" lon="5.33801">
					<ele>15</ele>
					<time>0001-01-01T00:00:00Z</time>
				</trkpt>
				<trkpt lat="60.33898" lon="5.33727">
					<ele>14</ele>
					<time>0001-01-01T00:00:00Z</time>
				</trkpt>
				<trkpt lat="60.34063" lon="5.33827">
					<ele>14</ele>
					<time>0001-01-01T00:00:00Z</time>
				</trkpt>
				<trkpt lat="60.34248" lon="5.33956">
					<ele>17</ele>
					<time>0001-01-01T00:00:00Z</time>
				</trkpt>
				<trkpt lat="60.34371" lon="5.33959">
					<ele>19</ele>
					<time>0001-01-01T00:00:00Z</time>
				</trkpt>
				<trkpt lat="60.34381" lon="5.33954">
					<ele>18</ele>
					<time>0001-01-01T00:00:00Z</time>
				</trkpt>
				<trkpt lat="60.34475" lon="5.33900">
					<ele>16</ele>
					<time>0001-01-01T00:00:00Z</time>
				</trkpt>
				<trkpt lat="60.34525" lon="5.33884">
					<ele>13</ele>
					<time>0001-01-01T00:00:00Z</time>
				</trkpt>
				<trkpt lat="60.34573" lon="5.33883">
					<ele>11</ele>
					<time>0001-01-01T00:00:00Z</time>
				</trkpt>
				<trkpt lat="60.34589" lon="5.33875">
					<ele>10</ele>
					<time>0001-01-01T00:00:00Z</time>
				</trkpt>
				<trkpt lat="60.34583" lon="5.33875">
					<ele>10</ele>
					<time>0001-01-01T00:00:00Z</time>
				</trkpt>
				<trkpt lat="60.34572" lon="5.33882">
					<ele>9</ele>
					<time>0001-01-01T00:00:00Z</time>
				</trkpt>
				<trkpt lat="60.34526" lon="5.33881">
					<ele>11</ele>
					<time>0001-01-01T00:00:00Z</time>
				</trkpt>
				<trkpt lat="60.34530" lon="5.33870">
					<ele>10</ele>
					<time>0001-01-01T00:00:00Z</time>
				</trkpt>
				<trkpt lat="60.34556" lon="5.33856">
					<ele>8</ele>
					<time>0001-01-01T00:00:00Z</time>
				</trkpt>
				<trkpt lat="60.34559" lon="5.33929">
					<ele>7</ele>
					<time>0001-01-01T00:00:00Z</time>
				</trkpt>
				<trkpt lat="60.34579" lon="5.33915">
					<ele>7</ele>
					<time>0001-01-01T00:00:00Z</time>
				</trkpt>
				<trkpt lat="60.34585" lon="5.33918">
					<ele>7</ele>
					<time>0001-01-01T00:00:00Z</time>
				</trkpt>
				<trkpt lat="60.34601" lon="5.33912">
					<ele>7</ele>
					<time>0001-01-01T00:00:00Z</time>
				</trkpt>
				<trkpt lat="60.34686" lon="5.33796">
					<ele>10</ele>
					<time>0001-01-01T00:00:00Z</time>
				</trkpt>
				<trkpt lat="60.34780" lon="5.33743">
					<ele>19</ele>
					<time>0001-01-01T00:00:00Z</time>
				</trkpt>
				<trkpt lat="60.34815" lon="5.33736">
					<ele>24</ele>
					<time>0001-01-01T00:00:00Z</time>
				</trkpt>
				<trkpt lat="60.34915" lon="5.33761">
					<ele>26</ele>
					<time>0001-01-01T00:00:00Z</time>
				</trkpt>
				<trkpt lat="60.35012" lon="5.33800">
					<ele>23</ele>
					<time>0001-01-01T00:00:00Z</time>
				</trkpt>
				<trkpt lat="60.35026" lon="5.33810">
					<ele>23</ele>
					<time>0001-01-01T00:00:00Z</time>
				</trkpt>
				<trkpt lat="60.35046" lon="5.33800">
					<ele>23</ele>
					<time>0001-01-01T00:00:00Z</time>
				</trkpt>
				<trkpt lat="60.35201" lon="5.33843">
					<ele>20</ele>
					<time>0001-01-01T00:00:00Z</time>
				</trkpt>
				<trkpt lat="60.35294" lon="5.33887">
					<ele>18</ele>
					<time>0001-01-01T00:00:00Z</time>
				</trkpt>
				<trkpt lat="60.35309" lon="5.33885">
					<ele>18</ele>
					<time>0001-01-01T00:00:00Z</time>
				</trkpt>
				<trkpt lat="60.35352" lon="5.33891">
					<ele>17</ele>
					<time>0001-01-01T00:00:00Z</time>
				</trkpt>
				<trkpt lat="60.35502" lon="5.33999">
					<ele>18</ele>
					<time>0001-01-01T00:00:00Z</time>
				</trkpt>
				<trkpt lat="60.35607" lon="5.34019">
					<ele>15</ele>
					<time>0001-01-01T00:00:00Z</time>
				</trkpt>
				<trkpt lat="60.35721" lon="5.34153">
					<ele>16</ele>
					<time>0001-01-01T00:00:00Z</time>
				</trkpt>
				<trkpt lat="60.35782" lon="5.34223">
					<ele>16</ele>
					<time>0001-01-01T00:00:00Z</time>
				</trkpt>
				<trkpt lat="60.35802" lon="5.34230">
					<ele>16</ele>
					<time>0001-01-01T00:00:00Z</time>
				</trkpt>
				<trkpt lat="60.35816" lon="5.34241">
					<ele>17</ele>
					<time>0001-01-01T00:00:00Z</time>
				</trkpt>
				<trkpt lat="60.35846" lon="5.34306">
					<ele>17</ele>
					<time>0001-01-01T00:00:00Z</time>
				</trkpt>
				<trkpt lat="60.36025" lon="5.34446">
					<ele>17</ele>
					<time>0001-01-01T00:00:00Z</time>
				</trkpt>
				<trkpt lat="60.36134" lon="5.34560">
					<ele>19</ele>
					<time>0001-01-01T00:00:00Z</time>
				</trkpt>
				<trkpt lat="60.36186" lon="5.34592">
					<ele>20</ele>
					<time>0001-01-01T00:00:00Z</time>
				</trkpt>
				<trkpt lat="60.36185" lon="5.34597">
					<ele>20</ele>
					<time>0001-01-01T00:00:00Z</time>
				</trkpt>
				<trkpt lat="60.36192" lon="5.34610">
					<ele>20</ele>
					<time>0001-01-01T00:00:00Z</time>
				</trkpt>
				<trkpt lat="60.36216" lon="5.34617">
					<ele>20</ele>
					<time>0001-01-01T00:00:00Z</time>
				</trkpt>
				<trkpt lat="60.36238" lon="5.34636">
					<ele>21</ele>
					<time>0001-01-01T00:00:00Z</time>
				</trkpt>
				<trkpt lat="60.36264" lon="5.34641">
					<ele>21</ele>
					<time>0001-01-01T00:00:00Z</time>
				</trkpt>
				<trkpt lat="60.36422" lon="5.34581">
					<ele>22</ele>
					<time>0001-01-01T00:00:00Z</time>
				</trkpt>
				<trkpt lat="60.36572" lon="5.34521">
					<ele>25</ele>
					<time>0001-01-01T00:00:00Z</time>
				</trkpt>
				<trkpt lat="60.36712" lon="5.34435">
					<ele>28</ele>
					<time>0001-01-01T00:00:00Z</time>
				</trkpt>
				<trkpt lat="60.36870" lon="5.34312">
					<ele>28</ele>
					<time>0001-01-01T00:00:00Z</time>
				</trkpt>
				<trkpt lat="60.36984" lon="5.34223">
					<ele>26</ele>
					<time>0001-01-01T00:00:00Z</time>
				</trkpt>
				<trkpt lat="60.37070" lon="5.34178">
					<ele>29</ele>
					<time>0001-01-01T00:00:00Z</time>
				</trkpt>
				<trkpt lat="60.37118" lon="5.34167">
					<ele>28</ele>
					<time>0001-01-01T00:00:00Z</time>
				</trkpt>
				<trkpt lat="60.37118" lon="5.34167">
					<ele>24</ele>
					<time>0001-01-01T00:00:00Z</time>
				</trkpt>
				<trkpt lat="60.37140" lon="5.34164">
					<ele>25</ele>
					<time>0001-01-01T00:00:00Z</time>
				</trkpt>
				<trkpt lat="60.37148" lon="5.34174">
					<ele>29</ele>
					<time>0001-01-01T00:00:00Z</time>
				</trkpt>
				<trkpt lat="60.37148" lon="5.34174">
					<ele>29</ele>
					<time>0001-01-01T00:00:00Z</time>
				</trkpt>
				<trkpt lat="60.37154" lon="5.34157">
					<ele>28</ele>
					<time>0001-01-01T00:00:00Z</time>
				</trkpt>
				<trkpt lat="60.37150" lon="5.34073">
					<ele>20</ele>
					<time>0001-01-01T00:00:00Z</time>
				</trkpt>
				<trkpt lat="60.37154" lon="5.34058">
					<ele>21</ele>
					<time>0001-01-01T00:00:00Z</time>
				</trkpt>
				<trkpt lat="60.37166" lon="5.34045">
					<ele>21</ele>
					<time>0001-01-01T00:00:00Z</time>
				</trkpt>
				<trkpt lat="60.37300" lon="5.34002">
					<ele>20</ele>
					<time>0001-01-01T00:00:00Z</time>
				</trkpt>
				<trkpt lat="60.37339" lon="5.34001">
					<ele>20</ele>
					<time>0001-01-01T00:00:00Z</time>
				</trkpt>
				<trkpt lat="60.37357" lon="5.34021">
					<ele>20</ele>
					<time>0001-01-01T00:00:00Z</time>
				</trkpt>
				<trkpt lat="60.37390" lon="5.34008">
					<ele>21</ele>
					<time>0001-01-01T00:00:00Z</time>
				</trkpt>
				<trkpt lat="60.37396" lon="5.34008">
					<ele>20</ele>
					<time>0001-01-01T00:00:00Z</time>
				</trkpt>
				<trkpt lat="60.37432" lon="5.34011">
					<ele>17</ele>
					<time>0001-01-01T00:00:00Z</time>
				</trkpt>
				<trkpt lat="60.37481" lon="5.34015">
					<ele>21</ele>
					<time>0001-01-01T00:00:00Z</time>
				</trkpt>
				<trkpt lat="60.37579" lon="5.33947">
					<ele>20</ele>
					<time>0001-01-01T00:00:00Z</time>
				</trkpt>
				<trkpt lat="60.37619" lon="5.33911">
					<ele>19</ele>
					<time>0001-01-01T00:00:00Z</time>
				</trkpt>
				<trkpt lat="60.37633" lon="5.33915">
					<ele>19</ele>
					<time>0001-01-01T00:00:00Z</time>
				</trkpt>
				<trkpt lat="60.37769" lon="5.33755">
					<ele>19</ele>
					<time>0001-01-01T00:00:00Z</time>
				</trkpt>
				<trkpt lat="60.37644" lon="5.33781">
					<ele>20</ele>
					<time>0001-01-01T00:00:00Z</time>
				</trkpt>
				<trkpt lat="60.37639" lon="5.33747">
					<ele>23</ele>
					<time>0001-01-01T00:00:00Z</time>
				</trkpt>
				<trkpt lat="60.37652" lon="5.33746">
					<ele>19</ele>
					<time>0001-01-01T00:00:00Z</time>
				</trkpt>
				<trkpt lat="60.37728" lon="5.33678">
					<ele>14</ele>
					<time>0001-01-01T00:00:00Z</time>
				</trkpt>
				<trkpt lat="60.37742" lon="5.33651">
					<ele>11</ele>
					<time>0001-01-01T00:00:00Z</time>
				</trkpt>
				<trkpt lat="60.37745" lon="5.33637">
					<ele>11</ele>
					<time>0001-01-01T00:00:00Z</time>
				</trkpt>
				<trkpt lat="60.37761" lon="5.33650">
					<ele>10</ele>
					<time>0001-01-01T00:00:00Z</time>
				</trkpt>
				<trkpt lat="60.37788" lon="5.33653">
					<ele>9</ele>
					<time>0001-01-01T00:00:00Z</time>
				</trkpt>
				<trkpt lat="60.37799" lon="5.33643">
					<ele>9</ele>
					<time>0001-01-01T00:00:00Z</time>
				</trkpt>
				<trkpt lat="60.37884" lon="5.33525">
					<ele>7</ele>
					<time>0001-01-01T00:00:00Z</time>
				</trkpt>
				<trkpt lat="60.37900" lon="5.33482">
					<ele>7</ele>
					<time>0001-01-01T00:00:00Z</time>
				</trkpt>
				<trkpt lat="60.37960" lon="5.33449">
					<ele>6</ele>
					<time>0001-01-01T00:00:00Z</time>
				</trkpt>
				<trkpt lat="60.38094" lon="5.33338">
					<ele>7</ele>
					<time>0001-01-01T00:00:00Z</time>
				</trkpt>
				<trkpt lat="60.38220" lon="5.33258">
					<ele>9</ele>
					<time>0001-01-01T00:00:00Z</time>
				</trkpt>
				<trkpt lat="60.38258" lon="5.33249">
					<ele>8</ele>
					<time>0001-01-01T00:00:00Z</time>
				</trkpt>
				<trkpt lat="60.38269" lon="5.33309">
					<ele>9</ele>
					<time>0001-01-01T00:00:00Z</time>
				</trkpt>
				<trkpt lat="60.38289" lon="5.33335">
					<ele>10</ele>
					<time>0001-01-01T00:00:00Z</time>
				</trkpt>
				<trkpt lat="60.38308" lon="5.33355">
					<ele>12</ele>
					<time>0001-01-01T00:00:00Z</time>
				</trkpt>
				<trkpt lat="60.38331" lon="5.33368">
					<ele>14</ele>
					<time>0001-01-01T00:00:00Z</time>
				</trkpt>
				<trkpt lat="60.38354" lon="5.33369">
					<ele>13</ele>
					<time>0001-01-01T00:00:00Z</time>
				</trkpt>
				<trkpt lat="60.38396" lon="5.33317">
					<ele>13</ele>
					<time>0001-01-01T00:00:00Z</time>
				</trkpt>
				<trkpt lat="60.38479" lon="5.33248">
					<ele>12</ele>
					<time>0001-01-01T00:00:00Z</time>
				</trkpt>
				<trkpt lat="60.38533" lon="5.33139">
					<ele>9</ele>
					<time>0001-01-01T00:00:00Z</time>
				</trkpt>
				<trkpt lat="60.38594" lon="5.33063">
					<ele>9</ele>
					<time>0001-01-01T00:00:00Z</time>
				</trkpt>
				<trkpt lat="60.38595" lon="5.33062">
					<ele>9</ele>
					<time>0001-01-01T00:00:00Z</time>
				</trkpt>
				<trkpt lat="60.38596" lon="5.33061">
					<ele>9</ele>
					<time>0001-01-01T00:00:00Z</time>
				</trkpt>
				<trkpt lat="60.38681" lon="5.33073">
					<ele>9</ele>
					<time>0001-01-01T00:00:00Z</time>
				</trkpt>
				<trkpt lat="60.38694" lon="5.33178">
					<ele>11</ele>
					<time>0001-01-01T00:00:00Z</time>
				</trkpt>
				<trkpt lat="60.38756" lon="5.33171">
					<ele>11</ele>
					<time>0001-01-01T00:00:00Z</time>
				</trkpt>
				<trkpt lat="60.38784" lon="5.33164">
					<ele>11</ele>
					<time>0001-01-01T00:00:00Z</time>
				</trkpt>
				<trkpt lat="60.38837" lon="5.33076">
					<ele>12</ele>
					<time>0001-01-01T00:00:00Z</time>
				</trkpt>
				<trkpt lat="60.38894" lon="5.32989">
					<ele>14</ele>
					<time>0001-01-01T00:00:00Z</time>
				</trkpt>
				<trkpt lat="60.38897" lon="5.32934">
					<ele>13</ele>
					<time>0001-01-01T00:00:00Z</time>
				</trkpt>
				<trkpt lat="60.38920" lon="5.32808">
					<ele>12</ele>
					<time>0001-01-01T00:00:00Z</time>
				</trkpt>
				<trkpt lat="60.38956" lon="5.32624">
					<ele>21</ele>
					<time>0001-01-01T00:00:00Z</time>
				</trkpt>
				<trkpt lat="60.39014" lon="5.32435">
					<ele>22</ele>
					<time>0001-01-01T00:00:00Z</time>
				</trkpt>
				<trkpt lat="60.39027" lon="5.32428">
					<ele>19</ele>
					<time>0001-01-01T00:00:00Z</time>
				</trkpt>
				<trkpt lat="60.39033" lon="5.32311">
					<ele>19</ele>
					<time>0001-01-01T00:00:00Z</time>
				</trkpt>
				<trkpt lat="60.39045" lon="5.32277">
					<ele>17</ele>
					<time>0001-01-01T00:00:00Z</time>
				</trkpt>
				<trkpt lat="60.39090" lon="5.32201">
					<ele>17</ele>
					<time>0001-01-01T00:00:00Z</time>
				</trkpt>
				<trkpt lat="60.39112" lon="5.32162">
					<ele>17</ele>
					<time>0001-01-01T00:00:00Z</time>
				</trkpt>
				<trkpt lat="60.39103" lon="5.32224">
					<ele>17</ele>
					<time>0001-01-01T00:00:00Z</time>
				</trkpt>
				<trkpt lat="60.39127" lon="5.32252">
					<ele>17</ele>
					<time>0001-01-01T00:00:00Z</time>
				</trkpt>
				<trkpt lat="60.39162" lon="5.32296">
					<ele>15</ele>
					<time>0001-01-01T00:00:00Z</time>
				</trkpt>
				<trkpt lat="60.39252" lon="5.32390">
					<ele>7</ele>
					<time>0001-01-01T00:00:00Z</time>
				</trkpt>
				<trkpt lat="60.39322" lon="5.32468">
					<ele>6</ele>
					<time>0001-01-01T00:00:00Z</time>
				</trkpt>
				<trkpt lat="60.39356" lon="5.32480">
					<ele>11</ele>
					<time>0001-01-01T00:00:00Z</time>
				</trkpt>
				<trkpt lat="60.39359" lon="5.32481">
					<ele>11</ele>
					<time>0001-01-01T00:00:00Z</time>
				</trkpt>
				<trkpt lat="60.39397" lon="5.32519">
					<ele>8</ele>
					<time>0001-01-01T00:00:00Z</time>
				</trkpt>
				<trkpt lat="60.39426" lon="5.32527">
					<ele>7</ele>
					<time>0001-01-01T00:00:00Z</time>
				</trkpt>
				<trkpt lat="60.39518" lon="5.32581">
					<ele>4</ele>
					<time>0001-01-01T00:00:00Z</time>
				</trkpt>
				<trkpt lat="60.39538" lon="5.32592">
					<ele>4</ele>
					<time>0001-01-01T00:00:00Z</time>
				</trkpt>
				<trkpt lat="60.39547" lon="5.32593">
					<ele>5</ele>
					<time>0001-01-01T00:00:00Z</time>
				</trkpt>
				<trkpt lat="60.39563" lon="5.32576">
					<ele>5</ele>
					<time>0001-01-01T00:00:00Z</time>
				</trkpt>
				<trkpt lat="60.39653" lon="5.32431">
					<ele>9</ele>
					<time>0001-01-01T00:00:00Z</time>
				</trkpt>
				<trkpt lat="60.39666" lon="5.32404">
					<ele>10</ele>
					<time>0001-01-01T00:00:00Z</time>
				</trkpt>
				<trkpt lat="60.39671" lon="5.32380">
					<ele>10</ele>
					<time>0001-01-01T00:00:00Z</time>
				</trkpt>
				<trkpt lat="60.39750" lon="5.32190">
					<ele>8</ele>
					<time>0001-01-01T00:00:00Z</time>
				</trkpt>
				<trkpt lat="60.39755" lon="5.32180">
					<ele>8</ele>
					<time>0001-01-01T00:00:00Z</time>
				</trkpt>
				<trkpt lat="60.39855" lon="5.31992">
					<ele>8</ele>
					<time>0001-01-01T00:00:00Z</time>
				</trkpt>
				<trkpt lat="60.39908" lon="5.32108">
					<ele>5</ele>
					<time>0001-01-01T00:00:00Z</time>
				</trkpt>
				<trkpt lat="60.39925" lon="5.32144">
					<ele>13</ele>
					<time>0001-01-01T00:00:00Z</time>
				</trkpt>
				<trkpt lat="60.39925" lon="5.32144">
					<ele>14</ele>
					<time>0001-01-01T00:00:00Z</time>
				</trkpt>
				<trkpt lat="60.39928" lon="5.32139">
					<ele>15</ele>
					<time>0001-01-01T00:00:00Z</time>
				</trkpt>
				<trkpt lat="60.39937" lon="5.32097">
					<ele>14</ele>
					<time>0001-01-01T00:00:00Z</time>
				</trkpt>
				<trkpt lat="60.39955" lon="5.32028">
					<ele>14</ele>
					<time>0001-01-01T00:00:00Z</time>
				</trkpt>
				<trkpt lat="60.39942" lon="5.31994">
					<ele>14</ele>
					<time>0001-01-01T00:00:00Z</time>
				</trkpt>
				<trkpt lat="60.39924" lon="5.31990">
					<ele>14</ele>
					<time>0001-01-01T00:00:00Z</time>
				</trkpt>
				<trkpt lat="60.39923" lon="5.32000">
					<ele>12</ele>
					<time>0001-01-01T00:00:00Z</time>
				</trkpt>
				<trkpt lat="60.39925" lon="5.32006">
					<ele>10</ele>
					<time>0001-01-01T00:00:00Z</time>
				</trkpt>
		</trkseg>
	</trk>
</gpx>
